<?xml version="1.0" encoding="UTF-8" standalone="no" ?>
<gpx xmlns="http://www.topografix.com/GPX/1/1" xmlns:xsi="http://www.w3.org/2001/XMLSchema-instance" xsi:schemaLocation="http://www.topografix.com/GPX/1/1 http://www.topografix.com/GPX/1/1/gpx.xsd" version="1.1" creator="VisuGPX - https://www.visugpx.com">
  <metadata>
    <name>Autour d'Eguilles_3 nov. 2021</name>
    <desc><![CDATA[Boucle de 15 km, dénivelé cumulé 200 m, au départ du Parking Duby à Eguilles]]></desc>
  </metadata>
  <trk>
    <name><![CDATA[Autour d'Eguilles_3 nov. 2021]]></name>
    <trkseg>
      <trkpt lat="43.57143" lon="5.35398">
        <ele>284.82495117188</ele>
        <time>2021-11-03T08:37:18Z</time>
      </trkpt>
      <trkpt lat="43.5715" lon="5.35404">
        <ele>287.80798339844</ele>
        <time>2021-11-03T08:37:27Z</time>
      </trkpt>
      <trkpt lat="43.57153" lon="5.35394">
        <ele>285.33679199219</ele>
        <time>2021-11-03T08:38:58Z</time>
      </trkpt>
      <trkpt lat="43.57158" lon="5.35384">
        <ele>282.6435546875</ele>
        <time>2021-11-03T08:39:13Z</time>
      </trkpt>
      <trkpt lat="43.57161" lon="5.35373">
        <ele>282.61279296875</ele>
        <time>2021-11-03T08:39:22Z</time>
      </trkpt>
      <trkpt lat="43.57164" lon="5.35361">
        <ele>282.81610107422</ele>
        <time>2021-11-03T08:40:37Z</time>
      </trkpt>
      <trkpt lat="43.57158" lon="5.35353">
        <ele>280.84466552734</ele>
        <time>2021-11-03T08:40:50Z</time>
      </trkpt>
      <trkpt lat="43.5715" lon="5.35353">
        <ele>281.29217529297</ele>
        <time>2021-11-03T08:40:57Z</time>
      </trkpt>
      <trkpt lat="43.57157" lon="5.35358">
        <ele>285.51159667969</ele>
        <time>2021-11-03T08:50:04Z</time>
      </trkpt>
      <trkpt lat="43.5715" lon="5.35352">
        <ele>281.94421386719</ele>
        <time>2021-11-03T08:50:58Z</time>
      </trkpt>
      <trkpt lat="43.57142" lon="5.35353">
        <ele>281.42687988281</ele>
        <time>2021-11-03T08:51:07Z</time>
      </trkpt>
      <trkpt lat="43.57134" lon="5.35346">
        <ele>280.92059326172</ele>
        <time>2021-11-03T08:51:16Z</time>
      </trkpt>
      <trkpt lat="43.57127" lon="5.3534">
        <ele>281.53784179688</ele>
        <time>2021-11-03T08:51:24Z</time>
      </trkpt>
      <trkpt lat="43.57119" lon="5.35336">
        <ele>282.4677734375</ele>
        <time>2021-11-03T08:51:31Z</time>
      </trkpt>
      <trkpt lat="43.57111" lon="5.35338">
        <ele>282.37731933594</ele>
        <time>2021-11-03T08:51:38Z</time>
      </trkpt>
      <trkpt lat="43.57105" lon="5.35345">
        <ele>282.240234375</ele>
        <time>2021-11-03T08:51:44Z</time>
      </trkpt>
      <trkpt lat="43.57103" lon="5.35357">
        <ele>282.30224609375</ele>
        <time>2021-11-03T08:51:50Z</time>
      </trkpt>
      <trkpt lat="43.57098" lon="5.35347">
        <ele>281.87866210938</ele>
        <time>2021-11-03T08:52:00Z</time>
      </trkpt>
      <trkpt lat="43.57093" lon="5.35337">
        <ele>281.53857421875</ele>
        <time>2021-11-03T08:52:11Z</time>
      </trkpt>
      <trkpt lat="43.57085" lon="5.35337">
        <ele>281.27453613281</ele>
        <time>2021-11-03T08:52:21Z</time>
      </trkpt>
      <trkpt lat="43.57077" lon="5.35336">
        <ele>281.40649414062</ele>
        <time>2021-11-03T08:52:29Z</time>
      </trkpt>
      <trkpt lat="43.57069" lon="5.35333">
        <ele>281.90081787109</ele>
        <time>2021-11-03T08:52:36Z</time>
      </trkpt>
      <trkpt lat="43.57062" lon="5.3533">
        <ele>281.38641357422</ele>
        <time>2021-11-03T08:52:43Z</time>
      </trkpt>
      <trkpt lat="43.57054" lon="5.35326">
        <ele>281.58837890625</ele>
        <time>2021-11-03T08:52:50Z</time>
      </trkpt>
      <trkpt lat="43.57046" lon="5.35326">
        <ele>282.00469970703</ele>
        <time>2021-11-03T08:52:56Z</time>
      </trkpt>
      <trkpt lat="43.57039" lon="5.35329">
        <ele>281.12524414062</ele>
        <time>2021-11-03T08:53:02Z</time>
      </trkpt>
      <trkpt lat="43.57031" lon="5.3533">
        <ele>279.80938720703</ele>
        <time>2021-11-03T08:53:09Z</time>
      </trkpt>
      <trkpt lat="43.57023" lon="5.35332">
        <ele>277.62353515625</ele>
        <time>2021-11-03T08:53:15Z</time>
      </trkpt>
      <trkpt lat="43.57016" lon="5.3533">
        <ele>276.4970703125</ele>
        <time>2021-11-03T08:53:22Z</time>
      </trkpt>
      <trkpt lat="43.57007" lon="5.35327">
        <ele>276.31457519531</ele>
        <time>2021-11-03T08:53:29Z</time>
      </trkpt>
      <trkpt lat="43.57" lon="5.35324">
        <ele>278.14709472656</ele>
        <time>2021-11-03T08:53:36Z</time>
      </trkpt>
      <trkpt lat="43.56996" lon="5.35313">
        <ele>278.36242675781</ele>
        <time>2021-11-03T08:53:55Z</time>
      </trkpt>
      <trkpt lat="43.57001" lon="5.35304">
        <ele>280.06506347656</ele>
        <time>2021-11-03T08:54:03Z</time>
      </trkpt>
      <trkpt lat="43.57005" lon="5.35295">
        <ele>279.02282714844</ele>
        <time>2021-11-03T08:54:11Z</time>
      </trkpt>
      <trkpt lat="43.5701" lon="5.35284">
        <ele>278.61883544922</ele>
        <time>2021-11-03T08:54:20Z</time>
      </trkpt>
      <trkpt lat="43.57015" lon="5.35275">
        <ele>280.03216552734</ele>
        <time>2021-11-03T08:54:28Z</time>
      </trkpt>
      <trkpt lat="43.57019" lon="5.35265">
        <ele>280.3486328125</ele>
        <time>2021-11-03T08:54:35Z</time>
      </trkpt>
      <trkpt lat="43.57023" lon="5.35255">
        <ele>278.89135742188</ele>
        <time>2021-11-03T08:54:43Z</time>
      </trkpt>
      <trkpt lat="43.57026" lon="5.35244">
        <ele>276.62341308594</ele>
        <time>2021-11-03T08:54:51Z</time>
      </trkpt>
      <trkpt lat="43.57032" lon="5.35235">
        <ele>276.44665527344</ele>
        <time>2021-11-03T08:54:59Z</time>
      </trkpt>
      <trkpt lat="43.57036" lon="5.35224">
        <ele>276.24865722656</ele>
        <time>2021-11-03T08:55:06Z</time>
      </trkpt>
      <trkpt lat="43.5704" lon="5.35214">
        <ele>277.7978515625</ele>
        <time>2021-11-03T08:55:14Z</time>
      </trkpt>
      <trkpt lat="43.57044" lon="5.35204">
        <ele>279.3837890625</ele>
        <time>2021-11-03T08:55:22Z</time>
      </trkpt>
      <trkpt lat="43.57049" lon="5.35194">
        <ele>278.61083984375</ele>
        <time>2021-11-03T08:55:29Z</time>
      </trkpt>
      <trkpt lat="43.57054" lon="5.35185">
        <ele>279.71423339844</ele>
        <time>2021-11-03T08:55:36Z</time>
      </trkpt>
      <trkpt lat="43.57058" lon="5.35174">
        <ele>278.69396972656</ele>
        <time>2021-11-03T08:55:43Z</time>
      </trkpt>
      <trkpt lat="43.57063" lon="5.35164">
        <ele>277.69055175781</ele>
        <time>2021-11-03T08:55:51Z</time>
      </trkpt>
      <trkpt lat="43.57064" lon="5.35152">
        <ele>277.62744140625</ele>
        <time>2021-11-03T08:56:06Z</time>
      </trkpt>
      <trkpt lat="43.57068" lon="5.35142">
        <ele>277.53430175781</ele>
        <time>2021-11-03T08:56:13Z</time>
      </trkpt>
      <trkpt lat="43.57071" lon="5.35131">
        <ele>277.87866210938</ele>
        <time>2021-11-03T08:56:21Z</time>
      </trkpt>
      <trkpt lat="43.57075" lon="5.35122">
        <ele>277.77575683594</ele>
        <time>2021-11-03T08:56:28Z</time>
      </trkpt>
      <trkpt lat="43.57078" lon="5.35111">
        <ele>276.65454101562</ele>
        <time>2021-11-03T08:56:35Z</time>
      </trkpt>
      <trkpt lat="43.57082" lon="5.35102">
        <ele>276.20336914062</ele>
        <time>2021-11-03T08:56:42Z</time>
      </trkpt>
      <trkpt lat="43.57086" lon="5.35092">
        <ele>276.65100097656</ele>
        <time>2021-11-03T08:56:49Z</time>
      </trkpt>
      <trkpt lat="43.5709" lon="5.35082">
        <ele>276.23370361328</ele>
        <time>2021-11-03T08:56:56Z</time>
      </trkpt>
      <trkpt lat="43.57093" lon="5.35071">
        <ele>276.41802978516</ele>
        <time>2021-11-03T08:57:04Z</time>
      </trkpt>
      <trkpt lat="43.57098" lon="5.35061">
        <ele>275.81500244141</ele>
        <time>2021-11-03T08:57:12Z</time>
      </trkpt>
      <trkpt lat="43.57102" lon="5.35052">
        <ele>275.66027832031</ele>
        <time>2021-11-03T08:57:19Z</time>
      </trkpt>
      <trkpt lat="43.57105" lon="5.35041">
        <ele>276.55383300781</ele>
        <time>2021-11-03T08:57:26Z</time>
      </trkpt>
      <trkpt lat="43.57111" lon="5.35034">
        <ele>277.18841552734</ele>
        <time>2021-11-03T08:57:33Z</time>
      </trkpt>
      <trkpt lat="43.57117" lon="5.35025">
        <ele>276.39678955078</ele>
        <time>2021-11-03T08:57:42Z</time>
      </trkpt>
      <trkpt lat="43.57122" lon="5.35015">
        <ele>276.06286621094</ele>
        <time>2021-11-03T08:57:49Z</time>
      </trkpt>
      <trkpt lat="43.57126" lon="5.35006">
        <ele>275.50677490234</ele>
        <time>2021-11-03T08:57:56Z</time>
      </trkpt>
      <trkpt lat="43.57131" lon="5.34996">
        <ele>276.92297363281</ele>
        <time>2021-11-03T08:58:04Z</time>
      </trkpt>
      <trkpt lat="43.57136" lon="5.34988">
        <ele>273.01110839844</ele>
        <time>2021-11-03T08:58:11Z</time>
      </trkpt>
      <trkpt lat="43.57138" lon="5.34976">
        <ele>272.17614746094</ele>
        <time>2021-11-03T08:58:31Z</time>
      </trkpt>
      <trkpt lat="43.57143" lon="5.34965">
        <ele>271.48767089844</ele>
        <time>2021-11-03T08:58:40Z</time>
      </trkpt>
      <trkpt lat="43.57146" lon="5.34954">
        <ele>272.2607421875</ele>
        <time>2021-11-03T08:58:48Z</time>
      </trkpt>
      <trkpt lat="43.5715" lon="5.34943">
        <ele>269.02624511719</ele>
        <time>2021-11-03T08:58:57Z</time>
      </trkpt>
      <trkpt lat="43.57155" lon="5.34933">
        <ele>269.77819824219</ele>
        <time>2021-11-03T08:59:06Z</time>
      </trkpt>
      <trkpt lat="43.57159" lon="5.34923">
        <ele>270.33929443359</ele>
        <time>2021-11-03T08:59:14Z</time>
      </trkpt>
      <trkpt lat="43.57165" lon="5.34916">
        <ele>266.49645996094</ele>
        <time>2021-11-03T08:59:21Z</time>
      </trkpt>
      <trkpt lat="43.57169" lon="5.34906">
        <ele>268.37622070312</ele>
        <time>2021-11-03T08:59:29Z</time>
      </trkpt>
      <trkpt lat="43.57172" lon="5.34895">
        <ele>271.35552978516</ele>
        <time>2021-11-03T08:59:36Z</time>
      </trkpt>
      <trkpt lat="43.57175" lon="5.34884">
        <ele>273.14611816406</ele>
        <time>2021-11-03T08:59:43Z</time>
      </trkpt>
      <trkpt lat="43.57179" lon="5.34874">
        <ele>275.26885986328</ele>
        <time>2021-11-03T08:59:50Z</time>
      </trkpt>
      <trkpt lat="43.57182" lon="5.34864">
        <ele>275.12036132812</ele>
        <time>2021-11-03T08:59:56Z</time>
      </trkpt>
      <trkpt lat="43.57185" lon="5.34853">
        <ele>275.63818359375</ele>
        <time>2021-11-03T09:00:02Z</time>
      </trkpt>
      <trkpt lat="43.57187" lon="5.34842">
        <ele>277.37469482422</ele>
        <time>2021-11-03T09:00:08Z</time>
      </trkpt>
      <trkpt lat="43.5719" lon="5.34832">
        <ele>273.14331054688</ele>
        <time>2021-11-03T09:00:25Z</time>
      </trkpt>
      <trkpt lat="43.57194" lon="5.34821">
        <ele>270.72326660156</ele>
        <time>2021-11-03T09:00:37Z</time>
      </trkpt>
      <trkpt lat="43.57197" lon="5.34811">
        <ele>271.33178710938</ele>
        <time>2021-11-03T09:00:45Z</time>
      </trkpt>
      <trkpt lat="43.57199" lon="5.34799">
        <ele>271.86730957031</ele>
        <time>2021-11-03T09:00:53Z</time>
      </trkpt>
      <trkpt lat="43.572" lon="5.34788">
        <ele>273.77758789062</ele>
        <time>2021-11-03T09:01:25Z</time>
      </trkpt>
      <trkpt lat="43.57201" lon="5.34777">
        <ele>275.01245117188</ele>
        <time>2021-11-03T09:01:50Z</time>
      </trkpt>
      <trkpt lat="43.57205" lon="5.34767">
        <ele>274.55242919922</ele>
        <time>2021-11-03T09:01:55Z</time>
      </trkpt>
      <trkpt lat="43.57208" lon="5.34756">
        <ele>273.55493164062</ele>
        <time>2021-11-03T09:02:01Z</time>
      </trkpt>
      <trkpt lat="43.57213" lon="5.34746">
        <ele>275.17468261719</ele>
        <time>2021-11-03T09:02:08Z</time>
      </trkpt>
      <trkpt lat="43.57215" lon="5.34735">
        <ele>274.21789550781</ele>
        <time>2021-11-03T09:02:15Z</time>
      </trkpt>
      <trkpt lat="43.57215" lon="5.34724">
        <ele>275.23382568359</ele>
        <time>2021-11-03T09:02:22Z</time>
      </trkpt>
      <trkpt lat="43.57215" lon="5.34713">
        <ele>273.36450195312</ele>
        <time>2021-11-03T09:02:29Z</time>
      </trkpt>
      <trkpt lat="43.57216" lon="5.34701">
        <ele>273.93933105469</ele>
        <time>2021-11-03T09:02:36Z</time>
      </trkpt>
      <trkpt lat="43.57217" lon="5.34689">
        <ele>273.33825683594</ele>
        <time>2021-11-03T09:02:44Z</time>
      </trkpt>
      <trkpt lat="43.57222" lon="5.34679">
        <ele>271.75610351562</ele>
        <time>2021-11-03T09:02:52Z</time>
      </trkpt>
      <trkpt lat="43.5723" lon="5.34675">
        <ele>268.25573730469</ele>
        <time>2021-11-03T09:03:02Z</time>
      </trkpt>
      <trkpt lat="43.57238" lon="5.34672">
        <ele>266.99957275391</ele>
        <time>2021-11-03T09:03:12Z</time>
      </trkpt>
      <trkpt lat="43.57247" lon="5.34669">
        <ele>266.39221191406</ele>
        <time>2021-11-03T09:03:21Z</time>
      </trkpt>
      <trkpt lat="43.57255" lon="5.34667">
        <ele>264.69494628906</ele>
        <time>2021-11-03T09:03:30Z</time>
      </trkpt>
      <trkpt lat="43.57263" lon="5.34662">
        <ele>263.91357421875</ele>
        <time>2021-11-03T09:03:43Z</time>
      </trkpt>
      <trkpt lat="43.5727" lon="5.34657">
        <ele>261.16271972656</ele>
        <time>2021-11-03T09:03:51Z</time>
      </trkpt>
      <trkpt lat="43.57278" lon="5.34652">
        <ele>258.36364746094</ele>
        <time>2021-11-03T09:03:59Z</time>
      </trkpt>
      <trkpt lat="43.57284" lon="5.34646">
        <ele>259.43939208984</ele>
        <time>2021-11-03T09:04:05Z</time>
      </trkpt>
      <trkpt lat="43.57291" lon="5.34639">
        <ele>260.90710449219</ele>
        <time>2021-11-03T09:04:13Z</time>
      </trkpt>
      <trkpt lat="43.57299" lon="5.34633">
        <ele>259.30749511719</ele>
        <time>2021-11-03T09:04:23Z</time>
      </trkpt>
      <trkpt lat="43.57306" lon="5.34627">
        <ele>258.65637207031</ele>
        <time>2021-11-03T09:04:31Z</time>
      </trkpt>
      <trkpt lat="43.57313" lon="5.34621">
        <ele>257.69995117188</ele>
        <time>2021-11-03T09:04:40Z</time>
      </trkpt>
      <trkpt lat="43.5732" lon="5.34615">
        <ele>256.21545410156</ele>
        <time>2021-11-03T09:04:49Z</time>
      </trkpt>
      <trkpt lat="43.57327" lon="5.34607">
        <ele>255.75805664062</ele>
        <time>2021-11-03T09:04:59Z</time>
      </trkpt>
      <trkpt lat="43.57334" lon="5.34601">
        <ele>255.81286621094</ele>
        <time>2021-11-03T09:05:09Z</time>
      </trkpt>
      <trkpt lat="43.5734" lon="5.34592">
        <ele>256.42443847656</ele>
        <time>2021-11-03T09:05:16Z</time>
      </trkpt>
      <trkpt lat="43.57346" lon="5.34583">
        <ele>255.46508789062</ele>
        <time>2021-11-03T09:05:24Z</time>
      </trkpt>
      <trkpt lat="43.57351" lon="5.34574">
        <ele>254.42944335938</ele>
        <time>2021-11-03T09:05:41Z</time>
      </trkpt>
      <trkpt lat="43.57355" lon="5.34564">
        <ele>251.56866455078</ele>
        <time>2021-11-03T09:05:49Z</time>
      </trkpt>
      <trkpt lat="43.57355" lon="5.34551">
        <ele>252.25146484375</ele>
        <time>2021-11-03T09:05:57Z</time>
      </trkpt>
      <trkpt lat="43.57355" lon="5.34539">
        <ele>251.826171875</ele>
        <time>2021-11-03T09:06:05Z</time>
      </trkpt>
      <trkpt lat="43.57364" lon="5.34535">
        <ele>251.61828613281</ele>
        <time>2021-11-03T09:06:31Z</time>
      </trkpt>
      <trkpt lat="43.57372" lon="5.34534">
        <ele>253.09936523438</ele>
        <time>2021-11-03T09:06:43Z</time>
      </trkpt>
      <trkpt lat="43.57378" lon="5.34527">
        <ele>252.75225830078</ele>
        <time>2021-11-03T09:06:50Z</time>
      </trkpt>
      <trkpt lat="43.57383" lon="5.34517">
        <ele>253.27593994141</ele>
        <time>2021-11-03T09:06:57Z</time>
      </trkpt>
      <trkpt lat="43.57386" lon="5.34507">
        <ele>253.21325683594</ele>
        <time>2021-11-03T09:07:04Z</time>
      </trkpt>
      <trkpt lat="43.57389" lon="5.34496">
        <ele>253.11578369141</ele>
        <time>2021-11-03T09:07:12Z</time>
      </trkpt>
      <trkpt lat="43.57393" lon="5.34485">
        <ele>254.38604736328</ele>
        <time>2021-11-03T09:07:20Z</time>
      </trkpt>
      <trkpt lat="43.57397" lon="5.34475">
        <ele>255.89916992188</ele>
        <time>2021-11-03T09:07:28Z</time>
      </trkpt>
      <trkpt lat="43.574" lon="5.34464">
        <ele>255.39135742188</ele>
        <time>2021-11-03T09:07:37Z</time>
      </trkpt>
      <trkpt lat="43.57403" lon="5.34452">
        <ele>255.65954589844</ele>
        <time>2021-11-03T09:07:45Z</time>
      </trkpt>
      <trkpt lat="43.57406" lon="5.34442">
        <ele>256.25567626953</ele>
        <time>2021-11-03T09:07:52Z</time>
      </trkpt>
      <trkpt lat="43.57409" lon="5.34432">
        <ele>255.50134277344</ele>
        <time>2021-11-03T09:07:59Z</time>
      </trkpt>
      <trkpt lat="43.5741" lon="5.34421">
        <ele>255.31817626953</ele>
        <time>2021-11-03T09:08:06Z</time>
      </trkpt>
      <trkpt lat="43.57412" lon="5.3441">
        <ele>257.08776855469</ele>
        <time>2021-11-03T09:08:13Z</time>
      </trkpt>
      <trkpt lat="43.57414" lon="5.34398">
        <ele>258.83605957031</ele>
        <time>2021-11-03T09:08:20Z</time>
      </trkpt>
      <trkpt lat="43.57415" lon="5.34387">
        <ele>258.55310058594</ele>
        <time>2021-11-03T09:08:28Z</time>
      </trkpt>
      <trkpt lat="43.57414" lon="5.34375">
        <ele>256.84216308594</ele>
        <time>2021-11-03T09:08:37Z</time>
      </trkpt>
      <trkpt lat="43.57412" lon="5.34364">
        <ele>254.57885742188</ele>
        <time>2021-11-03T09:08:47Z</time>
      </trkpt>
      <trkpt lat="43.57415" lon="5.34353">
        <ele>253.09429931641</ele>
        <time>2021-11-03T09:08:54Z</time>
      </trkpt>
      <trkpt lat="43.57416" lon="5.34342">
        <ele>254.46783447266</ele>
        <time>2021-11-03T09:09:01Z</time>
      </trkpt>
      <trkpt lat="43.5742" lon="5.3433">
        <ele>255.54821777344</ele>
        <time>2021-11-03T09:09:09Z</time>
      </trkpt>
      <trkpt lat="43.57421" lon="5.34318">
        <ele>255.84124755859</ele>
        <time>2021-11-03T09:09:17Z</time>
      </trkpt>
      <trkpt lat="43.57422" lon="5.34307">
        <ele>256.33343505859</ele>
        <time>2021-11-03T09:09:24Z</time>
      </trkpt>
      <trkpt lat="43.57424" lon="5.34296">
        <ele>255.70050048828</ele>
        <time>2021-11-03T09:09:32Z</time>
      </trkpt>
      <trkpt lat="43.57425" lon="5.34284">
        <ele>256.17114257812</ele>
        <time>2021-11-03T09:09:41Z</time>
      </trkpt>
      <trkpt lat="43.57426" lon="5.34272">
        <ele>257.068359375</ele>
        <time>2021-11-03T09:09:49Z</time>
      </trkpt>
      <trkpt lat="43.57426" lon="5.34261">
        <ele>256.11151123047</ele>
        <time>2021-11-03T09:09:57Z</time>
      </trkpt>
      <trkpt lat="43.57426" lon="5.34249">
        <ele>256.0009765625</ele>
        <time>2021-11-03T09:10:04Z</time>
      </trkpt>
      <trkpt lat="43.57428" lon="5.34238">
        <ele>254.54943847656</ele>
        <time>2021-11-03T09:10:11Z</time>
      </trkpt>
      <trkpt lat="43.5743" lon="5.34227">
        <ele>255.20794677734</ele>
        <time>2021-11-03T09:10:18Z</time>
      </trkpt>
      <trkpt lat="43.57433" lon="5.34216">
        <ele>253.70532226562</ele>
        <time>2021-11-03T09:10:26Z</time>
      </trkpt>
      <trkpt lat="43.57436" lon="5.34205">
        <ele>253.74108886719</ele>
        <time>2021-11-03T09:10:34Z</time>
      </trkpt>
      <trkpt lat="43.57439" lon="5.34195">
        <ele>254.41015625</ele>
        <time>2021-11-03T09:10:41Z</time>
      </trkpt>
      <trkpt lat="43.5744" lon="5.34184">
        <ele>255.45861816406</ele>
        <time>2021-11-03T09:10:48Z</time>
      </trkpt>
      <trkpt lat="43.57443" lon="5.34174">
        <ele>254.9033203125</ele>
        <time>2021-11-03T09:10:56Z</time>
      </trkpt>
      <trkpt lat="43.57445" lon="5.34162">
        <ele>256.3291015625</ele>
        <time>2021-11-03T09:11:04Z</time>
      </trkpt>
      <trkpt lat="43.57448" lon="5.34151">
        <ele>257.54064941406</ele>
        <time>2021-11-03T09:11:12Z</time>
      </trkpt>
      <trkpt lat="43.57451" lon="5.3414">
        <ele>258.13549804688</ele>
        <time>2021-11-03T09:11:19Z</time>
      </trkpt>
      <trkpt lat="43.57453" lon="5.34129">
        <ele>260.46228027344</ele>
        <time>2021-11-03T09:11:26Z</time>
      </trkpt>
      <trkpt lat="43.57455" lon="5.34118">
        <ele>261.18572998047</ele>
        <time>2021-11-03T09:11:34Z</time>
      </trkpt>
      <trkpt lat="43.57456" lon="5.34106">
        <ele>259.79602050781</ele>
        <time>2021-11-03T09:11:41Z</time>
      </trkpt>
      <trkpt lat="43.57457" lon="5.34094">
        <ele>259.77880859375</ele>
        <time>2021-11-03T09:11:48Z</time>
      </trkpt>
      <trkpt lat="43.57455" lon="5.34082">
        <ele>261.82653808594</ele>
        <time>2021-11-03T09:11:55Z</time>
      </trkpt>
      <trkpt lat="43.57453" lon="5.3407">
        <ele>262.89001464844</ele>
        <time>2021-11-03T09:12:02Z</time>
      </trkpt>
      <trkpt lat="43.5745" lon="5.34059">
        <ele>259.15991210938</ele>
        <time>2021-11-03T09:12:10Z</time>
      </trkpt>
      <trkpt lat="43.57448" lon="5.34049">
        <ele>257.48602294922</ele>
        <time>2021-11-03T09:12:17Z</time>
      </trkpt>
      <trkpt lat="43.57445" lon="5.34037">
        <ele>259.64880371094</ele>
        <time>2021-11-03T09:12:25Z</time>
      </trkpt>
      <trkpt lat="43.57444" lon="5.34025">
        <ele>258.90582275391</ele>
        <time>2021-11-03T09:12:33Z</time>
      </trkpt>
      <trkpt lat="43.57442" lon="5.34014">
        <ele>256.31616210938</ele>
        <time>2021-11-03T09:12:42Z</time>
      </trkpt>
      <trkpt lat="43.57442" lon="5.34003">
        <ele>255.98352050781</ele>
        <time>2021-11-03T09:12:50Z</time>
      </trkpt>
      <trkpt lat="43.57442" lon="5.33991">
        <ele>256.46252441406</ele>
        <time>2021-11-03T09:12:57Z</time>
      </trkpt>
      <trkpt lat="43.57443" lon="5.33979">
        <ele>256.55035400391</ele>
        <time>2021-11-03T09:13:05Z</time>
      </trkpt>
      <trkpt lat="43.57444" lon="5.33968">
        <ele>257.32025146484</ele>
        <time>2021-11-03T09:13:13Z</time>
      </trkpt>
      <trkpt lat="43.57447" lon="5.33957">
        <ele>258.81372070312</ele>
        <time>2021-11-03T09:13:21Z</time>
      </trkpt>
      <trkpt lat="43.57448" lon="5.33946">
        <ele>259.43579101562</ele>
        <time>2021-11-03T09:13:28Z</time>
      </trkpt>
      <trkpt lat="43.5745" lon="5.33935">
        <ele>261.29187011719</ele>
        <time>2021-11-03T09:13:36Z</time>
      </trkpt>
      <trkpt lat="43.57449" lon="5.33923">
        <ele>260.17810058594</ele>
        <time>2021-11-03T09:13:45Z</time>
      </trkpt>
      <trkpt lat="43.5745" lon="5.33911">
        <ele>260.9892578125</ele>
        <time>2021-11-03T09:13:53Z</time>
      </trkpt>
      <trkpt lat="43.5745" lon="5.339">
        <ele>263.25842285156</ele>
        <time>2021-11-03T09:14:00Z</time>
      </trkpt>
      <trkpt lat="43.5745" lon="5.33889">
        <ele>262.77856445312</ele>
        <time>2021-11-03T09:14:06Z</time>
      </trkpt>
      <trkpt lat="43.5745" lon="5.33877">
        <ele>262.77899169922</ele>
        <time>2021-11-03T09:14:13Z</time>
      </trkpt>
      <trkpt lat="43.5745" lon="5.33865">
        <ele>262.33636474609</ele>
        <time>2021-11-03T09:14:20Z</time>
      </trkpt>
      <trkpt lat="43.57449" lon="5.33854">
        <ele>261.75738525391</ele>
        <time>2021-11-03T09:14:27Z</time>
      </trkpt>
      <trkpt lat="43.57451" lon="5.33842">
        <ele>259.86706542969</ele>
        <time>2021-11-03T09:14:35Z</time>
      </trkpt>
      <trkpt lat="43.57453" lon="5.33831">
        <ele>258.16662597656</ele>
        <time>2021-11-03T09:14:43Z</time>
      </trkpt>
      <trkpt lat="43.57453" lon="5.3382">
        <ele>258.93005371094</ele>
        <time>2021-11-03T09:14:50Z</time>
      </trkpt>
      <trkpt lat="43.57456" lon="5.33809">
        <ele>259.85778808594</ele>
        <time>2021-11-03T09:14:57Z</time>
      </trkpt>
      <trkpt lat="43.57458" lon="5.33799">
        <ele>256.88525390625</ele>
        <time>2021-11-03T09:15:04Z</time>
      </trkpt>
      <trkpt lat="43.57461" lon="5.33788">
        <ele>255.60870361328</ele>
        <time>2021-11-03T09:15:11Z</time>
      </trkpt>
      <trkpt lat="43.57462" lon="5.33777">
        <ele>256.20861816406</ele>
        <time>2021-11-03T09:15:18Z</time>
      </trkpt>
      <trkpt lat="43.57464" lon="5.33766">
        <ele>255.91656494141</ele>
        <time>2021-11-03T09:15:25Z</time>
      </trkpt>
      <trkpt lat="43.57468" lon="5.33755">
        <ele>256.24279785156</ele>
        <time>2021-11-03T09:15:32Z</time>
      </trkpt>
      <trkpt lat="43.5747" lon="5.33744">
        <ele>256.40209960938</ele>
        <time>2021-11-03T09:15:39Z</time>
      </trkpt>
      <trkpt lat="43.57471" lon="5.33733">
        <ele>255.73834228516</ele>
        <time>2021-11-03T09:15:46Z</time>
      </trkpt>
      <trkpt lat="43.57474" lon="5.33722">
        <ele>255.82458496094</ele>
        <time>2021-11-03T09:15:53Z</time>
      </trkpt>
      <trkpt lat="43.57476" lon="5.3371">
        <ele>255.89343261719</ele>
        <time>2021-11-03T09:16:01Z</time>
      </trkpt>
      <trkpt lat="43.57477" lon="5.33699">
        <ele>254.03112792969</ele>
        <time>2021-11-03T09:16:08Z</time>
      </trkpt>
      <trkpt lat="43.57479" lon="5.33688">
        <ele>254.48657226562</ele>
        <time>2021-11-03T09:16:15Z</time>
      </trkpt>
      <trkpt lat="43.57479" lon="5.33677">
        <ele>254.35284423828</ele>
        <time>2021-11-03T09:16:22Z</time>
      </trkpt>
      <trkpt lat="43.57479" lon="5.33666">
        <ele>254.48486328125</ele>
        <time>2021-11-03T09:16:29Z</time>
      </trkpt>
      <trkpt lat="43.5748" lon="5.33655">
        <ele>254.54113769531</ele>
        <time>2021-11-03T09:16:36Z</time>
      </trkpt>
      <trkpt lat="43.57481" lon="5.33643">
        <ele>255.73181152344</ele>
        <time>2021-11-03T09:16:43Z</time>
      </trkpt>
      <trkpt lat="43.57484" lon="5.33633">
        <ele>255.57739257812</ele>
        <time>2021-11-03T09:16:50Z</time>
      </trkpt>
      <trkpt lat="43.57486" lon="5.33621">
        <ele>256.66302490234</ele>
        <time>2021-11-03T09:16:58Z</time>
      </trkpt>
      <trkpt lat="43.57489" lon="5.33611">
        <ele>256.21997070312</ele>
        <time>2021-11-03T09:17:05Z</time>
      </trkpt>
      <trkpt lat="43.57492" lon="5.336">
        <ele>255.29650878906</ele>
        <time>2021-11-03T09:17:12Z</time>
      </trkpt>
      <trkpt lat="43.57495" lon="5.33589">
        <ele>253.83148193359</ele>
        <time>2021-11-03T09:17:19Z</time>
      </trkpt>
      <trkpt lat="43.57498" lon="5.33578">
        <ele>255.73040771484</ele>
        <time>2021-11-03T09:17:26Z</time>
      </trkpt>
      <trkpt lat="43.57501" lon="5.33568">
        <ele>255.39770507812</ele>
        <time>2021-11-03T09:17:33Z</time>
      </trkpt>
      <trkpt lat="43.57504" lon="5.33557">
        <ele>255.02362060547</ele>
        <time>2021-11-03T09:17:40Z</time>
      </trkpt>
      <trkpt lat="43.57505" lon="5.33546">
        <ele>253.65002441406</ele>
        <time>2021-11-03T09:17:48Z</time>
      </trkpt>
      <trkpt lat="43.57507" lon="5.33534">
        <ele>252.84741210938</ele>
        <time>2021-11-03T09:17:56Z</time>
      </trkpt>
      <trkpt lat="43.57509" lon="5.33524">
        <ele>255.32641601562</ele>
        <time>2021-11-03T09:18:04Z</time>
      </trkpt>
      <trkpt lat="43.57512" lon="5.33513">
        <ele>254.44262695312</ele>
        <time>2021-11-03T09:18:11Z</time>
      </trkpt>
      <trkpt lat="43.57516" lon="5.33502">
        <ele>253.85955810547</ele>
        <time>2021-11-03T09:18:19Z</time>
      </trkpt>
      <trkpt lat="43.57518" lon="5.33491">
        <ele>255.11450195312</ele>
        <time>2021-11-03T09:18:26Z</time>
      </trkpt>
      <trkpt lat="43.57521" lon="5.33479">
        <ele>254.89306640625</ele>
        <time>2021-11-03T09:18:34Z</time>
      </trkpt>
      <trkpt lat="43.57523" lon="5.33468">
        <ele>255.44879150391</ele>
        <time>2021-11-03T09:18:41Z</time>
      </trkpt>
      <trkpt lat="43.57524" lon="5.33457">
        <ele>256.19085693359</ele>
        <time>2021-11-03T09:18:48Z</time>
      </trkpt>
      <trkpt lat="43.57525" lon="5.33445">
        <ele>256.90209960938</ele>
        <time>2021-11-03T09:18:56Z</time>
      </trkpt>
      <trkpt lat="43.57526" lon="5.33434">
        <ele>254.88342285156</ele>
        <time>2021-11-03T09:19:04Z</time>
      </trkpt>
      <trkpt lat="43.57527" lon="5.33423">
        <ele>253.69384765625</ele>
        <time>2021-11-03T09:19:11Z</time>
      </trkpt>
      <trkpt lat="43.57528" lon="5.33412">
        <ele>256.732421875</ele>
        <time>2021-11-03T09:19:18Z</time>
      </trkpt>
      <trkpt lat="43.57528" lon="5.334">
        <ele>255.48754882812</ele>
        <time>2021-11-03T09:19:25Z</time>
      </trkpt>
      <trkpt lat="43.57528" lon="5.3339">
        <ele>256.71252441406</ele>
        <time>2021-11-03T09:19:32Z</time>
      </trkpt>
      <trkpt lat="43.57528" lon="5.33378">
        <ele>255.80053710938</ele>
        <time>2021-11-03T09:19:40Z</time>
      </trkpt>
      <trkpt lat="43.57529" lon="5.33367">
        <ele>258.97918701172</ele>
        <time>2021-11-03T09:19:47Z</time>
      </trkpt>
      <trkpt lat="43.57528" lon="5.33356">
        <ele>257.35546875</ele>
        <time>2021-11-03T09:19:54Z</time>
      </trkpt>
      <trkpt lat="43.57529" lon="5.33345">
        <ele>256.63623046875</ele>
        <time>2021-11-03T09:20:01Z</time>
      </trkpt>
      <trkpt lat="43.57529" lon="5.33333">
        <ele>256.80017089844</ele>
        <time>2021-11-03T09:20:09Z</time>
      </trkpt>
      <trkpt lat="43.57529" lon="5.33322">
        <ele>255.78930664062</ele>
        <time>2021-11-03T09:21:30Z</time>
      </trkpt>
      <trkpt lat="43.57524" lon="5.33313">
        <ele>257.46234130859</ele>
        <time>2021-11-03T09:21:39Z</time>
      </trkpt>
      <trkpt lat="43.57517" lon="5.33307">
        <ele>257.60327148438</ele>
        <time>2021-11-03T09:21:48Z</time>
      </trkpt>
      <trkpt lat="43.57509" lon="5.33301">
        <ele>258.14562988281</ele>
        <time>2021-11-03T09:21:57Z</time>
      </trkpt>
      <trkpt lat="43.57502" lon="5.33295">
        <ele>258.98681640625</ele>
        <time>2021-11-03T09:22:06Z</time>
      </trkpt>
      <trkpt lat="43.57497" lon="5.33285">
        <ele>258.44360351562</ele>
        <time>2021-11-03T09:22:15Z</time>
      </trkpt>
      <trkpt lat="43.5749" lon="5.33277">
        <ele>257.64111328125</ele>
        <time>2021-11-03T09:22:35Z</time>
      </trkpt>
      <trkpt lat="43.57485" lon="5.33269">
        <ele>257.72674560547</ele>
        <time>2021-11-03T09:22:42Z</time>
      </trkpt>
      <trkpt lat="43.57478" lon="5.33261">
        <ele>258.74774169922</ele>
        <time>2021-11-03T09:22:49Z</time>
      </trkpt>
      <trkpt lat="43.5747" lon="5.33257">
        <ele>260.34088134766</ele>
        <time>2021-11-03T09:22:56Z</time>
      </trkpt>
      <trkpt lat="43.57462" lon="5.33254">
        <ele>259.82336425781</ele>
        <time>2021-11-03T09:23:03Z</time>
      </trkpt>
      <trkpt lat="43.57453" lon="5.33252">
        <ele>258.82739257812</ele>
        <time>2021-11-03T09:23:12Z</time>
      </trkpt>
      <trkpt lat="43.57445" lon="5.33248">
        <ele>257.95275878906</ele>
        <time>2021-11-03T09:23:21Z</time>
      </trkpt>
      <trkpt lat="43.57437" lon="5.33242">
        <ele>259.68615722656</ele>
        <time>2021-11-03T09:23:30Z</time>
      </trkpt>
      <trkpt lat="43.57429" lon="5.33237">
        <ele>257.396484375</ele>
        <time>2021-11-03T09:23:38Z</time>
      </trkpt>
      <trkpt lat="43.57421" lon="5.33234">
        <ele>257.58715820312</ele>
        <time>2021-11-03T09:23:46Z</time>
      </trkpt>
      <trkpt lat="43.57413" lon="5.3323">
        <ele>260.42980957031</ele>
        <time>2021-11-03T09:23:54Z</time>
      </trkpt>
      <trkpt lat="43.57405" lon="5.33228">
        <ele>262.44519042969</ele>
        <time>2021-11-03T09:24:02Z</time>
      </trkpt>
      <trkpt lat="43.57396" lon="5.33229">
        <ele>260.67095947266</ele>
        <time>2021-11-03T09:24:17Z</time>
      </trkpt>
      <trkpt lat="43.57387" lon="5.33228">
        <ele>264.91070556641</ele>
        <time>2021-11-03T09:24:39Z</time>
      </trkpt>
      <trkpt lat="43.57379" lon="5.33229">
        <ele>267.39428710938</ele>
        <time>2021-11-03T09:24:51Z</time>
      </trkpt>
      <trkpt lat="43.57371" lon="5.33236">
        <ele>262.50469970703</ele>
        <time>2021-11-03T09:25:02Z</time>
      </trkpt>
      <trkpt lat="43.57364" lon="5.33241">
        <ele>261.70648193359</ele>
        <time>2021-11-03T09:25:11Z</time>
      </trkpt>
      <trkpt lat="43.57356" lon="5.33246">
        <ele>265.06787109375</ele>
        <time>2021-11-03T09:25:21Z</time>
      </trkpt>
      <trkpt lat="43.57348" lon="5.33249">
        <ele>268.556640625</ele>
        <time>2021-11-03T09:25:30Z</time>
      </trkpt>
      <trkpt lat="43.5734" lon="5.33251">
        <ele>270.66369628906</ele>
        <time>2021-11-03T09:25:38Z</time>
      </trkpt>
      <trkpt lat="43.57333" lon="5.33257">
        <ele>268.40789794922</ele>
        <time>2021-11-03T09:25:46Z</time>
      </trkpt>
      <trkpt lat="43.57326" lon="5.33264">
        <ele>270.41455078125</ele>
        <time>2021-11-03T09:25:54Z</time>
      </trkpt>
      <trkpt lat="43.57318" lon="5.33268">
        <ele>271.24176025391</ele>
        <time>2021-11-03T09:26:10Z</time>
      </trkpt>
      <trkpt lat="43.5731" lon="5.33271">
        <ele>271.48510742188</ele>
        <time>2021-11-03T09:26:23Z</time>
      </trkpt>
      <trkpt lat="43.57301" lon="5.33273">
        <ele>271.30773925781</ele>
        <time>2021-11-03T09:26:33Z</time>
      </trkpt>
      <trkpt lat="43.57293" lon="5.33271">
        <ele>272.41320800781</ele>
        <time>2021-11-03T09:26:42Z</time>
      </trkpt>
      <trkpt lat="43.57284" lon="5.3327">
        <ele>274.28552246094</ele>
        <time>2021-11-03T09:26:51Z</time>
      </trkpt>
      <trkpt lat="43.57277" lon="5.33267">
        <ele>276.27160644531</ele>
        <time>2021-11-03T09:26:59Z</time>
      </trkpt>
      <trkpt lat="43.57269" lon="5.33264">
        <ele>277.74401855469</ele>
        <time>2021-11-03T09:27:06Z</time>
      </trkpt>
      <trkpt lat="43.57261" lon="5.33259">
        <ele>278.07556152344</ele>
        <time>2021-11-03T09:27:13Z</time>
      </trkpt>
      <trkpt lat="43.57254" lon="5.33254">
        <ele>277.02526855469</ele>
        <time>2021-11-03T09:27:20Z</time>
      </trkpt>
      <trkpt lat="43.57245" lon="5.33252">
        <ele>277.83947753906</ele>
        <time>2021-11-03T09:27:27Z</time>
      </trkpt>
      <trkpt lat="43.57238" lon="5.33249">
        <ele>277.00329589844</ele>
        <time>2021-11-03T09:27:34Z</time>
      </trkpt>
      <trkpt lat="43.57231" lon="5.33244">
        <ele>276.04766845703</ele>
        <time>2021-11-03T09:27:42Z</time>
      </trkpt>
      <trkpt lat="43.57224" lon="5.3324">
        <ele>279.59265136719</ele>
        <time>2021-11-03T09:27:48Z</time>
      </trkpt>
      <trkpt lat="43.57216" lon="5.33235">
        <ele>279.72180175781</ele>
        <time>2021-11-03T09:27:56Z</time>
      </trkpt>
      <trkpt lat="43.57208" lon="5.3323">
        <ele>276.68933105469</ele>
        <time>2021-11-03T09:28:04Z</time>
      </trkpt>
      <trkpt lat="43.57201" lon="5.33224">
        <ele>276.14965820312</ele>
        <time>2021-11-03T09:28:13Z</time>
      </trkpt>
      <trkpt lat="43.57195" lon="5.33215">
        <ele>275.22344970703</ele>
        <time>2021-11-03T09:28:22Z</time>
      </trkpt>
      <trkpt lat="43.57192" lon="5.33205">
        <ele>272.35717773438</ele>
        <time>2021-11-03T09:28:31Z</time>
      </trkpt>
      <trkpt lat="43.5719" lon="5.33193">
        <ele>267.49041748047</ele>
        <time>2021-11-03T09:28:39Z</time>
      </trkpt>
      <trkpt lat="43.57188" lon="5.33182">
        <ele>266.30670166016</ele>
        <time>2021-11-03T09:28:47Z</time>
      </trkpt>
      <trkpt lat="43.57185" lon="5.3317">
        <ele>263.76025390625</ele>
        <time>2021-11-03T09:28:56Z</time>
      </trkpt>
      <trkpt lat="43.57181" lon="5.3316">
        <ele>265.58135986328</ele>
        <time>2021-11-03T09:29:04Z</time>
      </trkpt>
      <trkpt lat="43.57177" lon="5.33149">
        <ele>261.71234130859</ele>
        <time>2021-11-03T09:29:14Z</time>
      </trkpt>
      <trkpt lat="43.57173" lon="5.3314">
        <ele>261.2822265625</ele>
        <time>2021-11-03T09:29:22Z</time>
      </trkpt>
      <trkpt lat="43.57168" lon="5.3313">
        <ele>259.80078125</ele>
        <time>2021-11-03T09:29:30Z</time>
      </trkpt>
      <trkpt lat="43.5716" lon="5.33133">
        <ele>259.87390136719</ele>
        <time>2021-11-03T09:29:45Z</time>
      </trkpt>
      <trkpt lat="43.5716" lon="5.33144">
        <ele>258.16436767578</ele>
        <time>2021-11-03T09:29:55Z</time>
      </trkpt>
      <trkpt lat="43.57159" lon="5.33156">
        <ele>256.99957275391</ele>
        <time>2021-11-03T09:30:04Z</time>
      </trkpt>
      <trkpt lat="43.57162" lon="5.33167">
        <ele>257.52758789062</ele>
        <time>2021-11-03T09:30:15Z</time>
      </trkpt>
      <trkpt lat="43.57162" lon="5.33178">
        <ele>256.16986083984</ele>
        <time>2021-11-03T09:30:24Z</time>
      </trkpt>
      <trkpt lat="43.57162" lon="5.33191">
        <ele>255.15991210938</ele>
        <time>2021-11-03T09:30:33Z</time>
      </trkpt>
      <trkpt lat="43.57161" lon="5.33203">
        <ele>254.09448242188</ele>
        <time>2021-11-03T09:30:42Z</time>
      </trkpt>
      <trkpt lat="43.57158" lon="5.33214">
        <ele>254.93615722656</ele>
        <time>2021-11-03T09:30:51Z</time>
      </trkpt>
      <trkpt lat="43.57157" lon="5.33226">
        <ele>253.19909667969</ele>
        <time>2021-11-03T09:30:59Z</time>
      </trkpt>
      <trkpt lat="43.57154" lon="5.33237">
        <ele>253.44671630859</ele>
        <time>2021-11-03T09:31:08Z</time>
      </trkpt>
      <trkpt lat="43.57149" lon="5.33247">
        <ele>252.8291015625</ele>
        <time>2021-11-03T09:31:17Z</time>
      </trkpt>
      <trkpt lat="43.57145" lon="5.33256">
        <ele>253.75579833984</ele>
        <time>2021-11-03T09:31:26Z</time>
      </trkpt>
      <trkpt lat="43.57143" lon="5.33268">
        <ele>253.06726074219</ele>
        <time>2021-11-03T09:31:34Z</time>
      </trkpt>
      <trkpt lat="43.57141" lon="5.33279">
        <ele>251.51037597656</ele>
        <time>2021-11-03T09:31:42Z</time>
      </trkpt>
      <trkpt lat="43.57136" lon="5.33289">
        <ele>251.76721191406</ele>
        <time>2021-11-03T09:31:50Z</time>
      </trkpt>
      <trkpt lat="43.57133" lon="5.33299">
        <ele>250.44439697266</ele>
        <time>2021-11-03T09:31:58Z</time>
      </trkpt>
      <trkpt lat="43.57131" lon="5.3331">
        <ele>249.62915039062</ele>
        <time>2021-11-03T09:32:05Z</time>
      </trkpt>
      <trkpt lat="43.57128" lon="5.33321">
        <ele>245.18017578125</ele>
        <time>2021-11-03T09:32:13Z</time>
      </trkpt>
      <trkpt lat="43.57124" lon="5.33331">
        <ele>245.56719970703</ele>
        <time>2021-11-03T09:32:21Z</time>
      </trkpt>
      <trkpt lat="43.57121" lon="5.33342">
        <ele>244.33532714844</ele>
        <time>2021-11-03T09:32:29Z</time>
      </trkpt>
      <trkpt lat="43.57114" lon="5.33348">
        <ele>244.12231445312</ele>
        <time>2021-11-03T09:33:09Z</time>
      </trkpt>
      <trkpt lat="43.57111" lon="5.33358">
        <ele>242.49694824219</ele>
        <time>2021-11-03T09:34:07Z</time>
      </trkpt>
      <trkpt lat="43.57105" lon="5.33364">
        <ele>242.42529296875</ele>
        <time>2021-11-03T09:34:13Z</time>
      </trkpt>
      <trkpt lat="43.57098" lon="5.3337">
        <ele>243.38745117188</ele>
        <time>2021-11-03T09:34:20Z</time>
      </trkpt>
      <trkpt lat="43.57092" lon="5.3338">
        <ele>244.0087890625</ele>
        <time>2021-11-03T09:34:28Z</time>
      </trkpt>
      <trkpt lat="43.57087" lon="5.3339">
        <ele>243.22521972656</ele>
        <time>2021-11-03T09:34:34Z</time>
      </trkpt>
      <trkpt lat="43.57081" lon="5.33399">
        <ele>245.22961425781</ele>
        <time>2021-11-03T09:34:41Z</time>
      </trkpt>
      <trkpt lat="43.57077" lon="5.33408">
        <ele>245.27661132812</ele>
        <time>2021-11-03T09:34:47Z</time>
      </trkpt>
      <trkpt lat="43.57072" lon="5.33417">
        <ele>243.61560058594</ele>
        <time>2021-11-03T09:34:53Z</time>
      </trkpt>
      <trkpt lat="43.57067" lon="5.33425">
        <ele>243.86694335938</ele>
        <time>2021-11-03T09:34:59Z</time>
      </trkpt>
      <trkpt lat="43.57061" lon="5.33435">
        <ele>243.17236328125</ele>
        <time>2021-11-03T09:35:06Z</time>
      </trkpt>
      <trkpt lat="43.57056" lon="5.33444">
        <ele>242.07263183594</ele>
        <time>2021-11-03T09:35:12Z</time>
      </trkpt>
      <trkpt lat="43.57051" lon="5.33453">
        <ele>243.08264160156</ele>
        <time>2021-11-03T09:35:19Z</time>
      </trkpt>
      <trkpt lat="43.57046" lon="5.33463">
        <ele>243.37951660156</ele>
        <time>2021-11-03T09:35:26Z</time>
      </trkpt>
      <trkpt lat="43.57041" lon="5.33471">
        <ele>244.62164306641</ele>
        <time>2021-11-03T09:35:32Z</time>
      </trkpt>
      <trkpt lat="43.57035" lon="5.3348">
        <ele>243.77032470703</ele>
        <time>2021-11-03T09:35:39Z</time>
      </trkpt>
      <trkpt lat="43.57029" lon="5.33488">
        <ele>241.42993164062</ele>
        <time>2021-11-03T09:35:47Z</time>
      </trkpt>
      <trkpt lat="43.57026" lon="5.33499">
        <ele>241.33349609375</ele>
        <time>2021-11-03T09:35:54Z</time>
      </trkpt>
      <trkpt lat="43.57021" lon="5.33508">
        <ele>243.23541259766</ele>
        <time>2021-11-03T09:36:03Z</time>
      </trkpt>
      <trkpt lat="43.57021" lon="5.3352">
        <ele>243.32580566406</ele>
        <time>2021-11-03T09:36:28Z</time>
      </trkpt>
      <trkpt lat="43.57013" lon="5.33523">
        <ele>246.1513671875</ele>
        <time>2021-11-03T09:37:19Z</time>
      </trkpt>
      <trkpt lat="43.57007" lon="5.33533">
        <ele>247.53784179688</ele>
        <time>2021-11-03T09:39:08Z</time>
      </trkpt>
      <trkpt lat="43.57003" lon="5.33544">
        <ele>244.50988769531</ele>
        <time>2021-11-03T09:39:27Z</time>
      </trkpt>
      <trkpt lat="43.56997" lon="5.33552">
        <ele>244.50494384766</ele>
        <time>2021-11-03T09:39:37Z</time>
      </trkpt>
      <trkpt lat="43.56991" lon="5.33561">
        <ele>245.73443603516</ele>
        <time>2021-11-03T09:39:47Z</time>
      </trkpt>
      <trkpt lat="43.56985" lon="5.3357">
        <ele>242.87329101562</ele>
        <time>2021-11-03T09:39:56Z</time>
      </trkpt>
      <trkpt lat="43.56981" lon="5.3358">
        <ele>241.15649414062</ele>
        <time>2021-11-03T09:40:03Z</time>
      </trkpt>
      <trkpt lat="43.56976" lon="5.3359">
        <ele>240.72406005859</ele>
        <time>2021-11-03T09:40:11Z</time>
      </trkpt>
      <trkpt lat="43.56971" lon="5.336">
        <ele>241.29663085938</ele>
        <time>2021-11-03T09:40:19Z</time>
      </trkpt>
      <trkpt lat="43.56965" lon="5.33609">
        <ele>241.77960205078</ele>
        <time>2021-11-03T09:40:27Z</time>
      </trkpt>
      <trkpt lat="43.5696" lon="5.33617">
        <ele>241.74230957031</ele>
        <time>2021-11-03T09:40:34Z</time>
      </trkpt>
      <trkpt lat="43.56957" lon="5.33628">
        <ele>240.48486328125</ele>
        <time>2021-11-03T09:40:41Z</time>
      </trkpt>
      <trkpt lat="43.56955" lon="5.3364">
        <ele>239.70129394531</ele>
        <time>2021-11-03T09:40:48Z</time>
      </trkpt>
      <trkpt lat="43.56951" lon="5.33651">
        <ele>238.26892089844</ele>
        <time>2021-11-03T09:40:56Z</time>
      </trkpt>
      <trkpt lat="43.5695" lon="5.33663">
        <ele>237.17810058594</ele>
        <time>2021-11-03T09:41:05Z</time>
      </trkpt>
      <trkpt lat="43.56949" lon="5.33675">
        <ele>235.98364257812</ele>
        <time>2021-11-03T09:41:13Z</time>
      </trkpt>
      <trkpt lat="43.56948" lon="5.33687">
        <ele>236.29986572266</ele>
        <time>2021-11-03T09:41:21Z</time>
      </trkpt>
      <trkpt lat="43.56945" lon="5.33697">
        <ele>238.04223632812</ele>
        <time>2021-11-03T09:41:28Z</time>
      </trkpt>
      <trkpt lat="43.56943" lon="5.33709">
        <ele>236.69128417969</ele>
        <time>2021-11-03T09:41:36Z</time>
      </trkpt>
      <trkpt lat="43.5694" lon="5.3372">
        <ele>236.53796386719</ele>
        <time>2021-11-03T09:41:44Z</time>
      </trkpt>
      <trkpt lat="43.56937" lon="5.33731">
        <ele>233.3955078125</ele>
        <time>2021-11-03T09:41:52Z</time>
      </trkpt>
      <trkpt lat="43.56933" lon="5.33742">
        <ele>235.39868164062</ele>
        <time>2021-11-03T09:42:00Z</time>
      </trkpt>
      <trkpt lat="43.56928" lon="5.33752">
        <ele>235.78479003906</ele>
        <time>2021-11-03T09:42:13Z</time>
      </trkpt>
      <trkpt lat="43.5692" lon="5.33753">
        <ele>230.99157714844</ele>
        <time>2021-11-03T09:44:27Z</time>
      </trkpt>
      <trkpt lat="43.56913" lon="5.33749">
        <ele>231.16833496094</ele>
        <time>2021-11-03T09:44:34Z</time>
      </trkpt>
      <trkpt lat="43.56906" lon="5.33745">
        <ele>231.2841796875</ele>
        <time>2021-11-03T09:44:41Z</time>
      </trkpt>
      <trkpt lat="43.56898" lon="5.33741">
        <ele>232.46826171875</ele>
        <time>2021-11-03T09:44:48Z</time>
      </trkpt>
      <trkpt lat="43.5689" lon="5.33737">
        <ele>233.84643554688</ele>
        <time>2021-11-03T09:44:55Z</time>
      </trkpt>
      <trkpt lat="43.56883" lon="5.33731">
        <ele>233.73815917969</ele>
        <time>2021-11-03T09:45:02Z</time>
      </trkpt>
      <trkpt lat="43.56876" lon="5.33724">
        <ele>234.12866210938</ele>
        <time>2021-11-03T09:45:09Z</time>
      </trkpt>
      <trkpt lat="43.56869" lon="5.33719">
        <ele>232.03430175781</ele>
        <time>2021-11-03T09:45:17Z</time>
      </trkpt>
      <trkpt lat="43.56862" lon="5.33713">
        <ele>230.9658203125</ele>
        <time>2021-11-03T09:45:25Z</time>
      </trkpt>
      <trkpt lat="43.56855" lon="5.33708">
        <ele>230.79345703125</ele>
        <time>2021-11-03T09:45:32Z</time>
      </trkpt>
      <trkpt lat="43.56847" lon="5.33703">
        <ele>231.04803466797</ele>
        <time>2021-11-03T09:45:40Z</time>
      </trkpt>
      <trkpt lat="43.56839" lon="5.33701">
        <ele>231.71484375</ele>
        <time>2021-11-03T09:45:47Z</time>
      </trkpt>
      <trkpt lat="43.56831" lon="5.33707">
        <ele>230.11486816406</ele>
        <time>2021-11-03T09:45:56Z</time>
      </trkpt>
      <trkpt lat="43.56828" lon="5.33719">
        <ele>229.46862792969</ele>
        <time>2021-11-03T09:46:04Z</time>
      </trkpt>
      <trkpt lat="43.56825" lon="5.33728">
        <ele>228.61639404297</ele>
        <time>2021-11-03T09:46:11Z</time>
      </trkpt>
      <trkpt lat="43.56823" lon="5.33739">
        <ele>227.71752929688</ele>
        <time>2021-11-03T09:46:18Z</time>
      </trkpt>
      <trkpt lat="43.56822" lon="5.3375">
        <ele>227.9619140625</ele>
        <time>2021-11-03T09:46:25Z</time>
      </trkpt>
      <trkpt lat="43.56821" lon="5.33761">
        <ele>225.93237304688</ele>
        <time>2021-11-03T09:46:32Z</time>
      </trkpt>
      <trkpt lat="43.56819" lon="5.33772">
        <ele>225.83203125</ele>
        <time>2021-11-03T09:46:40Z</time>
      </trkpt>
      <trkpt lat="43.56816" lon="5.33784">
        <ele>225.28063964844</ele>
        <time>2021-11-03T09:46:48Z</time>
      </trkpt>
      <trkpt lat="43.56813" lon="5.33795">
        <ele>225.48718261719</ele>
        <time>2021-11-03T09:46:56Z</time>
      </trkpt>
      <trkpt lat="43.56811" lon="5.33806">
        <ele>223.47308349609</ele>
        <time>2021-11-03T09:47:04Z</time>
      </trkpt>
      <trkpt lat="43.5681" lon="5.33818">
        <ele>223.9853515625</ele>
        <time>2021-11-03T09:47:12Z</time>
      </trkpt>
      <trkpt lat="43.56811" lon="5.33829">
        <ele>224.50598144531</ele>
        <time>2021-11-03T09:47:20Z</time>
      </trkpt>
      <trkpt lat="43.56812" lon="5.33841">
        <ele>222.47644042969</ele>
        <time>2021-11-03T09:47:29Z</time>
      </trkpt>
      <trkpt lat="43.56815" lon="5.33852">
        <ele>222.05346679688</ele>
        <time>2021-11-03T09:47:38Z</time>
      </trkpt>
      <trkpt lat="43.56817" lon="5.33864">
        <ele>219.10321044922</ele>
        <time>2021-11-03T09:47:47Z</time>
      </trkpt>
      <trkpt lat="43.56819" lon="5.33875">
        <ele>217.04125976562</ele>
        <time>2021-11-03T09:47:56Z</time>
      </trkpt>
      <trkpt lat="43.56821" lon="5.33887">
        <ele>215.27758789062</ele>
        <time>2021-11-03T09:48:04Z</time>
      </trkpt>
      <trkpt lat="43.5682" lon="5.33898">
        <ele>211.65258789062</ele>
        <time>2021-11-03T09:48:12Z</time>
      </trkpt>
      <trkpt lat="43.56812" lon="5.33903">
        <ele>212.39404296875</ele>
        <time>2021-11-03T09:48:22Z</time>
      </trkpt>
      <trkpt lat="43.56804" lon="5.33904">
        <ele>211.15014648438</ele>
        <time>2021-11-03T09:48:30Z</time>
      </trkpt>
      <trkpt lat="43.56795" lon="5.33905">
        <ele>210.18188476562</ele>
        <time>2021-11-03T09:48:39Z</time>
      </trkpt>
      <trkpt lat="43.56786" lon="5.33906">
        <ele>209.15338134766</ele>
        <time>2021-11-03T09:48:49Z</time>
      </trkpt>
      <trkpt lat="43.56777" lon="5.33906">
        <ele>209.40795898438</ele>
        <time>2021-11-03T09:48:59Z</time>
      </trkpt>
      <trkpt lat="43.56769" lon="5.33905">
        <ele>209.63049316406</ele>
        <time>2021-11-03T09:49:07Z</time>
      </trkpt>
      <trkpt lat="43.56761" lon="5.33904">
        <ele>212.19177246094</ele>
        <time>2021-11-03T09:49:14Z</time>
      </trkpt>
      <trkpt lat="43.56752" lon="5.33904">
        <ele>210.42156982422</ele>
        <time>2021-11-03T09:49:21Z</time>
      </trkpt>
      <trkpt lat="43.56744" lon="5.33906">
        <ele>211.09069824219</ele>
        <time>2021-11-03T09:49:28Z</time>
      </trkpt>
      <trkpt lat="43.56735" lon="5.33907">
        <ele>210.66723632812</ele>
        <time>2021-11-03T09:49:35Z</time>
      </trkpt>
      <trkpt lat="43.56727" lon="5.33908">
        <ele>209.76208496094</ele>
        <time>2021-11-03T09:49:42Z</time>
      </trkpt>
      <trkpt lat="43.56719" lon="5.33908">
        <ele>209.04309082031</ele>
        <time>2021-11-03T09:49:49Z</time>
      </trkpt>
      <trkpt lat="43.56711" lon="5.33905">
        <ele>211.59185791016</ele>
        <time>2021-11-03T09:49:57Z</time>
      </trkpt>
      <trkpt lat="43.56703" lon="5.33899">
        <ele>210.68676757812</ele>
        <time>2021-11-03T09:50:05Z</time>
      </trkpt>
      <trkpt lat="43.56695" lon="5.33893">
        <ele>211.67553710938</ele>
        <time>2021-11-03T09:50:13Z</time>
      </trkpt>
      <trkpt lat="43.56689" lon="5.33885">
        <ele>208.93927001953</ele>
        <time>2021-11-03T09:50:21Z</time>
      </trkpt>
      <trkpt lat="43.56684" lon="5.33875">
        <ele>206.38549804688</ele>
        <time>2021-11-03T09:50:29Z</time>
      </trkpt>
      <trkpt lat="43.56679" lon="5.33867">
        <ele>205.04467773438</ele>
        <time>2021-11-03T09:50:36Z</time>
      </trkpt>
      <trkpt lat="43.56673" lon="5.33859">
        <ele>205.16778564453</ele>
        <time>2021-11-03T09:50:43Z</time>
      </trkpt>
      <trkpt lat="43.56668" lon="5.33849">
        <ele>206.12432861328</ele>
        <time>2021-11-03T09:50:51Z</time>
      </trkpt>
      <trkpt lat="43.56665" lon="5.33838">
        <ele>207.11535644531</ele>
        <time>2021-11-03T09:50:59Z</time>
      </trkpt>
      <trkpt lat="43.56663" lon="5.33827">
        <ele>207.85882568359</ele>
        <time>2021-11-03T09:51:07Z</time>
      </trkpt>
      <trkpt lat="43.56663" lon="5.33816">
        <ele>203.92498779297</ele>
        <time>2021-11-03T09:51:15Z</time>
      </trkpt>
      <trkpt lat="43.56664" lon="5.33804">
        <ele>202.84039306641</ele>
        <time>2021-11-03T09:51:23Z</time>
      </trkpt>
      <trkpt lat="43.56667" lon="5.33793">
        <ele>202.55798339844</ele>
        <time>2021-11-03T09:51:31Z</time>
      </trkpt>
      <trkpt lat="43.56669" lon="5.33782">
        <ele>201.53137207031</ele>
        <time>2021-11-03T09:51:38Z</time>
      </trkpt>
      <trkpt lat="43.56671" lon="5.3377">
        <ele>199.39538574219</ele>
        <time>2021-11-03T09:51:46Z</time>
      </trkpt>
      <trkpt lat="43.56672" lon="5.33759">
        <ele>197.50036621094</ele>
        <time>2021-11-03T09:51:54Z</time>
      </trkpt>
      <trkpt lat="43.56672" lon="5.33748">
        <ele>196.83441162109</ele>
        <time>2021-11-03T09:52:02Z</time>
      </trkpt>
      <trkpt lat="43.56672" lon="5.33737">
        <ele>195.37750244141</ele>
        <time>2021-11-03T09:52:10Z</time>
      </trkpt>
      <trkpt lat="43.56673" lon="5.33725">
        <ele>194.2470703125</ele>
        <time>2021-11-03T09:52:18Z</time>
      </trkpt>
      <trkpt lat="43.5668" lon="5.33717">
        <ele>190.31188964844</ele>
        <time>2021-11-03T09:52:28Z</time>
      </trkpt>
      <trkpt lat="43.56676" lon="5.33707">
        <ele>192.28277587891</ele>
        <time>2021-11-03T09:53:14Z</time>
      </trkpt>
      <trkpt lat="43.56677" lon="5.33696">
        <ele>192.90093994141</ele>
        <time>2021-11-03T09:53:22Z</time>
      </trkpt>
      <trkpt lat="43.56679" lon="5.33684">
        <ele>191.68572998047</ele>
        <time>2021-11-03T09:53:30Z</time>
      </trkpt>
      <trkpt lat="43.56679" lon="5.33672">
        <ele>190.13201904297</ele>
        <time>2021-11-03T09:53:39Z</time>
      </trkpt>
      <trkpt lat="43.56678" lon="5.33661">
        <ele>189.31805419922</ele>
        <time>2021-11-03T09:53:47Z</time>
      </trkpt>
      <trkpt lat="43.56678" lon="5.3365">
        <ele>188.12634277344</ele>
        <time>2021-11-03T09:53:55Z</time>
      </trkpt>
      <trkpt lat="43.56678" lon="5.33638">
        <ele>187.68499755859</ele>
        <time>2021-11-03T09:54:03Z</time>
      </trkpt>
      <trkpt lat="43.56679" lon="5.33626">
        <ele>188.20806884766</ele>
        <time>2021-11-03T09:54:11Z</time>
      </trkpt>
      <trkpt lat="43.56679" lon="5.33614">
        <ele>188.99450683594</ele>
        <time>2021-11-03T09:54:19Z</time>
      </trkpt>
      <trkpt lat="43.56679" lon="5.33602">
        <ele>188.02709960938</ele>
        <time>2021-11-03T09:54:27Z</time>
      </trkpt>
      <trkpt lat="43.56679" lon="5.33591">
        <ele>188.56188964844</ele>
        <time>2021-11-03T09:54:34Z</time>
      </trkpt>
      <trkpt lat="43.56681" lon="5.33579">
        <ele>188.44006347656</ele>
        <time>2021-11-03T09:54:42Z</time>
      </trkpt>
      <trkpt lat="43.56683" lon="5.33568">
        <ele>187.66528320312</ele>
        <time>2021-11-03T09:55:05Z</time>
      </trkpt>
      <trkpt lat="43.56681" lon="5.33557">
        <ele>187.55297851562</ele>
        <time>2021-11-03T09:55:13Z</time>
      </trkpt>
      <trkpt lat="43.5668" lon="5.33545">
        <ele>184.865234375</ele>
        <time>2021-11-03T09:55:20Z</time>
      </trkpt>
      <trkpt lat="43.56679" lon="5.33534">
        <ele>185.05883789062</ele>
        <time>2021-11-03T09:55:27Z</time>
      </trkpt>
      <trkpt lat="43.56679" lon="5.33522">
        <ele>184.19573974609</ele>
        <time>2021-11-03T09:55:34Z</time>
      </trkpt>
      <trkpt lat="43.5668" lon="5.3351">
        <ele>183.12072753906</ele>
        <time>2021-11-03T09:55:42Z</time>
      </trkpt>
      <trkpt lat="43.56681" lon="5.33499">
        <ele>184.62969970703</ele>
        <time>2021-11-03T09:55:49Z</time>
      </trkpt>
      <trkpt lat="43.56681" lon="5.33488">
        <ele>183.28405761719</ele>
        <time>2021-11-03T09:55:57Z</time>
      </trkpt>
      <trkpt lat="43.56681" lon="5.33476">
        <ele>184.36206054688</ele>
        <time>2021-11-03T09:56:05Z</time>
      </trkpt>
      <trkpt lat="43.5668" lon="5.33464">
        <ele>185.88751220703</ele>
        <time>2021-11-03T09:56:14Z</time>
      </trkpt>
      <trkpt lat="43.56682" lon="5.33453">
        <ele>182.76922607422</ele>
        <time>2021-11-03T09:56:28Z</time>
      </trkpt>
      <trkpt lat="43.56682" lon="5.33442">
        <ele>186.25701904297</ele>
        <time>2021-11-03T09:56:37Z</time>
      </trkpt>
      <trkpt lat="43.56683" lon="5.3343">
        <ele>186.49530029297</ele>
        <time>2021-11-03T09:56:45Z</time>
      </trkpt>
      <trkpt lat="43.56684" lon="5.33419">
        <ele>185.48913574219</ele>
        <time>2021-11-03T09:56:53Z</time>
      </trkpt>
      <trkpt lat="43.56684" lon="5.33408">
        <ele>185.07867431641</ele>
        <time>2021-11-03T09:57:00Z</time>
      </trkpt>
      <trkpt lat="43.56685" lon="5.33397">
        <ele>185.29699707031</ele>
        <time>2021-11-03T09:57:07Z</time>
      </trkpt>
      <trkpt lat="43.56685" lon="5.33386">
        <ele>186.07366943359</ele>
        <time>2021-11-03T09:57:14Z</time>
      </trkpt>
      <trkpt lat="43.56686" lon="5.33374">
        <ele>186.26586914062</ele>
        <time>2021-11-03T09:57:22Z</time>
      </trkpt>
      <trkpt lat="43.56686" lon="5.33362">
        <ele>187.46899414062</ele>
        <time>2021-11-03T09:57:29Z</time>
      </trkpt>
      <trkpt lat="43.56688" lon="5.33351">
        <ele>187.4150390625</ele>
        <time>2021-11-03T09:57:36Z</time>
      </trkpt>
      <trkpt lat="43.56689" lon="5.33339">
        <ele>186.43353271484</ele>
        <time>2021-11-03T09:57:47Z</time>
      </trkpt>
      <trkpt lat="43.5669" lon="5.33328">
        <ele>190.76037597656</ele>
        <time>2021-11-03T09:58:12Z</time>
      </trkpt>
      <trkpt lat="43.56692" lon="5.33316">
        <ele>188.77874755859</ele>
        <time>2021-11-03T09:58:19Z</time>
      </trkpt>
      <trkpt lat="43.56693" lon="5.33305">
        <ele>187.27746582031</ele>
        <time>2021-11-03T09:58:26Z</time>
      </trkpt>
      <trkpt lat="43.56694" lon="5.33293">
        <ele>187.99139404297</ele>
        <time>2021-11-03T09:58:34Z</time>
      </trkpt>
      <trkpt lat="43.56695" lon="5.33282">
        <ele>188.38336181641</ele>
        <time>2021-11-03T09:58:41Z</time>
      </trkpt>
      <trkpt lat="43.56696" lon="5.3327">
        <ele>188.70422363281</ele>
        <time>2021-11-03T09:58:48Z</time>
      </trkpt>
      <trkpt lat="43.56697" lon="5.33258">
        <ele>188.16821289062</ele>
        <time>2021-11-03T09:58:56Z</time>
      </trkpt>
      <trkpt lat="43.56697" lon="5.33247">
        <ele>187.78277587891</ele>
        <time>2021-11-03T09:59:04Z</time>
      </trkpt>
      <trkpt lat="43.56698" lon="5.33235">
        <ele>187.46081542969</ele>
        <time>2021-11-03T09:59:11Z</time>
      </trkpt>
      <trkpt lat="43.56699" lon="5.33224">
        <ele>187.88226318359</ele>
        <time>2021-11-03T09:59:18Z</time>
      </trkpt>
      <trkpt lat="43.56701" lon="5.33214">
        <ele>188.16290283203</ele>
        <time>2021-11-03T09:59:25Z</time>
      </trkpt>
      <trkpt lat="43.56702" lon="5.33202">
        <ele>189.60638427734</ele>
        <time>2021-11-03T09:59:32Z</time>
      </trkpt>
      <trkpt lat="43.56703" lon="5.33191">
        <ele>189.73211669922</ele>
        <time>2021-11-03T09:59:39Z</time>
      </trkpt>
      <trkpt lat="43.56704" lon="5.33179">
        <ele>189.30090332031</ele>
        <time>2021-11-03T09:59:46Z</time>
      </trkpt>
      <trkpt lat="43.56706" lon="5.33167">
        <ele>190.05780029297</ele>
        <time>2021-11-03T09:59:54Z</time>
      </trkpt>
      <trkpt lat="43.56709" lon="5.33156">
        <ele>190.47058105469</ele>
        <time>2021-11-03T10:00:02Z</time>
      </trkpt>
      <trkpt lat="43.56712" lon="5.33145">
        <ele>191.20202636719</ele>
        <time>2021-11-03T10:00:10Z</time>
      </trkpt>
      <trkpt lat="43.56715" lon="5.33134">
        <ele>193.8740234375</ele>
        <time>2021-11-03T10:00:17Z</time>
      </trkpt>
      <trkpt lat="43.56717" lon="5.33122">
        <ele>193.95489501953</ele>
        <time>2021-11-03T10:00:24Z</time>
      </trkpt>
      <trkpt lat="43.56719" lon="5.33111">
        <ele>193.67913818359</ele>
        <time>2021-11-03T10:00:32Z</time>
      </trkpt>
      <trkpt lat="43.5672" lon="5.331">
        <ele>194.51409912109</ele>
        <time>2021-11-03T10:00:40Z</time>
      </trkpt>
      <trkpt lat="43.56719" lon="5.33088">
        <ele>194.96887207031</ele>
        <time>2021-11-03T10:00:49Z</time>
      </trkpt>
      <trkpt lat="43.56719" lon="5.33077">
        <ele>196.14880371094</ele>
        <time>2021-11-03T10:00:56Z</time>
      </trkpt>
      <trkpt lat="43.56718" lon="5.33065">
        <ele>197.51165771484</ele>
        <time>2021-11-03T10:01:05Z</time>
      </trkpt>
      <trkpt lat="43.56718" lon="5.33054">
        <ele>196.69561767578</ele>
        <time>2021-11-03T10:01:13Z</time>
      </trkpt>
      <trkpt lat="43.56717" lon="5.33042">
        <ele>196.74969482422</ele>
        <time>2021-11-03T10:01:21Z</time>
      </trkpt>
      <trkpt lat="43.56717" lon="5.3303">
        <ele>195.89434814453</ele>
        <time>2021-11-03T10:01:29Z</time>
      </trkpt>
      <trkpt lat="43.56712" lon="5.3302">
        <ele>195.01617431641</ele>
        <time>2021-11-03T10:01:39Z</time>
      </trkpt>
      <trkpt lat="43.56705" lon="5.33025">
        <ele>195.45831298828</ele>
        <time>2021-11-03T10:05:48Z</time>
      </trkpt>
      <trkpt lat="43.56696" lon="5.33029">
        <ele>195.61840820312</ele>
        <time>2021-11-03T10:06:05Z</time>
      </trkpt>
      <trkpt lat="43.56689" lon="5.33034">
        <ele>195.97595214844</ele>
        <time>2021-11-03T10:06:17Z</time>
      </trkpt>
      <trkpt lat="43.56682" lon="5.33041">
        <ele>196.70043945312</ele>
        <time>2021-11-03T10:06:27Z</time>
      </trkpt>
      <trkpt lat="43.56675" lon="5.33048">
        <ele>195.83154296875</ele>
        <time>2021-11-03T10:06:37Z</time>
      </trkpt>
      <trkpt lat="43.56668" lon="5.33054">
        <ele>195.333984375</ele>
        <time>2021-11-03T10:06:46Z</time>
      </trkpt>
      <trkpt lat="43.5666" lon="5.33059">
        <ele>195.22875976562</ele>
        <time>2021-11-03T10:06:55Z</time>
      </trkpt>
      <trkpt lat="43.56653" lon="5.33067">
        <ele>194.77972412109</ele>
        <time>2021-11-03T10:07:05Z</time>
      </trkpt>
      <trkpt lat="43.56645" lon="5.33071">
        <ele>195.35400390625</ele>
        <time>2021-11-03T10:07:14Z</time>
      </trkpt>
      <trkpt lat="43.56638" lon="5.33078">
        <ele>194.81604003906</ele>
        <time>2021-11-03T10:07:24Z</time>
      </trkpt>
      <trkpt lat="43.56631" lon="5.33082">
        <ele>193.67626953125</ele>
        <time>2021-11-03T10:07:32Z</time>
      </trkpt>
      <trkpt lat="43.56624" lon="5.33087">
        <ele>193.86358642578</ele>
        <time>2021-11-03T10:07:39Z</time>
      </trkpt>
      <trkpt lat="43.56616" lon="5.33093">
        <ele>194.17822265625</ele>
        <time>2021-11-03T10:07:54Z</time>
      </trkpt>
      <trkpt lat="43.5661" lon="5.33101">
        <ele>194.17510986328</ele>
        <time>2021-11-03T10:08:02Z</time>
      </trkpt>
      <trkpt lat="43.56603" lon="5.33095">
        <ele>192.50457763672</ele>
        <time>2021-11-03T10:08:18Z</time>
      </trkpt>
      <trkpt lat="43.56595" lon="5.33098">
        <ele>193.23083496094</ele>
        <time>2021-11-03T10:08:27Z</time>
      </trkpt>
      <trkpt lat="43.56586" lon="5.331">
        <ele>193.64233398438</ele>
        <time>2021-11-03T10:08:38Z</time>
      </trkpt>
      <trkpt lat="43.56578" lon="5.331">
        <ele>193.28021240234</ele>
        <time>2021-11-03T10:08:47Z</time>
      </trkpt>
      <trkpt lat="43.5657" lon="5.33103">
        <ele>192.01232910156</ele>
        <time>2021-11-03T10:08:54Z</time>
      </trkpt>
      <trkpt lat="43.56562" lon="5.33103">
        <ele>191.58160400391</ele>
        <time>2021-11-03T10:09:02Z</time>
      </trkpt>
      <trkpt lat="43.56553" lon="5.33102">
        <ele>191.43115234375</ele>
        <time>2021-11-03T10:09:09Z</time>
      </trkpt>
      <trkpt lat="43.56545" lon="5.33103">
        <ele>190.61596679688</ele>
        <time>2021-11-03T10:09:16Z</time>
      </trkpt>
      <trkpt lat="43.56537" lon="5.33105">
        <ele>190.14819335938</ele>
        <time>2021-11-03T10:09:24Z</time>
      </trkpt>
      <trkpt lat="43.56528" lon="5.33106">
        <ele>189.26507568359</ele>
        <time>2021-11-03T10:09:35Z</time>
      </trkpt>
      <trkpt lat="43.56519" lon="5.33107">
        <ele>185.65832519531</ele>
        <time>2021-11-03T10:09:48Z</time>
      </trkpt>
      <trkpt lat="43.56511" lon="5.33104">
        <ele>185.92486572266</ele>
        <time>2021-11-03T10:09:58Z</time>
      </trkpt>
      <trkpt lat="43.56503" lon="5.33099">
        <ele>186.60968017578</ele>
        <time>2021-11-03T10:10:06Z</time>
      </trkpt>
      <trkpt lat="43.56495" lon="5.33096">
        <ele>186.13159179688</ele>
        <time>2021-11-03T10:10:14Z</time>
      </trkpt>
      <trkpt lat="43.56486" lon="5.33094">
        <ele>183.69519042969</ele>
        <time>2021-11-03T10:10:23Z</time>
      </trkpt>
      <trkpt lat="43.56478" lon="5.3309">
        <ele>183.85974121094</ele>
        <time>2021-11-03T10:10:31Z</time>
      </trkpt>
      <trkpt lat="43.56469" lon="5.33087">
        <ele>183.83178710938</ele>
        <time>2021-11-03T10:10:39Z</time>
      </trkpt>
      <trkpt lat="43.56461" lon="5.33084">
        <ele>183.27392578125</ele>
        <time>2021-11-03T10:10:48Z</time>
      </trkpt>
      <trkpt lat="43.56452" lon="5.33081">
        <ele>182.99798583984</ele>
        <time>2021-11-03T10:10:56Z</time>
      </trkpt>
      <trkpt lat="43.56444" lon="5.33079">
        <ele>182.68963623047</ele>
        <time>2021-11-03T10:11:03Z</time>
      </trkpt>
      <trkpt lat="43.56436" lon="5.33075">
        <ele>182.32293701172</ele>
        <time>2021-11-03T10:11:11Z</time>
      </trkpt>
      <trkpt lat="43.56428" lon="5.33073">
        <ele>182.27282714844</ele>
        <time>2021-11-03T10:11:18Z</time>
      </trkpt>
      <trkpt lat="43.5642" lon="5.3307">
        <ele>181.89569091797</ele>
        <time>2021-11-03T10:11:25Z</time>
      </trkpt>
      <trkpt lat="43.56413" lon="5.33068">
        <ele>181.30151367188</ele>
        <time>2021-11-03T10:11:32Z</time>
      </trkpt>
      <trkpt lat="43.56406" lon="5.33062">
        <ele>179.84368896484</ele>
        <time>2021-11-03T10:11:43Z</time>
      </trkpt>
      <trkpt lat="43.56398" lon="5.33061">
        <ele>180.69757080078</ele>
        <time>2021-11-03T10:11:51Z</time>
      </trkpt>
      <trkpt lat="43.56389" lon="5.33059">
        <ele>180.92724609375</ele>
        <time>2021-11-03T10:11:59Z</time>
      </trkpt>
      <trkpt lat="43.5638" lon="5.33056">
        <ele>180.39306640625</ele>
        <time>2021-11-03T10:12:07Z</time>
      </trkpt>
      <trkpt lat="43.56372" lon="5.33053">
        <ele>180.18109130859</ele>
        <time>2021-11-03T10:12:15Z</time>
      </trkpt>
      <trkpt lat="43.56363" lon="5.33051">
        <ele>180.8525390625</ele>
        <time>2021-11-03T10:12:22Z</time>
      </trkpt>
      <trkpt lat="43.56356" lon="5.33046">
        <ele>181.60650634766</ele>
        <time>2021-11-03T10:12:29Z</time>
      </trkpt>
      <trkpt lat="43.56353" lon="5.33035">
        <ele>181.09802246094</ele>
        <time>2021-11-03T10:12:37Z</time>
      </trkpt>
      <trkpt lat="43.5635" lon="5.33024">
        <ele>182.04040527344</ele>
        <time>2021-11-03T10:12:44Z</time>
      </trkpt>
      <trkpt lat="43.56343" lon="5.33017">
        <ele>182.95727539062</ele>
        <time>2021-11-03T10:12:51Z</time>
      </trkpt>
      <trkpt lat="43.56336" lon="5.3301">
        <ele>183.60424804688</ele>
        <time>2021-11-03T10:12:58Z</time>
      </trkpt>
      <trkpt lat="43.56329" lon="5.33005">
        <ele>184.62927246094</ele>
        <time>2021-11-03T10:13:06Z</time>
      </trkpt>
      <trkpt lat="43.56321" lon="5.32999">
        <ele>185.310546875</ele>
        <time>2021-11-03T10:13:14Z</time>
      </trkpt>
      <trkpt lat="43.56314" lon="5.32993">
        <ele>185.37890625</ele>
        <time>2021-11-03T10:13:21Z</time>
      </trkpt>
      <trkpt lat="43.56305" lon="5.32991">
        <ele>184.96124267578</ele>
        <time>2021-11-03T10:13:29Z</time>
      </trkpt>
      <trkpt lat="43.56297" lon="5.32993">
        <ele>185.60479736328</ele>
        <time>2021-11-03T10:13:36Z</time>
      </trkpt>
      <trkpt lat="43.5629" lon="5.32998">
        <ele>186.35174560547</ele>
        <time>2021-11-03T10:13:43Z</time>
      </trkpt>
      <trkpt lat="43.56287" lon="5.33009">
        <ele>186.53723144531</ele>
        <time>2021-11-03T10:13:50Z</time>
      </trkpt>
      <trkpt lat="43.56279" lon="5.33012">
        <ele>186.43786621094</ele>
        <time>2021-11-03T10:13:58Z</time>
      </trkpt>
      <trkpt lat="43.56271" lon="5.33006">
        <ele>186.87768554688</ele>
        <time>2021-11-03T10:14:05Z</time>
      </trkpt>
      <trkpt lat="43.56264" lon="5.33">
        <ele>187.70178222656</ele>
        <time>2021-11-03T10:14:12Z</time>
      </trkpt>
      <trkpt lat="43.56257" lon="5.32994">
        <ele>188.1884765625</ele>
        <time>2021-11-03T10:14:19Z</time>
      </trkpt>
      <trkpt lat="43.5625" lon="5.32989">
        <ele>187.85046386719</ele>
        <time>2021-11-03T10:14:25Z</time>
      </trkpt>
      <trkpt lat="43.56243" lon="5.32982">
        <ele>188.36645507812</ele>
        <time>2021-11-03T10:14:32Z</time>
      </trkpt>
      <trkpt lat="43.56236" lon="5.32976">
        <ele>188.92218017578</ele>
        <time>2021-11-03T10:14:39Z</time>
      </trkpt>
      <trkpt lat="43.56229" lon="5.3297">
        <ele>188.94403076172</ele>
        <time>2021-11-03T10:14:46Z</time>
      </trkpt>
      <trkpt lat="43.56222" lon="5.32964">
        <ele>187.99035644531</ele>
        <time>2021-11-03T10:14:57Z</time>
      </trkpt>
      <trkpt lat="43.56215" lon="5.32957">
        <ele>188.51220703125</ele>
        <time>2021-11-03T10:15:06Z</time>
      </trkpt>
      <trkpt lat="43.56208" lon="5.32951">
        <ele>188.32312011719</ele>
        <time>2021-11-03T10:15:15Z</time>
      </trkpt>
      <trkpt lat="43.56202" lon="5.32942">
        <ele>191.40643310547</ele>
        <time>2021-11-03T10:15:23Z</time>
      </trkpt>
      <trkpt lat="43.56195" lon="5.32935">
        <ele>191.49353027344</ele>
        <time>2021-11-03T10:15:31Z</time>
      </trkpt>
      <trkpt lat="43.56188" lon="5.32927">
        <ele>191.58215332031</ele>
        <time>2021-11-03T10:15:39Z</time>
      </trkpt>
      <trkpt lat="43.56181" lon="5.32922">
        <ele>190.96508789062</ele>
        <time>2021-11-03T10:15:46Z</time>
      </trkpt>
      <trkpt lat="43.56175" lon="5.32916">
        <ele>192.18450927734</ele>
        <time>2021-11-03T10:15:53Z</time>
      </trkpt>
      <trkpt lat="43.56168" lon="5.32908">
        <ele>193.11206054688</ele>
        <time>2021-11-03T10:16:01Z</time>
      </trkpt>
      <trkpt lat="43.56161" lon="5.329">
        <ele>193.35540771484</ele>
        <time>2021-11-03T10:16:13Z</time>
      </trkpt>
      <trkpt lat="43.56165" lon="5.32889">
        <ele>192.99877929688</ele>
        <time>2021-11-03T10:16:25Z</time>
      </trkpt>
      <trkpt lat="43.56166" lon="5.32878">
        <ele>193.65014648438</ele>
        <time>2021-11-03T10:16:35Z</time>
      </trkpt>
      <trkpt lat="43.56169" lon="5.32867">
        <ele>195.17016601562</ele>
        <time>2021-11-03T10:16:45Z</time>
      </trkpt>
      <trkpt lat="43.56171" lon="5.32857">
        <ele>196.26147460938</ele>
        <time>2021-11-03T10:16:54Z</time>
      </trkpt>
      <trkpt lat="43.56178" lon="5.32848">
        <ele>196.88275146484</ele>
        <time>2021-11-03T10:17:42Z</time>
      </trkpt>
      <trkpt lat="43.56183" lon="5.32839">
        <ele>197.76489257812</ele>
        <time>2021-11-03T10:17:50Z</time>
      </trkpt>
      <trkpt lat="43.56187" lon="5.32828">
        <ele>198.89019775391</ele>
        <time>2021-11-03T10:17:59Z</time>
      </trkpt>
      <trkpt lat="43.56192" lon="5.32819">
        <ele>198.34936523438</ele>
        <time>2021-11-03T10:18:08Z</time>
      </trkpt>
      <trkpt lat="43.56195" lon="5.32809">
        <ele>199.35845947266</ele>
        <time>2021-11-03T10:18:16Z</time>
      </trkpt>
      <trkpt lat="43.56198" lon="5.32797">
        <ele>201.57489013672</ele>
        <time>2021-11-03T10:18:26Z</time>
      </trkpt>
      <trkpt lat="43.56198" lon="5.32786">
        <ele>202.69348144531</ele>
        <time>2021-11-03T10:18:59Z</time>
      </trkpt>
      <trkpt lat="43.56204" lon="5.32777">
        <ele>203.49377441406</ele>
        <time>2021-11-03T10:19:07Z</time>
      </trkpt>
      <trkpt lat="43.56209" lon="5.32767">
        <ele>203.01507568359</ele>
        <time>2021-11-03T10:19:14Z</time>
      </trkpt>
      <trkpt lat="43.56211" lon="5.32755">
        <ele>201.30877685547</ele>
        <time>2021-11-03T10:19:23Z</time>
      </trkpt>
      <trkpt lat="43.5621" lon="5.32743">
        <ele>199.20690917969</ele>
        <time>2021-11-03T10:19:32Z</time>
      </trkpt>
      <trkpt lat="43.5621" lon="5.32732">
        <ele>197.37097167969</ele>
        <time>2021-11-03T10:19:40Z</time>
      </trkpt>
      <trkpt lat="43.56212" lon="5.32721">
        <ele>196.88464355469</ele>
        <time>2021-11-03T10:19:48Z</time>
      </trkpt>
      <trkpt lat="43.56214" lon="5.3271">
        <ele>196.96789550781</ele>
        <time>2021-11-03T10:19:56Z</time>
      </trkpt>
      <trkpt lat="43.5622" lon="5.32701">
        <ele>199.31201171875</ele>
        <time>2021-11-03T10:20:05Z</time>
      </trkpt>
      <trkpt lat="43.56228" lon="5.32705">
        <ele>202.58905029297</ele>
        <time>2021-11-03T10:20:15Z</time>
      </trkpt>
      <trkpt lat="43.56233" lon="5.32714">
        <ele>204.26647949219</ele>
        <time>2021-11-03T10:20:25Z</time>
      </trkpt>
      <trkpt lat="43.5624" lon="5.32723">
        <ele>205.52099609375</ele>
        <time>2021-11-03T10:20:35Z</time>
      </trkpt>
      <trkpt lat="43.56248" lon="5.32726">
        <ele>207.07116699219</ele>
        <time>2021-11-03T10:20:43Z</time>
      </trkpt>
      <trkpt lat="43.56256" lon="5.32726">
        <ele>205.9716796875</ele>
        <time>2021-11-03T10:20:51Z</time>
      </trkpt>
      <trkpt lat="43.56264" lon="5.32722">
        <ele>205.66326904297</ele>
        <time>2021-11-03T10:21:00Z</time>
      </trkpt>
      <trkpt lat="43.56271" lon="5.32716">
        <ele>205.90673828125</ele>
        <time>2021-11-03T10:21:08Z</time>
      </trkpt>
      <trkpt lat="43.56275" lon="5.32707">
        <ele>207.29650878906</ele>
        <time>2021-11-03T10:21:16Z</time>
      </trkpt>
      <trkpt lat="43.5628" lon="5.32697">
        <ele>207.08569335938</ele>
        <time>2021-11-03T10:21:25Z</time>
      </trkpt>
      <trkpt lat="43.56286" lon="5.32688">
        <ele>207.90954589844</ele>
        <time>2021-11-03T10:21:33Z</time>
      </trkpt>
      <trkpt lat="43.56293" lon="5.32681">
        <ele>208.02252197266</ele>
        <time>2021-11-03T10:21:40Z</time>
      </trkpt>
      <trkpt lat="43.56298" lon="5.32673">
        <ele>208.740234375</ele>
        <time>2021-11-03T10:21:47Z</time>
      </trkpt>
      <trkpt lat="43.56305" lon="5.32665">
        <ele>207.63323974609</ele>
        <time>2021-11-03T10:21:55Z</time>
      </trkpt>
      <trkpt lat="43.56312" lon="5.32658">
        <ele>208.92224121094</ele>
        <time>2021-11-03T10:22:03Z</time>
      </trkpt>
      <trkpt lat="43.56318" lon="5.32649">
        <ele>207.21252441406</ele>
        <time>2021-11-03T10:22:12Z</time>
      </trkpt>
      <trkpt lat="43.56323" lon="5.32639">
        <ele>206.53381347656</ele>
        <time>2021-11-03T10:22:23Z</time>
      </trkpt>
      <trkpt lat="43.56329" lon="5.32631">
        <ele>208.72631835938</ele>
        <time>2021-11-03T10:22:31Z</time>
      </trkpt>
      <trkpt lat="43.56334" lon="5.32622">
        <ele>208.30236816406</ele>
        <time>2021-11-03T10:22:40Z</time>
      </trkpt>
      <trkpt lat="43.56342" lon="5.32617">
        <ele>207.99987792969</ele>
        <time>2021-11-03T10:22:47Z</time>
      </trkpt>
      <trkpt lat="43.56346" lon="5.32607">
        <ele>208.27581787109</ele>
        <time>2021-11-03T10:22:54Z</time>
      </trkpt>
      <trkpt lat="43.56351" lon="5.32598">
        <ele>207.83850097656</ele>
        <time>2021-11-03T10:23:02Z</time>
      </trkpt>
      <trkpt lat="43.56356" lon="5.32589">
        <ele>207.71752929688</ele>
        <time>2021-11-03T10:23:11Z</time>
      </trkpt>
      <trkpt lat="43.56363" lon="5.32582">
        <ele>208.29553222656</ele>
        <time>2021-11-03T10:23:20Z</time>
      </trkpt>
      <trkpt lat="43.5637" lon="5.32573">
        <ele>209.16827392578</ele>
        <time>2021-11-03T10:23:28Z</time>
      </trkpt>
      <trkpt lat="43.56376" lon="5.32566">
        <ele>211.07354736328</ele>
        <time>2021-11-03T10:23:39Z</time>
      </trkpt>
      <trkpt lat="43.56383" lon="5.32561">
        <ele>212.69903564453</ele>
        <time>2021-11-03T10:23:55Z</time>
      </trkpt>
      <trkpt lat="43.56391" lon="5.32555">
        <ele>213.34313964844</ele>
        <time>2021-11-03T10:24:16Z</time>
      </trkpt>
      <trkpt lat="43.56395" lon="5.32546">
        <ele>211.95227050781</ele>
        <time>2021-11-03T10:24:24Z</time>
      </trkpt>
      <trkpt lat="43.56401" lon="5.32537">
        <ele>213.19989013672</ele>
        <time>2021-11-03T10:24:32Z</time>
      </trkpt>
      <trkpt lat="43.56407" lon="5.32529">
        <ele>213.11468505859</ele>
        <time>2021-11-03T10:24:40Z</time>
      </trkpt>
      <trkpt lat="43.56413" lon="5.32521">
        <ele>212.58483886719</ele>
        <time>2021-11-03T10:24:48Z</time>
      </trkpt>
      <trkpt lat="43.56419" lon="5.32512">
        <ele>211.45861816406</ele>
        <time>2021-11-03T10:24:55Z</time>
      </trkpt>
      <trkpt lat="43.56424" lon="5.32503">
        <ele>210.48937988281</ele>
        <time>2021-11-03T10:25:02Z</time>
      </trkpt>
      <trkpt lat="43.56428" lon="5.32494">
        <ele>210.5400390625</ele>
        <time>2021-11-03T10:25:09Z</time>
      </trkpt>
      <trkpt lat="43.56432" lon="5.32484">
        <ele>209.96447753906</ele>
        <time>2021-11-03T10:25:17Z</time>
      </trkpt>
      <trkpt lat="43.56437" lon="5.32474">
        <ele>211.56109619141</ele>
        <time>2021-11-03T10:25:25Z</time>
      </trkpt>
      <trkpt lat="43.56442" lon="5.32465">
        <ele>211.06549072266</ele>
        <time>2021-11-03T10:25:33Z</time>
      </trkpt>
      <trkpt lat="43.5645" lon="5.32459">
        <ele>210.86383056641</ele>
        <time>2021-11-03T10:25:42Z</time>
      </trkpt>
      <trkpt lat="43.56455" lon="5.3245">
        <ele>211.72180175781</ele>
        <time>2021-11-03T10:25:51Z</time>
      </trkpt>
      <trkpt lat="43.56461" lon="5.32442">
        <ele>210.20959472656</ele>
        <time>2021-11-03T10:25:59Z</time>
      </trkpt>
      <trkpt lat="43.56467" lon="5.32433">
        <ele>212.87316894531</ele>
        <time>2021-11-03T10:26:07Z</time>
      </trkpt>
      <trkpt lat="43.56473" lon="5.32424">
        <ele>215.8310546875</ele>
        <time>2021-11-03T10:26:17Z</time>
      </trkpt>
      <trkpt lat="43.56479" lon="5.32416">
        <ele>218.20544433594</ele>
        <time>2021-11-03T10:26:26Z</time>
      </trkpt>
      <trkpt lat="43.56483" lon="5.32406">
        <ele>217.99377441406</ele>
        <time>2021-11-03T10:26:34Z</time>
      </trkpt>
      <trkpt lat="43.56489" lon="5.32396">
        <ele>218.07263183594</ele>
        <time>2021-11-03T10:26:42Z</time>
      </trkpt>
      <trkpt lat="43.56495" lon="5.32389">
        <ele>220.3857421875</ele>
        <time>2021-11-03T10:26:49Z</time>
      </trkpt>
      <trkpt lat="43.56501" lon="5.32382">
        <ele>220.70635986328</ele>
        <time>2021-11-03T10:26:57Z</time>
      </trkpt>
      <trkpt lat="43.56506" lon="5.32372">
        <ele>221.38842773438</ele>
        <time>2021-11-03T10:27:05Z</time>
      </trkpt>
      <trkpt lat="43.56512" lon="5.32364">
        <ele>222.82434082031</ele>
        <time>2021-11-03T10:27:13Z</time>
      </trkpt>
      <trkpt lat="43.56517" lon="5.32354">
        <ele>218.59271240234</ele>
        <time>2021-11-03T10:27:21Z</time>
      </trkpt>
      <trkpt lat="43.56521" lon="5.32344">
        <ele>217.97131347656</ele>
        <time>2021-11-03T10:27:29Z</time>
      </trkpt>
      <trkpt lat="43.56526" lon="5.32334">
        <ele>217.04064941406</ele>
        <time>2021-11-03T10:27:38Z</time>
      </trkpt>
      <trkpt lat="43.5653" lon="5.32324">
        <ele>217.49487304688</ele>
        <time>2021-11-03T10:27:47Z</time>
      </trkpt>
      <trkpt lat="43.56535" lon="5.32314">
        <ele>217.52111816406</ele>
        <time>2021-11-03T10:27:57Z</time>
      </trkpt>
      <trkpt lat="43.5654" lon="5.32304">
        <ele>216.27575683594</ele>
        <time>2021-11-03T10:28:06Z</time>
      </trkpt>
      <trkpt lat="43.56544" lon="5.32294">
        <ele>217.89624023438</ele>
        <time>2021-11-03T10:28:14Z</time>
      </trkpt>
      <trkpt lat="43.56548" lon="5.32284">
        <ele>220.17987060547</ele>
        <time>2021-11-03T10:28:22Z</time>
      </trkpt>
      <trkpt lat="43.56553" lon="5.32274">
        <ele>219.18786621094</ele>
        <time>2021-11-03T10:28:30Z</time>
      </trkpt>
      <trkpt lat="43.56558" lon="5.32264">
        <ele>220.32751464844</ele>
        <time>2021-11-03T10:28:39Z</time>
      </trkpt>
      <trkpt lat="43.56563" lon="5.32255">
        <ele>217.93737792969</ele>
        <time>2021-11-03T10:28:46Z</time>
      </trkpt>
      <trkpt lat="43.56568" lon="5.32246">
        <ele>217.88293457031</ele>
        <time>2021-11-03T10:28:53Z</time>
      </trkpt>
      <trkpt lat="43.56573" lon="5.32238">
        <ele>219.46838378906</ele>
        <time>2021-11-03T10:29:01Z</time>
      </trkpt>
      <trkpt lat="43.56578" lon="5.32228">
        <ele>220.25140380859</ele>
        <time>2021-11-03T10:29:09Z</time>
      </trkpt>
      <trkpt lat="43.56583" lon="5.32218">
        <ele>219.89025878906</ele>
        <time>2021-11-03T10:29:17Z</time>
      </trkpt>
      <trkpt lat="43.56586" lon="5.32208">
        <ele>219.91497802734</ele>
        <time>2021-11-03T10:29:25Z</time>
      </trkpt>
      <trkpt lat="43.56592" lon="5.32197">
        <ele>221.72497558594</ele>
        <time>2021-11-03T10:29:34Z</time>
      </trkpt>
      <trkpt lat="43.56592" lon="5.32186">
        <ele>220.576171875</ele>
        <time>2021-11-03T10:29:44Z</time>
      </trkpt>
      <trkpt lat="43.56597" lon="5.32177">
        <ele>221.37329101562</ele>
        <time>2021-11-03T10:29:53Z</time>
      </trkpt>
      <trkpt lat="43.56599" lon="5.32165">
        <ele>223.03747558594</ele>
        <time>2021-11-03T10:30:02Z</time>
      </trkpt>
      <trkpt lat="43.56606" lon="5.32157">
        <ele>229.94458007812</ele>
        <time>2021-11-03T10:30:15Z</time>
      </trkpt>
      <trkpt lat="43.56606" lon="5.32146">
        <ele>228.08227539062</ele>
        <time>2021-11-03T10:30:23Z</time>
      </trkpt>
      <trkpt lat="43.56607" lon="5.32134">
        <ele>227.93249511719</ele>
        <time>2021-11-03T10:30:31Z</time>
      </trkpt>
      <trkpt lat="43.56609" lon="5.32123">
        <ele>228.54815673828</ele>
        <time>2021-11-03T10:30:40Z</time>
      </trkpt>
      <trkpt lat="43.56614" lon="5.32113">
        <ele>229.25854492188</ele>
        <time>2021-11-03T10:30:48Z</time>
      </trkpt>
      <trkpt lat="43.56618" lon="5.32103">
        <ele>229.29772949219</ele>
        <time>2021-11-03T10:30:56Z</time>
      </trkpt>
      <trkpt lat="43.56621" lon="5.32092">
        <ele>229.46789550781</ele>
        <time>2021-11-03T10:31:04Z</time>
      </trkpt>
      <trkpt lat="43.56623" lon="5.32081">
        <ele>230.48388671875</ele>
        <time>2021-11-03T10:31:13Z</time>
      </trkpt>
      <trkpt lat="43.56626" lon="5.3207">
        <ele>231.27648925781</ele>
        <time>2021-11-03T10:31:22Z</time>
      </trkpt>
      <trkpt lat="43.56631" lon="5.3206">
        <ele>231.88500976562</ele>
        <time>2021-11-03T10:31:32Z</time>
      </trkpt>
      <trkpt lat="43.56636" lon="5.3205">
        <ele>233.79174804688</ele>
        <time>2021-11-03T10:31:42Z</time>
      </trkpt>
      <trkpt lat="43.56639" lon="5.32039">
        <ele>234.31469726562</ele>
        <time>2021-11-03T10:31:52Z</time>
      </trkpt>
      <trkpt lat="43.56643" lon="5.32028">
        <ele>235.08972167969</ele>
        <time>2021-11-03T10:32:02Z</time>
      </trkpt>
      <trkpt lat="43.56644" lon="5.32016">
        <ele>236.00793457031</ele>
        <time>2021-11-03T10:32:13Z</time>
      </trkpt>
      <trkpt lat="43.56646" lon="5.32005">
        <ele>237.52355957031</ele>
        <time>2021-11-03T10:32:23Z</time>
      </trkpt>
      <trkpt lat="43.56649" lon="5.31994">
        <ele>239.06311035156</ele>
        <time>2021-11-03T10:32:34Z</time>
      </trkpt>
      <trkpt lat="43.5665" lon="5.31982">
        <ele>241.24011230469</ele>
        <time>2021-11-03T10:32:47Z</time>
      </trkpt>
      <trkpt lat="43.56653" lon="5.31971">
        <ele>242.38305664062</ele>
        <time>2021-11-03T10:32:57Z</time>
      </trkpt>
      <trkpt lat="43.56654" lon="5.31959">
        <ele>243.98553466797</ele>
        <time>2021-11-03T10:33:07Z</time>
      </trkpt>
      <trkpt lat="43.56655" lon="5.31947">
        <ele>244.94763183594</ele>
        <time>2021-11-03T10:33:18Z</time>
      </trkpt>
      <trkpt lat="43.56656" lon="5.31936">
        <ele>246.86138916016</ele>
        <time>2021-11-03T10:33:30Z</time>
      </trkpt>
      <trkpt lat="43.56657" lon="5.31924">
        <ele>247.74548339844</ele>
        <time>2021-11-03T10:33:42Z</time>
      </trkpt>
      <trkpt lat="43.56658" lon="5.31912">
        <ele>249.57641601562</ele>
        <time>2021-11-03T10:33:54Z</time>
      </trkpt>
      <trkpt lat="43.56662" lon="5.31902">
        <ele>250.85626220703</ele>
        <time>2021-11-03T10:34:04Z</time>
      </trkpt>
      <trkpt lat="43.56666" lon="5.31891">
        <ele>251.64373779297</ele>
        <time>2021-11-03T10:34:15Z</time>
      </trkpt>
      <trkpt lat="43.56667" lon="5.31879">
        <ele>253.03912353516</ele>
        <time>2021-11-03T10:39:29Z</time>
      </trkpt>
      <trkpt lat="43.56667" lon="5.31868">
        <ele>255.89752197266</ele>
        <time>2021-11-03T10:39:44Z</time>
      </trkpt>
      <trkpt lat="43.56664" lon="5.31857">
        <ele>255.93560791016</ele>
        <time>2021-11-03T10:39:55Z</time>
      </trkpt>
      <trkpt lat="43.56662" lon="5.31845">
        <ele>256.21209716797</ele>
        <time>2021-11-03T10:40:04Z</time>
      </trkpt>
      <trkpt lat="43.56661" lon="5.31834">
        <ele>256.77258300781</ele>
        <time>2021-11-03T10:40:13Z</time>
      </trkpt>
      <trkpt lat="43.5666" lon="5.31823">
        <ele>257.65100097656</ele>
        <time>2021-11-03T10:40:22Z</time>
      </trkpt>
      <trkpt lat="43.56658" lon="5.31812">
        <ele>258.81420898438</ele>
        <time>2021-11-03T10:40:31Z</time>
      </trkpt>
      <trkpt lat="43.56655" lon="5.31801">
        <ele>258.95678710938</ele>
        <time>2021-11-03T10:40:41Z</time>
      </trkpt>
      <trkpt lat="43.56654" lon="5.31789">
        <ele>259.97473144531</ele>
        <time>2021-11-03T10:40:51Z</time>
      </trkpt>
      <trkpt lat="43.56654" lon="5.31778">
        <ele>261.26940917969</ele>
        <time>2021-11-03T10:41:01Z</time>
      </trkpt>
      <trkpt lat="43.56655" lon="5.31766">
        <ele>264.07800292969</ele>
        <time>2021-11-03T10:41:11Z</time>
      </trkpt>
      <trkpt lat="43.56654" lon="5.31755">
        <ele>264.61401367188</ele>
        <time>2021-11-03T10:41:21Z</time>
      </trkpt>
      <trkpt lat="43.56651" lon="5.31744">
        <ele>265.80529785156</ele>
        <time>2021-11-03T10:41:31Z</time>
      </trkpt>
      <trkpt lat="43.5665" lon="5.31732">
        <ele>267.90850830078</ele>
        <time>2021-11-03T10:41:41Z</time>
      </trkpt>
      <trkpt lat="43.56648" lon="5.3172">
        <ele>269.07202148438</ele>
        <time>2021-11-03T10:41:51Z</time>
      </trkpt>
      <trkpt lat="43.56644" lon="5.31709">
        <ele>270.00231933594</ele>
        <time>2021-11-03T10:42:01Z</time>
      </trkpt>
      <trkpt lat="43.56638" lon="5.31701">
        <ele>270.28259277344</ele>
        <time>2021-11-03T10:42:13Z</time>
      </trkpt>
      <trkpt lat="43.56631" lon="5.31694">
        <ele>272.65496826172</ele>
        <time>2021-11-03T10:42:27Z</time>
      </trkpt>
      <trkpt lat="43.56623" lon="5.31692">
        <ele>274.46716308594</ele>
        <time>2021-11-03T10:42:38Z</time>
      </trkpt>
      <trkpt lat="43.56615" lon="5.3169">
        <ele>275.20849609375</ele>
        <time>2021-11-03T10:42:47Z</time>
      </trkpt>
      <trkpt lat="43.56606" lon="5.31689">
        <ele>276.13421630859</ele>
        <time>2021-11-03T10:42:55Z</time>
      </trkpt>
      <trkpt lat="43.56598" lon="5.31692">
        <ele>275.14636230469</ele>
        <time>2021-11-03T10:43:03Z</time>
      </trkpt>
      <trkpt lat="43.56593" lon="5.31701">
        <ele>274.01245117188</ele>
        <time>2021-11-03T10:43:11Z</time>
      </trkpt>
      <trkpt lat="43.56591" lon="5.31712">
        <ele>274.1943359375</ele>
        <time>2021-11-03T10:43:19Z</time>
      </trkpt>
      <trkpt lat="43.5659" lon="5.31724">
        <ele>274.76879882812</ele>
        <time>2021-11-03T10:43:27Z</time>
      </trkpt>
      <trkpt lat="43.5659" lon="5.31735">
        <ele>274.68579101562</ele>
        <time>2021-11-03T10:43:34Z</time>
      </trkpt>
      <trkpt lat="43.56589" lon="5.31746">
        <ele>273.91143798828</ele>
        <time>2021-11-03T10:43:42Z</time>
      </trkpt>
      <trkpt lat="43.56588" lon="5.31758">
        <ele>272.87622070312</ele>
        <time>2021-11-03T10:43:51Z</time>
      </trkpt>
      <trkpt lat="43.56587" lon="5.31769">
        <ele>272.99157714844</ele>
        <time>2021-11-03T10:43:59Z</time>
      </trkpt>
      <trkpt lat="43.56589" lon="5.31781">
        <ele>272.14831542969</ele>
        <time>2021-11-03T10:44:08Z</time>
      </trkpt>
      <trkpt lat="43.56589" lon="5.31793">
        <ele>272.4736328125</ele>
        <time>2021-11-03T10:44:16Z</time>
      </trkpt>
      <trkpt lat="43.56589" lon="5.31804">
        <ele>272.51623535156</ele>
        <time>2021-11-03T10:44:24Z</time>
      </trkpt>
      <trkpt lat="43.56585" lon="5.31814">
        <ele>273.56207275391</ele>
        <time>2021-11-03T10:44:32Z</time>
      </trkpt>
      <trkpt lat="43.56582" lon="5.31824">
        <ele>273.53991699219</ele>
        <time>2021-11-03T10:44:40Z</time>
      </trkpt>
      <trkpt lat="43.56579" lon="5.31836">
        <ele>274.56689453125</ele>
        <time>2021-11-03T10:44:48Z</time>
      </trkpt>
      <trkpt lat="43.56576" lon="5.31847">
        <ele>274.65618896484</ele>
        <time>2021-11-03T10:44:56Z</time>
      </trkpt>
      <trkpt lat="43.56573" lon="5.31859">
        <ele>274.3125</ele>
        <time>2021-11-03T10:45:04Z</time>
      </trkpt>
      <trkpt lat="43.5657" lon="5.31869">
        <ele>273.69116210938</ele>
        <time>2021-11-03T10:45:11Z</time>
      </trkpt>
      <trkpt lat="43.56567" lon="5.31879">
        <ele>272.50317382812</ele>
        <time>2021-11-03T10:45:18Z</time>
      </trkpt>
      <trkpt lat="43.56566" lon="5.31891">
        <ele>272.52716064453</ele>
        <time>2021-11-03T10:45:26Z</time>
      </trkpt>
      <trkpt lat="43.5657" lon="5.31901">
        <ele>274.33679199219</ele>
        <time>2021-11-03T10:45:35Z</time>
      </trkpt>
      <trkpt lat="43.56577" lon="5.31909">
        <ele>274.17468261719</ele>
        <time>2021-11-03T10:45:44Z</time>
      </trkpt>
      <trkpt lat="43.56583" lon="5.31918">
        <ele>275.37756347656</ele>
        <time>2021-11-03T10:46:10Z</time>
      </trkpt>
      <trkpt lat="43.56578" lon="5.31909">
        <ele>276.36596679688</ele>
        <time>2021-11-03T10:50:06Z</time>
      </trkpt>
      <trkpt lat="43.56571" lon="5.31902">
        <ele>277.22253417969</ele>
        <time>2021-11-03T10:50:14Z</time>
      </trkpt>
      <trkpt lat="43.56565" lon="5.31893">
        <ele>278.224609375</ele>
        <time>2021-11-03T10:50:23Z</time>
      </trkpt>
      <trkpt lat="43.56564" lon="5.31881">
        <ele>277.33435058594</ele>
        <time>2021-11-03T10:50:32Z</time>
      </trkpt>
      <trkpt lat="43.56568" lon="5.31871">
        <ele>276.93518066406</ele>
        <time>2021-11-03T10:50:41Z</time>
      </trkpt>
      <trkpt lat="43.56571" lon="5.31859">
        <ele>276.38739013672</ele>
        <time>2021-11-03T10:50:50Z</time>
      </trkpt>
      <trkpt lat="43.56574" lon="5.31849">
        <ele>275.95227050781</ele>
        <time>2021-11-03T10:50:57Z</time>
      </trkpt>
      <trkpt lat="43.56577" lon="5.31838">
        <ele>276.12945556641</ele>
        <time>2021-11-03T10:51:04Z</time>
      </trkpt>
      <trkpt lat="43.5658" lon="5.31827">
        <ele>276.9189453125</ele>
        <time>2021-11-03T10:51:12Z</time>
      </trkpt>
      <trkpt lat="43.56583" lon="5.31816">
        <ele>275.79266357422</ele>
        <time>2021-11-03T10:51:20Z</time>
      </trkpt>
      <trkpt lat="43.56587" lon="5.31805">
        <ele>275.37982177734</ele>
        <time>2021-11-03T10:51:28Z</time>
      </trkpt>
      <trkpt lat="43.56588" lon="5.31793">
        <ele>275.02185058594</ele>
        <time>2021-11-03T10:51:36Z</time>
      </trkpt>
      <trkpt lat="43.56587" lon="5.31781">
        <ele>275.18322753906</ele>
        <time>2021-11-03T10:51:44Z</time>
      </trkpt>
      <trkpt lat="43.56586" lon="5.3177">
        <ele>275.068359375</ele>
        <time>2021-11-03T10:51:52Z</time>
      </trkpt>
      <trkpt lat="43.56588" lon="5.31758">
        <ele>275.72155761719</ele>
        <time>2021-11-03T10:52:00Z</time>
      </trkpt>
      <trkpt lat="43.56589" lon="5.31748">
        <ele>276.30554199219</ele>
        <time>2021-11-03T10:52:07Z</time>
      </trkpt>
      <trkpt lat="43.56591" lon="5.31736">
        <ele>276.43444824219</ele>
        <time>2021-11-03T10:52:14Z</time>
      </trkpt>
      <trkpt lat="43.56592" lon="5.31725">
        <ele>276.02465820312</ele>
        <time>2021-11-03T10:52:21Z</time>
      </trkpt>
      <trkpt lat="43.56592" lon="5.31714">
        <ele>275.68328857422</ele>
        <time>2021-11-03T10:52:28Z</time>
      </trkpt>
      <trkpt lat="43.56592" lon="5.31703">
        <ele>275.67053222656</ele>
        <time>2021-11-03T10:52:34Z</time>
      </trkpt>
      <trkpt lat="43.56589" lon="5.31691">
        <ele>274.89147949219</ele>
        <time>2021-11-03T10:52:41Z</time>
      </trkpt>
      <trkpt lat="43.56583" lon="5.31684">
        <ele>275.54412841797</ele>
        <time>2021-11-03T10:52:48Z</time>
      </trkpt>
      <trkpt lat="43.56576" lon="5.31679">
        <ele>276.20129394531</ele>
        <time>2021-11-03T10:52:55Z</time>
      </trkpt>
      <trkpt lat="43.56567" lon="5.31677">
        <ele>276.65716552734</ele>
        <time>2021-11-03T10:53:03Z</time>
      </trkpt>
      <trkpt lat="43.56559" lon="5.31676">
        <ele>276.42993164062</ele>
        <time>2021-11-03T10:53:10Z</time>
      </trkpt>
      <trkpt lat="43.56552" lon="5.31674">
        <ele>277.38153076172</ele>
        <time>2021-11-03T10:53:17Z</time>
      </trkpt>
      <trkpt lat="43.56544" lon="5.31671">
        <ele>276.853515625</ele>
        <time>2021-11-03T10:53:23Z</time>
      </trkpt>
      <trkpt lat="43.56536" lon="5.31671">
        <ele>275.30090332031</ele>
        <time>2021-11-03T10:53:30Z</time>
      </trkpt>
      <trkpt lat="43.56527" lon="5.31669">
        <ele>274.38269042969</ele>
        <time>2021-11-03T10:53:37Z</time>
      </trkpt>
      <trkpt lat="43.56519" lon="5.31668">
        <ele>274.005859375</ele>
        <time>2021-11-03T10:53:44Z</time>
      </trkpt>
      <trkpt lat="43.56511" lon="5.31666">
        <ele>272.92822265625</ele>
        <time>2021-11-03T10:53:51Z</time>
      </trkpt>
      <trkpt lat="43.56503" lon="5.31664">
        <ele>273.86877441406</ele>
        <time>2021-11-03T10:53:57Z</time>
      </trkpt>
      <trkpt lat="43.56494" lon="5.31664">
        <ele>273.24377441406</ele>
        <time>2021-11-03T10:54:06Z</time>
      </trkpt>
      <trkpt lat="43.56485" lon="5.31664">
        <ele>273.45513916016</ele>
        <time>2021-11-03T10:54:15Z</time>
      </trkpt>
      <trkpt lat="43.56477" lon="5.31664">
        <ele>273.39111328125</ele>
        <time>2021-11-03T10:54:22Z</time>
      </trkpt>
      <trkpt lat="43.56468" lon="5.31661">
        <ele>274.30529785156</ele>
        <time>2021-11-03T10:54:30Z</time>
      </trkpt>
      <trkpt lat="43.5646" lon="5.31659">
        <ele>273.47882080078</ele>
        <time>2021-11-03T10:54:39Z</time>
      </trkpt>
      <trkpt lat="43.56452" lon="5.31654">
        <ele>274.41418457031</ele>
        <time>2021-11-03T10:54:47Z</time>
      </trkpt>
      <trkpt lat="43.56445" lon="5.31647">
        <ele>274.02966308594</ele>
        <time>2021-11-03T10:54:55Z</time>
      </trkpt>
      <trkpt lat="43.56438" lon="5.31642">
        <ele>275.06604003906</ele>
        <time>2021-11-03T10:55:02Z</time>
      </trkpt>
      <trkpt lat="43.56431" lon="5.31635">
        <ele>275.30798339844</ele>
        <time>2021-11-03T10:55:09Z</time>
      </trkpt>
      <trkpt lat="43.56424" lon="5.31627">
        <ele>275.42529296875</ele>
        <time>2021-11-03T10:55:17Z</time>
      </trkpt>
      <trkpt lat="43.56417" lon="5.31621">
        <ele>273.59375</ele>
        <time>2021-11-03T10:55:24Z</time>
      </trkpt>
      <trkpt lat="43.56411" lon="5.31616">
        <ele>272.87329101562</ele>
        <time>2021-11-03T10:55:31Z</time>
      </trkpt>
      <trkpt lat="43.56403" lon="5.31612">
        <ele>273.07421875</ele>
        <time>2021-11-03T10:55:38Z</time>
      </trkpt>
      <trkpt lat="43.56395" lon="5.31607">
        <ele>273.90502929688</ele>
        <time>2021-11-03T10:55:45Z</time>
      </trkpt>
      <trkpt lat="43.56387" lon="5.31603">
        <ele>274.52001953125</ele>
        <time>2021-11-03T10:55:52Z</time>
      </trkpt>
      <trkpt lat="43.56379" lon="5.31601">
        <ele>274.27502441406</ele>
        <time>2021-11-03T10:55:59Z</time>
      </trkpt>
      <trkpt lat="43.56371" lon="5.31598">
        <ele>273.85803222656</ele>
        <time>2021-11-03T10:56:06Z</time>
      </trkpt>
      <trkpt lat="43.56363" lon="5.31595">
        <ele>273.37023925781</ele>
        <time>2021-11-03T10:56:14Z</time>
      </trkpt>
      <trkpt lat="43.56355" lon="5.31592">
        <ele>272.33422851562</ele>
        <time>2021-11-03T10:56:22Z</time>
      </trkpt>
      <trkpt lat="43.56347" lon="5.31586">
        <ele>270.9794921875</ele>
        <time>2021-11-03T10:56:31Z</time>
      </trkpt>
      <trkpt lat="43.56342" lon="5.31578">
        <ele>271.05895996094</ele>
        <time>2021-11-03T10:56:39Z</time>
      </trkpt>
      <trkpt lat="43.56341" lon="5.31566">
        <ele>271.2666015625</ele>
        <time>2021-11-03T10:56:48Z</time>
      </trkpt>
      <trkpt lat="43.56342" lon="5.31555">
        <ele>271.54809570312</ele>
        <time>2021-11-03T10:56:58Z</time>
      </trkpt>
      <trkpt lat="43.56347" lon="5.31545">
        <ele>271.68603515625</ele>
        <time>2021-11-03T10:57:07Z</time>
      </trkpt>
      <trkpt lat="43.56353" lon="5.31536">
        <ele>272.40734863281</ele>
        <time>2021-11-03T10:57:16Z</time>
      </trkpt>
      <trkpt lat="43.56358" lon="5.31526">
        <ele>272.8505859375</ele>
        <time>2021-11-03T10:57:24Z</time>
      </trkpt>
      <trkpt lat="43.56363" lon="5.31516">
        <ele>274.10083007812</ele>
        <time>2021-11-03T10:57:32Z</time>
      </trkpt>
      <trkpt lat="43.56367" lon="5.31507">
        <ele>274.35290527344</ele>
        <time>2021-11-03T10:57:39Z</time>
      </trkpt>
      <trkpt lat="43.56371" lon="5.31497">
        <ele>272.92712402344</ele>
        <time>2021-11-03T10:57:47Z</time>
      </trkpt>
      <trkpt lat="43.56375" lon="5.31487">
        <ele>272.06451416016</ele>
        <time>2021-11-03T10:57:54Z</time>
      </trkpt>
      <trkpt lat="43.5638" lon="5.31477">
        <ele>272.73413085938</ele>
        <time>2021-11-03T10:58:01Z</time>
      </trkpt>
      <trkpt lat="43.56384" lon="5.31468">
        <ele>272.73742675781</ele>
        <time>2021-11-03T10:58:08Z</time>
      </trkpt>
      <trkpt lat="43.56388" lon="5.31458">
        <ele>273.09997558594</ele>
        <time>2021-11-03T10:58:15Z</time>
      </trkpt>
      <trkpt lat="43.56393" lon="5.31449">
        <ele>273.45104980469</ele>
        <time>2021-11-03T10:58:24Z</time>
      </trkpt>
      <trkpt lat="43.56399" lon="5.31439">
        <ele>273.16577148438</ele>
        <time>2021-11-03T10:58:32Z</time>
      </trkpt>
      <trkpt lat="43.56404" lon="5.31431">
        <ele>273.18481445312</ele>
        <time>2021-11-03T10:58:40Z</time>
      </trkpt>
      <trkpt lat="43.5641" lon="5.31422">
        <ele>273.16027832031</ele>
        <time>2021-11-03T10:58:48Z</time>
      </trkpt>
      <trkpt lat="43.56416" lon="5.31414">
        <ele>273.86999511719</ele>
        <time>2021-11-03T10:58:56Z</time>
      </trkpt>
      <trkpt lat="43.56422" lon="5.31405">
        <ele>273.90795898438</ele>
        <time>2021-11-03T10:59:03Z</time>
      </trkpt>
      <trkpt lat="43.56427" lon="5.31396">
        <ele>274.59545898438</ele>
        <time>2021-11-03T10:59:11Z</time>
      </trkpt>
      <trkpt lat="43.56431" lon="5.31386">
        <ele>274.234375</ele>
        <time>2021-11-03T10:59:18Z</time>
      </trkpt>
      <trkpt lat="43.56434" lon="5.31375">
        <ele>272.97448730469</ele>
        <time>2021-11-03T10:59:25Z</time>
      </trkpt>
      <trkpt lat="43.56437" lon="5.31364">
        <ele>273.49987792969</ele>
        <time>2021-11-03T10:59:32Z</time>
      </trkpt>
      <trkpt lat="43.5644" lon="5.31353">
        <ele>273.53643798828</ele>
        <time>2021-11-03T10:59:39Z</time>
      </trkpt>
      <trkpt lat="43.56444" lon="5.31343">
        <ele>273.12414550781</ele>
        <time>2021-11-03T10:59:47Z</time>
      </trkpt>
      <trkpt lat="43.56449" lon="5.31332">
        <ele>274.09252929688</ele>
        <time>2021-11-03T10:59:56Z</time>
      </trkpt>
      <trkpt lat="43.56454" lon="5.31322">
        <ele>275.02136230469</ele>
        <time>2021-11-03T11:00:05Z</time>
      </trkpt>
      <trkpt lat="43.56459" lon="5.31313">
        <ele>273.9443359375</ele>
        <time>2021-11-03T11:00:17Z</time>
      </trkpt>
      <trkpt lat="43.56466" lon="5.31305">
        <ele>273.73413085938</ele>
        <time>2021-11-03T11:00:26Z</time>
      </trkpt>
      <trkpt lat="43.56473" lon="5.31298">
        <ele>274.19512939453</ele>
        <time>2021-11-03T11:00:35Z</time>
      </trkpt>
      <trkpt lat="43.56479" lon="5.3129">
        <ele>275.12609863281</ele>
        <time>2021-11-03T11:00:43Z</time>
      </trkpt>
      <trkpt lat="43.56485" lon="5.31282">
        <ele>275.59143066406</ele>
        <time>2021-11-03T11:00:50Z</time>
      </trkpt>
      <trkpt lat="43.5649" lon="5.31272">
        <ele>276.63171386719</ele>
        <time>2021-11-03T11:00:58Z</time>
      </trkpt>
      <trkpt lat="43.56494" lon="5.31262">
        <ele>275.44787597656</ele>
        <time>2021-11-03T11:01:05Z</time>
      </trkpt>
      <trkpt lat="43.56498" lon="5.31252">
        <ele>274.81762695312</ele>
        <time>2021-11-03T11:01:12Z</time>
      </trkpt>
      <trkpt lat="43.56502" lon="5.31241">
        <ele>276.13702392578</ele>
        <time>2021-11-03T11:01:19Z</time>
      </trkpt>
      <trkpt lat="43.56506" lon="5.31231">
        <ele>277.02819824219</ele>
        <time>2021-11-03T11:01:26Z</time>
      </trkpt>
      <trkpt lat="43.5651" lon="5.3122">
        <ele>276.21124267578</ele>
        <time>2021-11-03T11:01:34Z</time>
      </trkpt>
      <trkpt lat="43.56514" lon="5.3121">
        <ele>275.73168945312</ele>
        <time>2021-11-03T11:01:42Z</time>
      </trkpt>
      <trkpt lat="43.56517" lon="5.31199">
        <ele>275.44494628906</ele>
        <time>2021-11-03T11:01:49Z</time>
      </trkpt>
      <trkpt lat="43.56519" lon="5.31188">
        <ele>275.23724365234</ele>
        <time>2021-11-03T11:01:56Z</time>
      </trkpt>
      <trkpt lat="43.5652" lon="5.31177">
        <ele>275.61456298828</ele>
        <time>2021-11-03T11:02:05Z</time>
      </trkpt>
      <trkpt lat="43.56525" lon="5.31166">
        <ele>275.80322265625</ele>
        <time>2021-11-03T11:02:15Z</time>
      </trkpt>
      <trkpt lat="43.5653" lon="5.31157">
        <ele>274.68804931641</ele>
        <time>2021-11-03T11:02:22Z</time>
      </trkpt>
      <trkpt lat="43.56534" lon="5.31147">
        <ele>275.15386962891</ele>
        <time>2021-11-03T11:02:30Z</time>
      </trkpt>
      <trkpt lat="43.56538" lon="5.31136">
        <ele>275.74499511719</ele>
        <time>2021-11-03T11:02:39Z</time>
      </trkpt>
      <trkpt lat="43.56541" lon="5.31126">
        <ele>275.29602050781</ele>
        <time>2021-11-03T11:02:47Z</time>
      </trkpt>
      <trkpt lat="43.56544" lon="5.31115">
        <ele>274.775390625</ele>
        <time>2021-11-03T11:02:55Z</time>
      </trkpt>
      <trkpt lat="43.56546" lon="5.31104">
        <ele>275.58166503906</ele>
        <time>2021-11-03T11:03:03Z</time>
      </trkpt>
      <trkpt lat="43.56546" lon="5.31094">
        <ele>274.09094238281</ele>
        <time>2021-11-03T11:03:11Z</time>
      </trkpt>
      <trkpt lat="43.56547" lon="5.31082">
        <ele>274.83325195312</ele>
        <time>2021-11-03T11:03:20Z</time>
      </trkpt>
      <trkpt lat="43.56545" lon="5.31072">
        <ele>275.16394042969</ele>
        <time>2021-11-03T11:03:28Z</time>
      </trkpt>
      <trkpt lat="43.56547" lon="5.31059">
        <ele>274.99353027344</ele>
        <time>2021-11-03T11:03:36Z</time>
      </trkpt>
      <trkpt lat="43.5655" lon="5.31049">
        <ele>275.31262207031</ele>
        <time>2021-11-03T11:03:45Z</time>
      </trkpt>
      <trkpt lat="43.56555" lon="5.31039">
        <ele>276.26916503906</ele>
        <time>2021-11-03T11:03:57Z</time>
      </trkpt>
      <trkpt lat="43.56559" lon="5.31029">
        <ele>274.24536132812</ele>
        <time>2021-11-03T11:04:07Z</time>
      </trkpt>
      <trkpt lat="43.56564" lon="5.3102">
        <ele>275.14959716797</ele>
        <time>2021-11-03T11:04:17Z</time>
      </trkpt>
      <trkpt lat="43.56568" lon="5.3101">
        <ele>274.69317626953</ele>
        <time>2021-11-03T11:04:25Z</time>
      </trkpt>
      <trkpt lat="43.56572" lon="5.30999">
        <ele>274.78063964844</ele>
        <time>2021-11-03T11:04:33Z</time>
      </trkpt>
      <trkpt lat="43.56576" lon="5.30989">
        <ele>275.21746826172</ele>
        <time>2021-11-03T11:04:41Z</time>
      </trkpt>
      <trkpt lat="43.5658" lon="5.30979">
        <ele>275.26647949219</ele>
        <time>2021-11-03T11:04:49Z</time>
      </trkpt>
      <trkpt lat="43.56585" lon="5.30969">
        <ele>275.40338134766</ele>
        <time>2021-11-03T11:04:56Z</time>
      </trkpt>
      <trkpt lat="43.56589" lon="5.30959">
        <ele>275.55749511719</ele>
        <time>2021-11-03T11:05:03Z</time>
      </trkpt>
      <trkpt lat="43.56593" lon="5.30949">
        <ele>274.07733154297</ele>
        <time>2021-11-03T11:05:10Z</time>
      </trkpt>
      <trkpt lat="43.56597" lon="5.30939">
        <ele>274.09783935547</ele>
        <time>2021-11-03T11:05:17Z</time>
      </trkpt>
      <trkpt lat="43.56601" lon="5.30929">
        <ele>274.32000732422</ele>
        <time>2021-11-03T11:05:24Z</time>
      </trkpt>
      <trkpt lat="43.56606" lon="5.30918">
        <ele>274.41235351562</ele>
        <time>2021-11-03T11:05:32Z</time>
      </trkpt>
      <trkpt lat="43.56609" lon="5.30909">
        <ele>273.11016845703</ele>
        <time>2021-11-03T11:05:39Z</time>
      </trkpt>
      <trkpt lat="43.56614" lon="5.30899">
        <ele>273.88726806641</ele>
        <time>2021-11-03T11:05:46Z</time>
      </trkpt>
      <trkpt lat="43.56618" lon="5.30889">
        <ele>273.23620605469</ele>
        <time>2021-11-03T11:05:53Z</time>
      </trkpt>
      <trkpt lat="43.56623" lon="5.30879">
        <ele>272.42736816406</ele>
        <time>2021-11-03T11:06:00Z</time>
      </trkpt>
      <trkpt lat="43.56628" lon="5.30869">
        <ele>272.97052001953</ele>
        <time>2021-11-03T11:06:08Z</time>
      </trkpt>
      <trkpt lat="43.56632" lon="5.30859">
        <ele>274.28063964844</ele>
        <time>2021-11-03T11:06:15Z</time>
      </trkpt>
      <trkpt lat="43.56637" lon="5.3085">
        <ele>274.60168457031</ele>
        <time>2021-11-03T11:06:22Z</time>
      </trkpt>
      <trkpt lat="43.56642" lon="5.3084">
        <ele>274.58551025391</ele>
        <time>2021-11-03T11:06:30Z</time>
      </trkpt>
      <trkpt lat="43.56647" lon="5.30831">
        <ele>275.83483886719</ele>
        <time>2021-11-03T11:06:37Z</time>
      </trkpt>
      <trkpt lat="43.56651" lon="5.30821">
        <ele>275.75024414062</ele>
        <time>2021-11-03T11:06:45Z</time>
      </trkpt>
      <trkpt lat="43.56656" lon="5.30811">
        <ele>276.36950683594</ele>
        <time>2021-11-03T11:06:53Z</time>
      </trkpt>
      <trkpt lat="43.56661" lon="5.30801">
        <ele>276.55249023438</ele>
        <time>2021-11-03T11:07:01Z</time>
      </trkpt>
      <trkpt lat="43.56665" lon="5.30792">
        <ele>276.17114257812</ele>
        <time>2021-11-03T11:07:08Z</time>
      </trkpt>
      <trkpt lat="43.5667" lon="5.30783">
        <ele>276.07421875</ele>
        <time>2021-11-03T11:07:15Z</time>
      </trkpt>
      <trkpt lat="43.56673" lon="5.30772">
        <ele>276.15435791016</ele>
        <time>2021-11-03T11:07:22Z</time>
      </trkpt>
      <trkpt lat="43.56679" lon="5.30762">
        <ele>276.95007324219</ele>
        <time>2021-11-03T11:07:30Z</time>
      </trkpt>
      <trkpt lat="43.56683" lon="5.30752">
        <ele>276.54736328125</ele>
        <time>2021-11-03T11:07:38Z</time>
      </trkpt>
      <trkpt lat="43.56687" lon="5.30743">
        <ele>275.75811767578</ele>
        <time>2021-11-03T11:07:45Z</time>
      </trkpt>
      <trkpt lat="43.56692" lon="5.30734">
        <ele>275.70629882812</ele>
        <time>2021-11-03T11:07:52Z</time>
      </trkpt>
      <trkpt lat="43.56697" lon="5.30724">
        <ele>274.73498535156</ele>
        <time>2021-11-03T11:08:00Z</time>
      </trkpt>
      <trkpt lat="43.56701" lon="5.30715">
        <ele>273.662109375</ele>
        <time>2021-11-03T11:08:07Z</time>
      </trkpt>
      <trkpt lat="43.56705" lon="5.30705">
        <ele>272.84191894531</ele>
        <time>2021-11-03T11:08:14Z</time>
      </trkpt>
      <trkpt lat="43.56709" lon="5.30694">
        <ele>274.06860351562</ele>
        <time>2021-11-03T11:08:22Z</time>
      </trkpt>
      <trkpt lat="43.56714" lon="5.30684">
        <ele>274.06481933594</ele>
        <time>2021-11-03T11:08:30Z</time>
      </trkpt>
      <trkpt lat="43.56718" lon="5.30674">
        <ele>274.05859375</ele>
        <time>2021-11-03T11:08:38Z</time>
      </trkpt>
      <trkpt lat="43.56723" lon="5.30664">
        <ele>272.2529296875</ele>
        <time>2021-11-03T11:08:46Z</time>
      </trkpt>
      <trkpt lat="43.56728" lon="5.30656">
        <ele>273.34020996094</ele>
        <time>2021-11-03T11:08:53Z</time>
      </trkpt>
      <trkpt lat="43.56732" lon="5.30646">
        <ele>273.24169921875</ele>
        <time>2021-11-03T11:09:00Z</time>
      </trkpt>
      <trkpt lat="43.56736" lon="5.30635">
        <ele>273.662109375</ele>
        <time>2021-11-03T11:09:08Z</time>
      </trkpt>
      <trkpt lat="43.56737" lon="5.30623">
        <ele>273.41693115234</ele>
        <time>2021-11-03T11:09:17Z</time>
      </trkpt>
      <trkpt lat="43.5674" lon="5.30612">
        <ele>272.68463134766</ele>
        <time>2021-11-03T11:09:25Z</time>
      </trkpt>
      <trkpt lat="43.56745" lon="5.30602">
        <ele>273.48504638672</ele>
        <time>2021-11-03T11:09:34Z</time>
      </trkpt>
      <trkpt lat="43.5675" lon="5.30593">
        <ele>273.8994140625</ele>
        <time>2021-11-03T11:09:42Z</time>
      </trkpt>
      <trkpt lat="43.56752" lon="5.30581">
        <ele>274.10327148438</ele>
        <time>2021-11-03T11:09:52Z</time>
      </trkpt>
      <trkpt lat="43.56758" lon="5.30572">
        <ele>275.22528076172</ele>
        <time>2021-11-03T11:10:00Z</time>
      </trkpt>
      <trkpt lat="43.56762" lon="5.30563">
        <ele>275.11566162109</ele>
        <time>2021-11-03T11:10:08Z</time>
      </trkpt>
      <trkpt lat="43.56767" lon="5.30553">
        <ele>275.36950683594</ele>
        <time>2021-11-03T11:10:16Z</time>
      </trkpt>
      <trkpt lat="43.56772" lon="5.30542">
        <ele>276.18969726562</ele>
        <time>2021-11-03T11:10:24Z</time>
      </trkpt>
      <trkpt lat="43.56776" lon="5.30532">
        <ele>275.13586425781</ele>
        <time>2021-11-03T11:10:32Z</time>
      </trkpt>
      <trkpt lat="43.56781" lon="5.30523">
        <ele>276.26513671875</ele>
        <time>2021-11-03T11:10:40Z</time>
      </trkpt>
      <trkpt lat="43.56786" lon="5.30514">
        <ele>276.39123535156</ele>
        <time>2021-11-03T11:10:47Z</time>
      </trkpt>
      <trkpt lat="43.56791" lon="5.30505">
        <ele>275.34460449219</ele>
        <time>2021-11-03T11:10:54Z</time>
      </trkpt>
      <trkpt lat="43.56797" lon="5.30497">
        <ele>275.29699707031</ele>
        <time>2021-11-03T11:11:01Z</time>
      </trkpt>
      <trkpt lat="43.56804" lon="5.30491">
        <ele>275.78845214844</ele>
        <time>2021-11-03T11:11:09Z</time>
      </trkpt>
      <trkpt lat="43.56812" lon="5.30488">
        <ele>276.45422363281</ele>
        <time>2021-11-03T11:11:17Z</time>
      </trkpt>
      <trkpt lat="43.56819" lon="5.30483">
        <ele>275.09130859375</ele>
        <time>2021-11-03T11:11:24Z</time>
      </trkpt>
      <trkpt lat="43.56828" lon="5.3048">
        <ele>274.84741210938</ele>
        <time>2021-11-03T11:11:31Z</time>
      </trkpt>
      <trkpt lat="43.56836" lon="5.3048">
        <ele>274.39819335938</ele>
        <time>2021-11-03T11:11:39Z</time>
      </trkpt>
      <trkpt lat="43.56845" lon="5.3048">
        <ele>274.509765625</ele>
        <time>2021-11-03T11:11:47Z</time>
      </trkpt>
      <trkpt lat="43.56853" lon="5.30475">
        <ele>273.92694091797</ele>
        <time>2021-11-03T11:11:54Z</time>
      </trkpt>
      <trkpt lat="43.56858" lon="5.30466">
        <ele>273.64434814453</ele>
        <time>2021-11-03T11:12:02Z</time>
      </trkpt>
      <trkpt lat="43.56862" lon="5.30455">
        <ele>273.19384765625</ele>
        <time>2021-11-03T11:12:10Z</time>
      </trkpt>
      <trkpt lat="43.56866" lon="5.30444">
        <ele>272.69030761719</ele>
        <time>2021-11-03T11:12:18Z</time>
      </trkpt>
      <trkpt lat="43.56869" lon="5.30435">
        <ele>273.125</ele>
        <time>2021-11-03T11:12:25Z</time>
      </trkpt>
      <trkpt lat="43.56873" lon="5.30425">
        <ele>272.93072509766</ele>
        <time>2021-11-03T11:12:33Z</time>
      </trkpt>
      <trkpt lat="43.56877" lon="5.30414">
        <ele>272.28491210938</ele>
        <time>2021-11-03T11:12:41Z</time>
      </trkpt>
      <trkpt lat="43.56881" lon="5.30403">
        <ele>272.04425048828</ele>
        <time>2021-11-03T11:12:49Z</time>
      </trkpt>
      <trkpt lat="43.56884" lon="5.30393">
        <ele>271.38677978516</ele>
        <time>2021-11-03T11:12:57Z</time>
      </trkpt>
      <trkpt lat="43.56889" lon="5.30382">
        <ele>272.47387695312</ele>
        <time>2021-11-03T11:13:05Z</time>
      </trkpt>
      <trkpt lat="43.56894" lon="5.30372">
        <ele>272.74206542969</ele>
        <time>2021-11-03T11:13:13Z</time>
      </trkpt>
      <trkpt lat="43.56897" lon="5.30362">
        <ele>270.05603027344</ele>
        <time>2021-11-03T11:13:22Z</time>
      </trkpt>
      <trkpt lat="43.56902" lon="5.30352">
        <ele>271.3125</ele>
        <time>2021-11-03T11:13:30Z</time>
      </trkpt>
      <trkpt lat="43.56905" lon="5.3034">
        <ele>270.09466552734</ele>
        <time>2021-11-03T11:13:39Z</time>
      </trkpt>
      <trkpt lat="43.56908" lon="5.3033">
        <ele>271.73510742188</ele>
        <time>2021-11-03T11:13:46Z</time>
      </trkpt>
      <trkpt lat="43.56911" lon="5.3032">
        <ele>273.0419921875</ele>
        <time>2021-11-03T11:13:53Z</time>
      </trkpt>
      <trkpt lat="43.56916" lon="5.3031">
        <ele>273.33312988281</ele>
        <time>2021-11-03T11:14:02Z</time>
      </trkpt>
      <trkpt lat="43.56923" lon="5.30303">
        <ele>273.98876953125</ele>
        <time>2021-11-03T11:14:11Z</time>
      </trkpt>
      <trkpt lat="43.56928" lon="5.30294">
        <ele>274.25244140625</ele>
        <time>2021-11-03T11:14:19Z</time>
      </trkpt>
      <trkpt lat="43.56933" lon="5.30286">
        <ele>274.70629882812</ele>
        <time>2021-11-03T11:14:26Z</time>
      </trkpt>
      <trkpt lat="43.56937" lon="5.30276">
        <ele>275.14978027344</ele>
        <time>2021-11-03T11:14:33Z</time>
      </trkpt>
      <trkpt lat="43.56941" lon="5.30266">
        <ele>275.57580566406</ele>
        <time>2021-11-03T11:14:41Z</time>
      </trkpt>
      <trkpt lat="43.56945" lon="5.30256">
        <ele>276.4072265625</ele>
        <time>2021-11-03T11:14:48Z</time>
      </trkpt>
      <trkpt lat="43.56951" lon="5.30247">
        <ele>274.37878417969</ele>
        <time>2021-11-03T11:14:57Z</time>
      </trkpt>
      <trkpt lat="43.56959" lon="5.30243">
        <ele>275.68212890625</ele>
        <time>2021-11-03T11:15:06Z</time>
      </trkpt>
      <trkpt lat="43.56965" lon="5.30234">
        <ele>274.37573242188</ele>
        <time>2021-11-03T11:15:15Z</time>
      </trkpt>
      <trkpt lat="43.5697" lon="5.30225">
        <ele>274.92590332031</ele>
        <time>2021-11-03T11:15:23Z</time>
      </trkpt>
      <trkpt lat="43.56974" lon="5.30214">
        <ele>274.48364257812</ele>
        <time>2021-11-03T11:15:31Z</time>
      </trkpt>
      <trkpt lat="43.56978" lon="5.30204">
        <ele>275.87768554688</ele>
        <time>2021-11-03T11:15:39Z</time>
      </trkpt>
      <trkpt lat="43.56983" lon="5.30196">
        <ele>277.45935058594</ele>
        <time>2021-11-03T11:15:46Z</time>
      </trkpt>
      <trkpt lat="43.56988" lon="5.30185">
        <ele>276.68420410156</ele>
        <time>2021-11-03T11:15:54Z</time>
      </trkpt>
      <trkpt lat="43.56992" lon="5.30175">
        <ele>275.53796386719</ele>
        <time>2021-11-03T11:16:01Z</time>
      </trkpt>
      <trkpt lat="43.56995" lon="5.30165">
        <ele>275.60876464844</ele>
        <time>2021-11-03T11:16:09Z</time>
      </trkpt>
      <trkpt lat="43.56998" lon="5.30154">
        <ele>275.36865234375</ele>
        <time>2021-11-03T11:16:17Z</time>
      </trkpt>
      <trkpt lat="43.57002" lon="5.30144">
        <ele>276.08081054688</ele>
        <time>2021-11-03T11:16:24Z</time>
      </trkpt>
      <trkpt lat="43.57006" lon="5.30134">
        <ele>276.46618652344</ele>
        <time>2021-11-03T11:16:33Z</time>
      </trkpt>
      <trkpt lat="43.5701" lon="5.30123">
        <ele>277.64306640625</ele>
        <time>2021-11-03T11:16:41Z</time>
      </trkpt>
      <trkpt lat="43.57014" lon="5.30113">
        <ele>276.98663330078</ele>
        <time>2021-11-03T11:16:49Z</time>
      </trkpt>
      <trkpt lat="43.57019" lon="5.30104">
        <ele>277.66198730469</ele>
        <time>2021-11-03T11:16:58Z</time>
      </trkpt>
      <trkpt lat="43.57022" lon="5.30094">
        <ele>277.93280029297</ele>
        <time>2021-11-03T11:17:06Z</time>
      </trkpt>
      <trkpt lat="43.57025" lon="5.30083">
        <ele>277.69458007812</ele>
        <time>2021-11-03T11:17:13Z</time>
      </trkpt>
      <trkpt lat="43.57029" lon="5.30073">
        <ele>279.06005859375</ele>
        <time>2021-11-03T11:17:21Z</time>
      </trkpt>
      <trkpt lat="43.57033" lon="5.30063">
        <ele>278.59197998047</ele>
        <time>2021-11-03T11:17:29Z</time>
      </trkpt>
      <trkpt lat="43.57037" lon="5.30054">
        <ele>279.42456054688</ele>
        <time>2021-11-03T11:17:37Z</time>
      </trkpt>
      <trkpt lat="43.57044" lon="5.30046">
        <ele>279.65649414062</ele>
        <time>2021-11-03T11:17:46Z</time>
      </trkpt>
      <trkpt lat="43.5705" lon="5.30038">
        <ele>280.24591064453</ele>
        <time>2021-11-03T11:17:55Z</time>
      </trkpt>
      <trkpt lat="43.57057" lon="5.30031">
        <ele>278.80725097656</ele>
        <time>2021-11-03T11:18:04Z</time>
      </trkpt>
      <trkpt lat="43.57062" lon="5.30023">
        <ele>278.16186523438</ele>
        <time>2021-11-03T11:18:11Z</time>
      </trkpt>
      <trkpt lat="43.57066" lon="5.30012">
        <ele>279.03137207031</ele>
        <time>2021-11-03T11:18:18Z</time>
      </trkpt>
      <trkpt lat="43.57069" lon="5.30001">
        <ele>277.45208740234</ele>
        <time>2021-11-03T11:18:25Z</time>
      </trkpt>
      <trkpt lat="43.57074" lon="5.29992">
        <ele>277.45556640625</ele>
        <time>2021-11-03T11:18:33Z</time>
      </trkpt>
      <trkpt lat="43.57081" lon="5.29984">
        <ele>278.40966796875</ele>
        <time>2021-11-03T11:18:41Z</time>
      </trkpt>
      <trkpt lat="43.57087" lon="5.29977">
        <ele>277.93420410156</ele>
        <time>2021-11-03T11:18:49Z</time>
      </trkpt>
      <trkpt lat="43.57093" lon="5.29968">
        <ele>278.15563964844</ele>
        <time>2021-11-03T11:18:57Z</time>
      </trkpt>
      <trkpt lat="43.57095" lon="5.29957">
        <ele>278.53076171875</ele>
        <time>2021-11-03T11:19:05Z</time>
      </trkpt>
      <trkpt lat="43.571" lon="5.29947">
        <ele>276.17895507812</ele>
        <time>2021-11-03T11:19:13Z</time>
      </trkpt>
      <trkpt lat="43.57107" lon="5.29941">
        <ele>276.88916015625</ele>
        <time>2021-11-03T11:19:22Z</time>
      </trkpt>
      <trkpt lat="43.57116" lon="5.29942">
        <ele>277.8779296875</ele>
        <time>2021-11-03T11:19:32Z</time>
      </trkpt>
      <trkpt lat="43.57124" lon="5.29948">
        <ele>278.63366699219</ele>
        <time>2021-11-03T11:19:46Z</time>
      </trkpt>
      <trkpt lat="43.57132" lon="5.29948">
        <ele>281.65441894531</ele>
        <time>2021-11-03T11:19:58Z</time>
      </trkpt>
      <trkpt lat="43.57141" lon="5.29945">
        <ele>279.22857666016</ele>
        <time>2021-11-03T11:20:07Z</time>
      </trkpt>
      <trkpt lat="43.57149" lon="5.29947">
        <ele>279.37524414062</ele>
        <time>2021-11-03T11:20:17Z</time>
      </trkpt>
      <trkpt lat="43.57157" lon="5.29942">
        <ele>278.85913085938</ele>
        <time>2021-11-03T11:20:27Z</time>
      </trkpt>
      <trkpt lat="43.57165" lon="5.29944">
        <ele>279.98480224609</ele>
        <time>2021-11-03T11:20:36Z</time>
      </trkpt>
      <trkpt lat="43.57173" lon="5.29948">
        <ele>281.67102050781</ele>
        <time>2021-11-03T11:20:45Z</time>
      </trkpt>
      <trkpt lat="43.57181" lon="5.29953">
        <ele>282.7236328125</ele>
        <time>2021-11-03T11:20:53Z</time>
      </trkpt>
      <trkpt lat="43.57189" lon="5.29957">
        <ele>282.5068359375</ele>
        <time>2021-11-03T11:21:01Z</time>
      </trkpt>
      <trkpt lat="43.57197" lon="5.29962">
        <ele>282.35797119141</ele>
        <time>2021-11-03T11:21:09Z</time>
      </trkpt>
      <trkpt lat="43.57204" lon="5.29968">
        <ele>281.96313476562</ele>
        <time>2021-11-03T11:21:17Z</time>
      </trkpt>
      <trkpt lat="43.57212" lon="5.29973">
        <ele>282.05639648438</ele>
        <time>2021-11-03T11:21:25Z</time>
      </trkpt>
      <trkpt lat="43.57219" lon="5.29979">
        <ele>282.32043457031</ele>
        <time>2021-11-03T11:21:32Z</time>
      </trkpt>
      <trkpt lat="43.57226" lon="5.29982">
        <ele>280.76135253906</ele>
        <time>2021-11-03T11:21:38Z</time>
      </trkpt>
      <trkpt lat="43.57234" lon="5.29986">
        <ele>278.99377441406</ele>
        <time>2021-11-03T11:21:44Z</time>
      </trkpt>
      <trkpt lat="43.57242" lon="5.29991">
        <ele>279.08941650391</ele>
        <time>2021-11-03T11:21:53Z</time>
      </trkpt>
      <trkpt lat="43.57248" lon="5.29999">
        <ele>281.81756591797</ele>
        <time>2021-11-03T11:23:32Z</time>
      </trkpt>
      <trkpt lat="43.57255" lon="5.30007">
        <ele>282.79113769531</ele>
        <time>2021-11-03T11:23:42Z</time>
      </trkpt>
      <trkpt lat="43.57262" lon="5.30014">
        <ele>280.84094238281</ele>
        <time>2021-11-03T11:23:52Z</time>
      </trkpt>
      <trkpt lat="43.5727" lon="5.30017">
        <ele>278.79217529297</ele>
        <time>2021-11-03T11:24:00Z</time>
      </trkpt>
      <trkpt lat="43.57278" lon="5.30022">
        <ele>278.78747558594</ele>
        <time>2021-11-03T11:24:08Z</time>
      </trkpt>
      <trkpt lat="43.57286" lon="5.30026">
        <ele>279.61804199219</ele>
        <time>2021-11-03T11:24:17Z</time>
      </trkpt>
      <trkpt lat="43.57294" lon="5.30028">
        <ele>276.44232177734</ele>
        <time>2021-11-03T11:24:24Z</time>
      </trkpt>
      <trkpt lat="43.57301" lon="5.30033">
        <ele>276.84020996094</ele>
        <time>2021-11-03T11:24:31Z</time>
      </trkpt>
      <trkpt lat="43.57309" lon="5.30038">
        <ele>278.06433105469</ele>
        <time>2021-11-03T11:24:39Z</time>
      </trkpt>
      <trkpt lat="43.57316" lon="5.30043">
        <ele>277.28698730469</ele>
        <time>2021-11-03T11:24:47Z</time>
      </trkpt>
      <trkpt lat="43.57325" lon="5.30048">
        <ele>276.78088378906</ele>
        <time>2021-11-03T11:24:55Z</time>
      </trkpt>
      <trkpt lat="43.57333" lon="5.3005">
        <ele>276.28198242188</ele>
        <time>2021-11-03T11:25:03Z</time>
      </trkpt>
      <trkpt lat="43.57341" lon="5.30055">
        <ele>277.140625</ele>
        <time>2021-11-03T11:25:11Z</time>
      </trkpt>
      <trkpt lat="43.57349" lon="5.30059">
        <ele>277.45654296875</ele>
        <time>2021-11-03T11:25:19Z</time>
      </trkpt>
      <trkpt lat="43.57357" lon="5.30062">
        <ele>279.47436523438</ele>
        <time>2021-11-03T11:25:26Z</time>
      </trkpt>
      <trkpt lat="43.57364" lon="5.30067">
        <ele>280.07629394531</ele>
        <time>2021-11-03T11:25:34Z</time>
      </trkpt>
      <trkpt lat="43.57371" lon="5.30073">
        <ele>279.51843261719</ele>
        <time>2021-11-03T11:25:41Z</time>
      </trkpt>
      <trkpt lat="43.5738" lon="5.30077">
        <ele>278.40734863281</ele>
        <time>2021-11-03T11:25:50Z</time>
      </trkpt>
      <trkpt lat="43.57388" lon="5.30076">
        <ele>277.38488769531</ele>
        <time>2021-11-03T11:26:00Z</time>
      </trkpt>
      <trkpt lat="43.57395" lon="5.30085">
        <ele>277.51184082031</ele>
        <time>2021-11-03T11:26:20Z</time>
      </trkpt>
      <trkpt lat="43.57403" lon="5.30089">
        <ele>276.33337402344</ele>
        <time>2021-11-03T11:26:29Z</time>
      </trkpt>
      <trkpt lat="43.5741" lon="5.30095">
        <ele>275.56005859375</ele>
        <time>2021-11-03T11:26:38Z</time>
      </trkpt>
      <trkpt lat="43.57418" lon="5.30099">
        <ele>275.09912109375</ele>
        <time>2021-11-03T11:26:46Z</time>
      </trkpt>
      <trkpt lat="43.57426" lon="5.30103">
        <ele>274.66259765625</ele>
        <time>2021-11-03T11:26:54Z</time>
      </trkpt>
      <trkpt lat="43.57435" lon="5.30108">
        <ele>274.29248046875</ele>
        <time>2021-11-03T11:27:02Z</time>
      </trkpt>
      <trkpt lat="43.57442" lon="5.30113">
        <ele>275.1171875</ele>
        <time>2021-11-03T11:27:11Z</time>
      </trkpt>
      <trkpt lat="43.57451" lon="5.30117">
        <ele>274.97875976562</ele>
        <time>2021-11-03T11:27:19Z</time>
      </trkpt>
      <trkpt lat="43.57458" lon="5.30122">
        <ele>273.01721191406</ele>
        <time>2021-11-03T11:27:26Z</time>
      </trkpt>
      <trkpt lat="43.57466" lon="5.30128">
        <ele>273.16943359375</ele>
        <time>2021-11-03T11:27:34Z</time>
      </trkpt>
      <trkpt lat="43.57474" lon="5.3013">
        <ele>271.13073730469</ele>
        <time>2021-11-03T11:27:41Z</time>
      </trkpt>
      <trkpt lat="43.57482" lon="5.30135">
        <ele>272.79748535156</ele>
        <time>2021-11-03T11:27:49Z</time>
      </trkpt>
      <trkpt lat="43.5749" lon="5.30139">
        <ele>271.51831054688</ele>
        <time>2021-11-03T11:27:57Z</time>
      </trkpt>
      <trkpt lat="43.57498" lon="5.30145">
        <ele>270.82934570312</ele>
        <time>2021-11-03T11:28:05Z</time>
      </trkpt>
      <trkpt lat="43.57505" lon="5.3015">
        <ele>272.02728271484</ele>
        <time>2021-11-03T11:28:13Z</time>
      </trkpt>
      <trkpt lat="43.57513" lon="5.30155">
        <ele>271.953125</ele>
        <time>2021-11-03T11:28:21Z</time>
      </trkpt>
      <trkpt lat="43.57521" lon="5.30158">
        <ele>271.21600341797</ele>
        <time>2021-11-03T11:28:28Z</time>
      </trkpt>
      <trkpt lat="43.5753" lon="5.30161">
        <ele>270.09271240234</ele>
        <time>2021-11-03T11:28:36Z</time>
      </trkpt>
      <trkpt lat="43.57537" lon="5.30166">
        <ele>270.31762695312</ele>
        <time>2021-11-03T11:28:47Z</time>
      </trkpt>
      <trkpt lat="43.57544" lon="5.30173">
        <ele>272.13018798828</ele>
        <time>2021-11-03T11:28:57Z</time>
      </trkpt>
      <trkpt lat="43.57552" lon="5.30178">
        <ele>272.82971191406</ele>
        <time>2021-11-03T11:29:05Z</time>
      </trkpt>
      <trkpt lat="43.5756" lon="5.30183">
        <ele>272.59106445312</ele>
        <time>2021-11-03T11:29:13Z</time>
      </trkpt>
      <trkpt lat="43.57567" lon="5.3019">
        <ele>272.85461425781</ele>
        <time>2021-11-03T11:29:21Z</time>
      </trkpt>
      <trkpt lat="43.57575" lon="5.30194">
        <ele>269.49047851562</ele>
        <time>2021-11-03T11:29:29Z</time>
      </trkpt>
      <trkpt lat="43.57583" lon="5.30197">
        <ele>269.46484375</ele>
        <time>2021-11-03T11:29:37Z</time>
      </trkpt>
      <trkpt lat="43.5759" lon="5.30202">
        <ele>270.462890625</ele>
        <time>2021-11-03T11:29:45Z</time>
      </trkpt>
      <trkpt lat="43.57598" lon="5.30207">
        <ele>271.67077636719</ele>
        <time>2021-11-03T11:29:53Z</time>
      </trkpt>
      <trkpt lat="43.57606" lon="5.30212">
        <ele>271.80065917969</ele>
        <time>2021-11-03T11:30:01Z</time>
      </trkpt>
      <trkpt lat="43.57613" lon="5.30218">
        <ele>271.81689453125</ele>
        <time>2021-11-03T11:30:09Z</time>
      </trkpt>
      <trkpt lat="43.57621" lon="5.30223">
        <ele>272.6640625</ele>
        <time>2021-11-03T11:30:17Z</time>
      </trkpt>
      <trkpt lat="43.57628" lon="5.30227">
        <ele>272.66320800781</ele>
        <time>2021-11-03T11:30:24Z</time>
      </trkpt>
      <trkpt lat="43.57636" lon="5.30231">
        <ele>274.25445556641</ele>
        <time>2021-11-03T11:30:32Z</time>
      </trkpt>
      <trkpt lat="43.57645" lon="5.30236">
        <ele>274.20947265625</ele>
        <time>2021-11-03T11:30:40Z</time>
      </trkpt>
      <trkpt lat="43.57652" lon="5.30242">
        <ele>274.68103027344</ele>
        <time>2021-11-03T11:30:48Z</time>
      </trkpt>
      <trkpt lat="43.5766" lon="5.30246">
        <ele>272.15814208984</ele>
        <time>2021-11-03T11:30:56Z</time>
      </trkpt>
      <trkpt lat="43.57666" lon="5.30253">
        <ele>272.48168945312</ele>
        <time>2021-11-03T11:31:04Z</time>
      </trkpt>
      <trkpt lat="43.57673" lon="5.3026">
        <ele>271.31915283203</ele>
        <time>2021-11-03T11:31:11Z</time>
      </trkpt>
      <trkpt lat="43.5768" lon="5.30265">
        <ele>270.97491455078</ele>
        <time>2021-11-03T11:31:18Z</time>
      </trkpt>
      <trkpt lat="43.57688" lon="5.3027">
        <ele>270.71142578125</ele>
        <time>2021-11-03T11:31:25Z</time>
      </trkpt>
      <trkpt lat="43.57695" lon="5.30272">
        <ele>272.46801757812</ele>
        <time>2021-11-03T11:31:32Z</time>
      </trkpt>
      <trkpt lat="43.57704" lon="5.30275">
        <ele>273.37548828125</ele>
        <time>2021-11-03T11:31:40Z</time>
      </trkpt>
      <trkpt lat="43.57712" lon="5.30279">
        <ele>274.64959716797</ele>
        <time>2021-11-03T11:31:47Z</time>
      </trkpt>
      <trkpt lat="43.5772" lon="5.30283">
        <ele>275.92041015625</ele>
        <time>2021-11-03T11:31:55Z</time>
      </trkpt>
      <trkpt lat="43.57728" lon="5.30287">
        <ele>274.17614746094</ele>
        <time>2021-11-03T11:32:03Z</time>
      </trkpt>
      <trkpt lat="43.57736" lon="5.30291">
        <ele>275.18115234375</ele>
        <time>2021-11-03T11:32:12Z</time>
      </trkpt>
      <trkpt lat="43.57744" lon="5.30296">
        <ele>275.49176025391</ele>
        <time>2021-11-03T11:32:22Z</time>
      </trkpt>
      <trkpt lat="43.57752" lon="5.30303">
        <ele>277.93939208984</ele>
        <time>2021-11-03T11:32:34Z</time>
      </trkpt>
      <trkpt lat="43.5776" lon="5.30306">
        <ele>275.67028808594</ele>
        <time>2021-11-03T11:32:46Z</time>
      </trkpt>
      <trkpt lat="43.57768" lon="5.30312">
        <ele>277.80230712891</ele>
        <time>2021-11-03T11:33:02Z</time>
      </trkpt>
      <trkpt lat="43.57775" lon="5.30318">
        <ele>277.44720458984</ele>
        <time>2021-11-03T11:33:14Z</time>
      </trkpt>
      <trkpt lat="43.57784" lon="5.3032">
        <ele>278.04089355469</ele>
        <time>2021-11-03T11:33:28Z</time>
      </trkpt>
      <trkpt lat="43.57791" lon="5.30326">
        <ele>280.79992675781</ele>
        <time>2021-11-03T11:33:39Z</time>
      </trkpt>
      <trkpt lat="43.57799" lon="5.30332">
        <ele>284.10375976562</ele>
        <time>2021-11-03T11:33:48Z</time>
      </trkpt>
      <trkpt lat="43.57806" lon="5.30336">
        <ele>284.56652832031</ele>
        <time>2021-11-03T11:33:57Z</time>
      </trkpt>
      <trkpt lat="43.57813" lon="5.3034">
        <ele>287.13439941406</ele>
        <time>2021-11-03T11:34:05Z</time>
      </trkpt>
      <trkpt lat="43.57821" lon="5.30346">
        <ele>287.72888183594</ele>
        <time>2021-11-03T11:34:13Z</time>
      </trkpt>
      <trkpt lat="43.57829" lon="5.3035">
        <ele>289.09265136719</ele>
        <time>2021-11-03T11:34:22Z</time>
      </trkpt>
      <trkpt lat="43.57836" lon="5.30354">
        <ele>287.18475341797</ele>
        <time>2021-11-03T11:34:30Z</time>
      </trkpt>
      <trkpt lat="43.57844" lon="5.30359">
        <ele>287.13549804688</ele>
        <time>2021-11-03T11:34:38Z</time>
      </trkpt>
      <trkpt lat="43.5785" lon="5.30366">
        <ele>288.1767578125</ele>
        <time>2021-11-03T11:34:46Z</time>
      </trkpt>
      <trkpt lat="43.57855" lon="5.30375">
        <ele>286.01098632812</ele>
        <time>2021-11-03T11:34:56Z</time>
      </trkpt>
      <trkpt lat="43.5786" lon="5.30385">
        <ele>284.60327148438</ele>
        <time>2021-11-03T11:35:08Z</time>
      </trkpt>
      <trkpt lat="43.5786" lon="5.30396">
        <ele>282.62805175781</ele>
        <time>2021-11-03T11:35:23Z</time>
      </trkpt>
      <trkpt lat="43.57858" lon="5.30407">
        <ele>284.59417724609</ele>
        <time>2021-11-03T11:35:32Z</time>
      </trkpt>
      <trkpt lat="43.57856" lon="5.30418">
        <ele>284.06927490234</ele>
        <time>2021-11-03T11:35:40Z</time>
      </trkpt>
      <trkpt lat="43.57854" lon="5.30429">
        <ele>283.86578369141</ele>
        <time>2021-11-03T11:35:49Z</time>
      </trkpt>
      <trkpt lat="43.57853" lon="5.3044">
        <ele>285.89111328125</ele>
        <time>2021-11-03T11:35:58Z</time>
      </trkpt>
      <trkpt lat="43.57851" lon="5.30451">
        <ele>285.19323730469</ele>
        <time>2021-11-03T11:36:06Z</time>
      </trkpt>
      <trkpt lat="43.57849" lon="5.30463">
        <ele>286.34674072266</ele>
        <time>2021-11-03T11:36:15Z</time>
      </trkpt>
      <trkpt lat="43.57849" lon="5.30475">
        <ele>287.01953125</ele>
        <time>2021-11-03T11:36:24Z</time>
      </trkpt>
      <trkpt lat="43.57852" lon="5.30487">
        <ele>289.08508300781</ele>
        <time>2021-11-03T11:36:32Z</time>
      </trkpt>
      <trkpt lat="43.57851" lon="5.30498">
        <ele>288.45092773438</ele>
        <time>2021-11-03T11:36:40Z</time>
      </trkpt>
      <trkpt lat="43.5785" lon="5.30511">
        <ele>288.27203369141</ele>
        <time>2021-11-03T11:36:49Z</time>
      </trkpt>
      <trkpt lat="43.57851" lon="5.30523">
        <ele>288.8388671875</ele>
        <time>2021-11-03T11:36:57Z</time>
      </trkpt>
      <trkpt lat="43.57849" lon="5.30534">
        <ele>287.73828125</ele>
        <time>2021-11-03T11:37:05Z</time>
      </trkpt>
      <trkpt lat="43.57848" lon="5.30546">
        <ele>288.38464355469</ele>
        <time>2021-11-03T11:37:13Z</time>
      </trkpt>
      <trkpt lat="43.57845" lon="5.30558">
        <ele>286.52795410156</ele>
        <time>2021-11-03T11:37:21Z</time>
      </trkpt>
      <trkpt lat="43.57842" lon="5.30568">
        <ele>286.90295410156</ele>
        <time>2021-11-03T11:37:29Z</time>
      </trkpt>
      <trkpt lat="43.57839" lon="5.30579">
        <ele>284.98364257812</ele>
        <time>2021-11-03T11:37:38Z</time>
      </trkpt>
      <trkpt lat="43.5784" lon="5.3059">
        <ele>286.73315429688</ele>
        <time>2021-11-03T11:37:46Z</time>
      </trkpt>
      <trkpt lat="43.57839" lon="5.30601">
        <ele>286.50372314453</ele>
        <time>2021-11-03T11:37:54Z</time>
      </trkpt>
      <trkpt lat="43.5784" lon="5.30613">
        <ele>286.55993652344</ele>
        <time>2021-11-03T11:38:02Z</time>
      </trkpt>
      <trkpt lat="43.57838" lon="5.30625">
        <ele>284.53936767578</ele>
        <time>2021-11-03T11:38:12Z</time>
      </trkpt>
      <trkpt lat="43.57837" lon="5.30636">
        <ele>284.97399902344</ele>
        <time>2021-11-03T11:38:21Z</time>
      </trkpt>
      <trkpt lat="43.57838" lon="5.30648">
        <ele>284.38208007812</ele>
        <time>2021-11-03T11:38:29Z</time>
      </trkpt>
      <trkpt lat="43.57835" lon="5.30658">
        <ele>285.52563476562</ele>
        <time>2021-11-03T11:38:38Z</time>
      </trkpt>
      <trkpt lat="43.57831" lon="5.3067">
        <ele>285.44384765625</ele>
        <time>2021-11-03T11:38:47Z</time>
      </trkpt>
      <trkpt lat="43.57829" lon="5.3068">
        <ele>287.46484375</ele>
        <time>2021-11-03T11:38:55Z</time>
      </trkpt>
      <trkpt lat="43.57825" lon="5.30691">
        <ele>287.70251464844</ele>
        <time>2021-11-03T11:39:03Z</time>
      </trkpt>
      <trkpt lat="43.5782" lon="5.30701">
        <ele>286.30432128906</ele>
        <time>2021-11-03T11:39:12Z</time>
      </trkpt>
      <trkpt lat="43.57816" lon="5.30711">
        <ele>286.29345703125</ele>
        <time>2021-11-03T11:39:23Z</time>
      </trkpt>
      <trkpt lat="43.57809" lon="5.30704">
        <ele>284.21929931641</ele>
        <time>2021-11-03T11:39:55Z</time>
      </trkpt>
      <trkpt lat="43.57806" lon="5.30692">
        <ele>283.29742431641</ele>
        <time>2021-11-03T11:40:07Z</time>
      </trkpt>
      <trkpt lat="43.57808" lon="5.3068">
        <ele>284.25079345703</ele>
        <time>2021-11-03T11:40:18Z</time>
      </trkpt>
      <trkpt lat="43.57814" lon="5.30675">
        <ele>286.21435546875</ele>
        <time>2021-11-03T11:40:39Z</time>
      </trkpt>
      <trkpt lat="43.57814" lon="5.30663">
        <ele>287.81066894531</ele>
        <time>2021-11-03T12:00:32Z</time>
      </trkpt>
      <trkpt lat="43.57815" lon="5.30675">
        <ele>288.45397949219</ele>
        <time>2021-11-03T12:01:18Z</time>
      </trkpt>
      <trkpt lat="43.57813" lon="5.30664">
        <ele>288.34448242188</ele>
        <time>2021-11-03T12:02:22Z</time>
      </trkpt>
      <trkpt lat="43.57813" lon="5.30675">
        <ele>288.6728515625</ele>
        <time>2021-11-03T12:03:13Z</time>
      </trkpt>
      <trkpt lat="43.57811" lon="5.30687">
        <ele>287.96636962891</ele>
        <time>2021-11-03T12:03:21Z</time>
      </trkpt>
      <trkpt lat="43.57811" lon="5.30699">
        <ele>287.009765625</ele>
        <time>2021-11-03T12:03:43Z</time>
      </trkpt>
      <trkpt lat="43.5781" lon="5.30711">
        <ele>286.81860351562</ele>
        <time>2021-11-03T12:05:03Z</time>
      </trkpt>
      <trkpt lat="43.57806" lon="5.30722">
        <ele>284.99609375</ele>
        <time>2021-11-03T12:06:36Z</time>
      </trkpt>
      <trkpt lat="43.57809" lon="5.30711">
        <ele>287.73266601562</ele>
        <time>2021-11-03T12:07:27Z</time>
      </trkpt>
      <trkpt lat="43.57813" lon="5.307">
        <ele>289.15600585938</ele>
        <time>2021-11-03T12:08:05Z</time>
      </trkpt>
      <trkpt lat="43.57816" lon="5.30689">
        <ele>290.23852539062</ele>
        <time>2021-11-03T12:08:12Z</time>
      </trkpt>
      <trkpt lat="43.57817" lon="5.30678">
        <ele>290.43707275391</ele>
        <time>2021-11-03T12:08:21Z</time>
      </trkpt>
      <trkpt lat="43.57809" lon="5.30672">
        <ele>285.50512695312</ele>
        <time>2021-11-03T12:11:26Z</time>
      </trkpt>
      <trkpt lat="43.57808" lon="5.30684">
        <ele>284.64392089844</ele>
        <time>2021-11-03T12:13:45Z</time>
      </trkpt>
      <trkpt lat="43.5781" lon="5.30695">
        <ele>282.693359375</ele>
        <time>2021-11-03T12:13:53Z</time>
      </trkpt>
      <trkpt lat="43.57807" lon="5.30707">
        <ele>280.20953369141</ele>
        <time>2021-11-03T12:14:05Z</time>
      </trkpt>
      <trkpt lat="43.57813" lon="5.30717">
        <ele>285.38403320312</ele>
        <time>2021-11-03T12:21:33Z</time>
      </trkpt>
      <trkpt lat="43.57813" lon="5.30729">
        <ele>285.38433837891</ele>
        <time>2021-11-03T12:21:48Z</time>
      </trkpt>
      <trkpt lat="43.57811" lon="5.3074">
        <ele>284.94519042969</ele>
        <time>2021-11-03T12:22:00Z</time>
      </trkpt>
      <trkpt lat="43.57808" lon="5.30752">
        <ele>285.30126953125</ele>
        <time>2021-11-03T12:22:11Z</time>
      </trkpt>
      <trkpt lat="43.57805" lon="5.30763">
        <ele>286.31420898438</ele>
        <time>2021-11-03T12:22:22Z</time>
      </trkpt>
      <trkpt lat="43.57802" lon="5.30774">
        <ele>286.37866210938</ele>
        <time>2021-11-03T12:22:32Z</time>
      </trkpt>
      <trkpt lat="43.57797" lon="5.30785">
        <ele>286.19445800781</ele>
        <time>2021-11-03T12:22:41Z</time>
      </trkpt>
      <trkpt lat="43.57792" lon="5.30793">
        <ele>284.7431640625</ele>
        <time>2021-11-03T12:22:49Z</time>
      </trkpt>
      <trkpt lat="43.57786" lon="5.30799">
        <ele>284.85144042969</ele>
        <time>2021-11-03T12:22:57Z</time>
      </trkpt>
      <trkpt lat="43.57778" lon="5.30806">
        <ele>283.97021484375</ele>
        <time>2021-11-03T12:23:05Z</time>
      </trkpt>
      <trkpt lat="43.57771" lon="5.3081">
        <ele>284.47009277344</ele>
        <time>2021-11-03T12:23:13Z</time>
      </trkpt>
      <trkpt lat="43.57763" lon="5.30815">
        <ele>283.33239746094</ele>
        <time>2021-11-03T12:23:21Z</time>
      </trkpt>
      <trkpt lat="43.57756" lon="5.3082">
        <ele>282.60302734375</ele>
        <time>2021-11-03T12:23:28Z</time>
      </trkpt>
      <trkpt lat="43.57749" lon="5.30827">
        <ele>282.46557617188</ele>
        <time>2021-11-03T12:23:36Z</time>
      </trkpt>
      <trkpt lat="43.57743" lon="5.30835">
        <ele>280.85705566406</ele>
        <time>2021-11-03T12:23:43Z</time>
      </trkpt>
      <trkpt lat="43.57736" lon="5.30843">
        <ele>280.11767578125</ele>
        <time>2021-11-03T12:23:50Z</time>
      </trkpt>
      <trkpt lat="43.5773" lon="5.30852">
        <ele>280.96032714844</ele>
        <time>2021-11-03T12:23:58Z</time>
      </trkpt>
      <trkpt lat="43.57723" lon="5.3086">
        <ele>280.87548828125</ele>
        <time>2021-11-03T12:24:06Z</time>
      </trkpt>
      <trkpt lat="43.57718" lon="5.30868">
        <ele>282.4736328125</ele>
        <time>2021-11-03T12:24:13Z</time>
      </trkpt>
      <trkpt lat="43.57712" lon="5.30876">
        <ele>281.98059082031</ele>
        <time>2021-11-03T12:24:20Z</time>
      </trkpt>
      <trkpt lat="43.57707" lon="5.30886">
        <ele>282.66711425781</ele>
        <time>2021-11-03T12:24:28Z</time>
      </trkpt>
      <trkpt lat="43.57703" lon="5.30897">
        <ele>283.56713867188</ele>
        <time>2021-11-03T12:24:37Z</time>
      </trkpt>
      <trkpt lat="43.57698" lon="5.30906">
        <ele>284.40496826172</ele>
        <time>2021-11-03T12:24:47Z</time>
      </trkpt>
      <trkpt lat="43.57693" lon="5.30915">
        <ele>285.68878173828</ele>
        <time>2021-11-03T12:24:58Z</time>
      </trkpt>
      <trkpt lat="43.57688" lon="5.30926">
        <ele>284.72180175781</ele>
        <time>2021-11-03T12:25:09Z</time>
      </trkpt>
      <trkpt lat="43.57685" lon="5.30937">
        <ele>284.32916259766</ele>
        <time>2021-11-03T12:25:18Z</time>
      </trkpt>
      <trkpt lat="43.5768" lon="5.30945">
        <ele>284.66741943359</ele>
        <time>2021-11-03T12:25:27Z</time>
      </trkpt>
      <trkpt lat="43.57677" lon="5.30957">
        <ele>284.533203125</ele>
        <time>2021-11-03T12:25:37Z</time>
      </trkpt>
      <trkpt lat="43.57678" lon="5.30969">
        <ele>286.13330078125</ele>
        <time>2021-11-03T12:25:46Z</time>
      </trkpt>
      <trkpt lat="43.57679" lon="5.30981">
        <ele>284.74536132812</ele>
        <time>2021-11-03T12:25:56Z</time>
      </trkpt>
      <trkpt lat="43.57681" lon="5.30992">
        <ele>285.76568603516</ele>
        <time>2021-11-03T12:26:06Z</time>
      </trkpt>
      <trkpt lat="43.57681" lon="5.31004">
        <ele>288.32702636719</ele>
        <time>2021-11-03T12:26:17Z</time>
      </trkpt>
      <trkpt lat="43.57682" lon="5.31016">
        <ele>288.5849609375</ele>
        <time>2021-11-03T12:26:26Z</time>
      </trkpt>
      <trkpt lat="43.57681" lon="5.31028">
        <ele>289.15362548828</ele>
        <time>2021-11-03T12:26:35Z</time>
      </trkpt>
      <trkpt lat="43.57677" lon="5.31038">
        <ele>288.55407714844</ele>
        <time>2021-11-03T12:26:43Z</time>
      </trkpt>
      <trkpt lat="43.57673" lon="5.31047">
        <ele>288.56677246094</ele>
        <time>2021-11-03T12:26:51Z</time>
      </trkpt>
      <trkpt lat="43.57669" lon="5.31058">
        <ele>287.69091796875</ele>
        <time>2021-11-03T12:26:59Z</time>
      </trkpt>
      <trkpt lat="43.57665" lon="5.31069">
        <ele>286.24151611328</ele>
        <time>2021-11-03T12:27:07Z</time>
      </trkpt>
      <trkpt lat="43.57662" lon="5.31079">
        <ele>286.50152587891</ele>
        <time>2021-11-03T12:27:14Z</time>
      </trkpt>
      <trkpt lat="43.57659" lon="5.3109">
        <ele>287.1728515625</ele>
        <time>2021-11-03T12:27:22Z</time>
      </trkpt>
      <trkpt lat="43.57657" lon="5.31102">
        <ele>289.61364746094</ele>
        <time>2021-11-03T12:27:31Z</time>
      </trkpt>
      <trkpt lat="43.57651" lon="5.31111">
        <ele>288.4296875</ele>
        <time>2021-11-03T12:27:44Z</time>
      </trkpt>
      <trkpt lat="43.5765" lon="5.31121">
        <ele>287.93627929688</ele>
        <time>2021-11-03T12:27:52Z</time>
      </trkpt>
      <trkpt lat="43.57648" lon="5.31132">
        <ele>287.10339355469</ele>
        <time>2021-11-03T12:28:00Z</time>
      </trkpt>
      <trkpt lat="43.57647" lon="5.31143">
        <ele>286.19763183594</ele>
        <time>2021-11-03T12:28:07Z</time>
      </trkpt>
      <trkpt lat="43.57644" lon="5.31153">
        <ele>286.47857666016</ele>
        <time>2021-11-03T12:28:14Z</time>
      </trkpt>
      <trkpt lat="43.57639" lon="5.31162">
        <ele>286.65173339844</ele>
        <time>2021-11-03T12:28:22Z</time>
      </trkpt>
      <trkpt lat="43.57635" lon="5.31172">
        <ele>287.42834472656</ele>
        <time>2021-11-03T12:28:30Z</time>
      </trkpt>
      <trkpt lat="43.57631" lon="5.31182">
        <ele>287.86486816406</ele>
        <time>2021-11-03T12:28:38Z</time>
      </trkpt>
      <trkpt lat="43.57628" lon="5.31193">
        <ele>287.8623046875</ele>
        <time>2021-11-03T12:28:47Z</time>
      </trkpt>
      <trkpt lat="43.57625" lon="5.31204">
        <ele>288.23168945312</ele>
        <time>2021-11-03T12:29:01Z</time>
      </trkpt>
      <trkpt lat="43.57625" lon="5.31217">
        <ele>286.43444824219</ele>
        <time>2021-11-03T12:29:12Z</time>
      </trkpt>
      <trkpt lat="43.57625" lon="5.31229">
        <ele>283.60278320312</ele>
        <time>2021-11-03T12:29:37Z</time>
      </trkpt>
      <trkpt lat="43.5762" lon="5.31238">
        <ele>286.29333496094</ele>
        <time>2021-11-03T12:29:46Z</time>
      </trkpt>
      <trkpt lat="43.57615" lon="5.31247">
        <ele>286.71484375</ele>
        <time>2021-11-03T12:29:54Z</time>
      </trkpt>
      <trkpt lat="43.5761" lon="5.31256">
        <ele>287.80139160156</ele>
        <time>2021-11-03T12:30:02Z</time>
      </trkpt>
      <trkpt lat="43.57605" lon="5.31265">
        <ele>288.31329345703</ele>
        <time>2021-11-03T12:30:10Z</time>
      </trkpt>
      <trkpt lat="43.57601" lon="5.31276">
        <ele>290.22491455078</ele>
        <time>2021-11-03T12:30:18Z</time>
      </trkpt>
      <trkpt lat="43.576" lon="5.31287">
        <ele>289.11279296875</ele>
        <time>2021-11-03T12:30:26Z</time>
      </trkpt>
      <trkpt lat="43.57598" lon="5.31299">
        <ele>291.26281738281</ele>
        <time>2021-11-03T12:30:35Z</time>
      </trkpt>
      <trkpt lat="43.57598" lon="5.3131">
        <ele>291.17993164062</ele>
        <time>2021-11-03T12:30:43Z</time>
      </trkpt>
      <trkpt lat="43.57595" lon="5.31321">
        <ele>291.45574951172</ele>
        <time>2021-11-03T12:30:50Z</time>
      </trkpt>
      <trkpt lat="43.57594" lon="5.31332">
        <ele>291.06732177734</ele>
        <time>2021-11-03T12:30:57Z</time>
      </trkpt>
      <trkpt lat="43.57594" lon="5.31344">
        <ele>291.02673339844</ele>
        <time>2021-11-03T12:31:04Z</time>
      </trkpt>
      <trkpt lat="43.57593" lon="5.31355">
        <ele>290.35021972656</ele>
        <time>2021-11-03T12:31:11Z</time>
      </trkpt>
      <trkpt lat="43.57592" lon="5.31366">
        <ele>290.9375</ele>
        <time>2021-11-03T12:31:19Z</time>
      </trkpt>
      <trkpt lat="43.57591" lon="5.31377">
        <ele>290.21276855469</ele>
        <time>2021-11-03T12:31:27Z</time>
      </trkpt>
      <trkpt lat="43.57592" lon="5.31389">
        <ele>291.22912597656</ele>
        <time>2021-11-03T12:31:35Z</time>
      </trkpt>
      <trkpt lat="43.57592" lon="5.31401">
        <ele>291.45172119141</ele>
        <time>2021-11-03T12:31:43Z</time>
      </trkpt>
      <trkpt lat="43.57591" lon="5.31412">
        <ele>291.02355957031</ele>
        <time>2021-11-03T12:31:51Z</time>
      </trkpt>
      <trkpt lat="43.57588" lon="5.31423">
        <ele>290.83215332031</ele>
        <time>2021-11-03T12:32:00Z</time>
      </trkpt>
      <trkpt lat="43.57587" lon="5.31435">
        <ele>292.37670898438</ele>
        <time>2021-11-03T12:32:08Z</time>
      </trkpt>
      <trkpt lat="43.57584" lon="5.31446">
        <ele>290.24768066406</ele>
        <time>2021-11-03T12:32:18Z</time>
      </trkpt>
      <trkpt lat="43.57584" lon="5.31458">
        <ele>291.27624511719</ele>
        <time>2021-11-03T12:32:26Z</time>
      </trkpt>
      <trkpt lat="43.57583" lon="5.3147">
        <ele>292.01135253906</ele>
        <time>2021-11-03T12:32:33Z</time>
      </trkpt>
      <trkpt lat="43.5758" lon="5.31481">
        <ele>292.73663330078</ele>
        <time>2021-11-03T12:32:40Z</time>
      </trkpt>
      <trkpt lat="43.5758" lon="5.31493">
        <ele>291.08319091797</ele>
        <time>2021-11-03T12:32:47Z</time>
      </trkpt>
      <trkpt lat="43.57578" lon="5.31504">
        <ele>291.41906738281</ele>
        <time>2021-11-03T12:32:55Z</time>
      </trkpt>
      <trkpt lat="43.57577" lon="5.31516">
        <ele>291.64093017578</ele>
        <time>2021-11-03T12:33:03Z</time>
      </trkpt>
      <trkpt lat="43.57575" lon="5.31527">
        <ele>292.80480957031</ele>
        <time>2021-11-03T12:33:11Z</time>
      </trkpt>
      <trkpt lat="43.57574" lon="5.31539">
        <ele>290.82019042969</ele>
        <time>2021-11-03T12:33:19Z</time>
      </trkpt>
      <trkpt lat="43.57571" lon="5.31551">
        <ele>289.94201660156</ele>
        <time>2021-11-03T12:33:28Z</time>
      </trkpt>
      <trkpt lat="43.5757" lon="5.31562">
        <ele>291.82696533203</ele>
        <time>2021-11-03T12:33:36Z</time>
      </trkpt>
      <trkpt lat="43.57568" lon="5.31574">
        <ele>293.11193847656</ele>
        <time>2021-11-03T12:33:44Z</time>
      </trkpt>
      <trkpt lat="43.57566" lon="5.31585">
        <ele>290.83276367188</ele>
        <time>2021-11-03T12:33:52Z</time>
      </trkpt>
      <trkpt lat="43.57565" lon="5.31597">
        <ele>290.67034912109</ele>
        <time>2021-11-03T12:34:00Z</time>
      </trkpt>
      <trkpt lat="43.57563" lon="5.31608">
        <ele>292.59814453125</ele>
        <time>2021-11-03T12:34:08Z</time>
      </trkpt>
      <trkpt lat="43.57562" lon="5.3162">
        <ele>291.06011962891</ele>
        <time>2021-11-03T12:34:16Z</time>
      </trkpt>
      <trkpt lat="43.57562" lon="5.31632">
        <ele>290.57769775391</ele>
        <time>2021-11-03T12:36:28Z</time>
      </trkpt>
      <trkpt lat="43.57562" lon="5.31644">
        <ele>290.30944824219</ele>
        <time>2021-11-03T12:36:36Z</time>
      </trkpt>
      <trkpt lat="43.57561" lon="5.31655">
        <ele>289.55523681641</ele>
        <time>2021-11-03T12:36:43Z</time>
      </trkpt>
      <trkpt lat="43.5756" lon="5.31666">
        <ele>290.53387451172</ele>
        <time>2021-11-03T12:36:50Z</time>
      </trkpt>
      <trkpt lat="43.57559" lon="5.31677">
        <ele>290.45281982422</ele>
        <time>2021-11-03T12:36:58Z</time>
      </trkpt>
      <trkpt lat="43.57559" lon="5.31688">
        <ele>291.85290527344</ele>
        <time>2021-11-03T12:37:06Z</time>
      </trkpt>
      <trkpt lat="43.57557" lon="5.31699">
        <ele>292.541015625</ele>
        <time>2021-11-03T12:37:13Z</time>
      </trkpt>
      <trkpt lat="43.57556" lon="5.3171">
        <ele>292.63671875</ele>
        <time>2021-11-03T12:37:20Z</time>
      </trkpt>
      <trkpt lat="43.57556" lon="5.31722">
        <ele>291.46484375</ele>
        <time>2021-11-03T12:37:28Z</time>
      </trkpt>
      <trkpt lat="43.57556" lon="5.31733">
        <ele>290.97412109375</ele>
        <time>2021-11-03T12:37:35Z</time>
      </trkpt>
      <trkpt lat="43.57555" lon="5.31745">
        <ele>290.43041992188</ele>
        <time>2021-11-03T12:37:43Z</time>
      </trkpt>
      <trkpt lat="43.5755" lon="5.31755">
        <ele>290.15960693359</ele>
        <time>2021-11-03T12:37:51Z</time>
      </trkpt>
      <trkpt lat="43.57549" lon="5.31766">
        <ele>291.82806396484</ele>
        <time>2021-11-03T12:38:00Z</time>
      </trkpt>
      <trkpt lat="43.57548" lon="5.31778">
        <ele>293.78900146484</ele>
        <time>2021-11-03T12:38:08Z</time>
      </trkpt>
      <trkpt lat="43.57548" lon="5.3179">
        <ele>293.92407226562</ele>
        <time>2021-11-03T12:38:16Z</time>
      </trkpt>
      <trkpt lat="43.57547" lon="5.31801">
        <ele>293.20227050781</ele>
        <time>2021-11-03T12:38:23Z</time>
      </trkpt>
      <trkpt lat="43.57544" lon="5.31813">
        <ele>293.28631591797</ele>
        <time>2021-11-03T12:38:30Z</time>
      </trkpt>
      <trkpt lat="43.57541" lon="5.31824">
        <ele>292.34423828125</ele>
        <time>2021-11-03T12:38:38Z</time>
      </trkpt>
      <trkpt lat="43.57542" lon="5.31836">
        <ele>291.2255859375</ele>
        <time>2021-11-03T12:38:46Z</time>
      </trkpt>
      <trkpt lat="43.57546" lon="5.31846">
        <ele>292.35949707031</ele>
        <time>2021-11-03T12:38:55Z</time>
      </trkpt>
      <trkpt lat="43.57544" lon="5.31858">
        <ele>291.11865234375</ele>
        <time>2021-11-03T12:39:04Z</time>
      </trkpt>
      <trkpt lat="43.57538" lon="5.31867">
        <ele>291.56970214844</ele>
        <time>2021-11-03T12:39:13Z</time>
      </trkpt>
      <trkpt lat="43.57536" lon="5.31878">
        <ele>292.63848876953</ele>
        <time>2021-11-03T12:39:21Z</time>
      </trkpt>
      <trkpt lat="43.57534" lon="5.31889">
        <ele>292.35375976562</ele>
        <time>2021-11-03T12:39:29Z</time>
      </trkpt>
      <trkpt lat="43.57534" lon="5.31901">
        <ele>291.46215820312</ele>
        <time>2021-11-03T12:39:36Z</time>
      </trkpt>
      <trkpt lat="43.57533" lon="5.31912">
        <ele>293.13366699219</ele>
        <time>2021-11-03T12:39:44Z</time>
      </trkpt>
      <trkpt lat="43.57534" lon="5.31924">
        <ele>293.07293701172</ele>
        <time>2021-11-03T12:39:52Z</time>
      </trkpt>
      <trkpt lat="43.57535" lon="5.31936">
        <ele>291.24072265625</ele>
        <time>2021-11-03T12:40:00Z</time>
      </trkpt>
      <trkpt lat="43.57537" lon="5.31947">
        <ele>293.15112304688</ele>
        <time>2021-11-03T12:40:08Z</time>
      </trkpt>
      <trkpt lat="43.5754" lon="5.31958">
        <ele>292.4052734375</ele>
        <time>2021-11-03T12:40:15Z</time>
      </trkpt>
      <trkpt lat="43.57541" lon="5.3197">
        <ele>293.40100097656</ele>
        <time>2021-11-03T12:40:23Z</time>
      </trkpt>
      <trkpt lat="43.57542" lon="5.3198">
        <ele>292.55834960938</ele>
        <time>2021-11-03T12:40:30Z</time>
      </trkpt>
      <trkpt lat="43.57545" lon="5.31992">
        <ele>291.28521728516</ele>
        <time>2021-11-03T12:40:38Z</time>
      </trkpt>
      <trkpt lat="43.57548" lon="5.32002">
        <ele>292.76483154297</ele>
        <time>2021-11-03T12:40:45Z</time>
      </trkpt>
      <trkpt lat="43.5755" lon="5.32014">
        <ele>293.31201171875</ele>
        <time>2021-11-03T12:40:53Z</time>
      </trkpt>
      <trkpt lat="43.57555" lon="5.32025">
        <ele>294.45104980469</ele>
        <time>2021-11-03T12:41:01Z</time>
      </trkpt>
      <trkpt lat="43.57559" lon="5.32036">
        <ele>293.52966308594</ele>
        <time>2021-11-03T12:41:09Z</time>
      </trkpt>
      <trkpt lat="43.57562" lon="5.32046">
        <ele>293.32379150391</ele>
        <time>2021-11-03T12:41:17Z</time>
      </trkpt>
      <trkpt lat="43.57567" lon="5.32055">
        <ele>294.16149902344</ele>
        <time>2021-11-03T12:41:24Z</time>
      </trkpt>
      <trkpt lat="43.57572" lon="5.32065">
        <ele>293.55590820312</ele>
        <time>2021-11-03T12:41:31Z</time>
      </trkpt>
      <trkpt lat="43.57576" lon="5.32075">
        <ele>295.21954345703</ele>
        <time>2021-11-03T12:41:39Z</time>
      </trkpt>
      <trkpt lat="43.5758" lon="5.32085">
        <ele>294.34460449219</ele>
        <time>2021-11-03T12:41:47Z</time>
      </trkpt>
      <trkpt lat="43.57583" lon="5.32096">
        <ele>296.05590820312</ele>
        <time>2021-11-03T12:41:54Z</time>
      </trkpt>
      <trkpt lat="43.57586" lon="5.32106">
        <ele>295.81555175781</ele>
        <time>2021-11-03T12:42:01Z</time>
      </trkpt>
      <trkpt lat="43.57588" lon="5.32117">
        <ele>296.69030761719</ele>
        <time>2021-11-03T12:42:08Z</time>
      </trkpt>
      <trkpt lat="43.57589" lon="5.32128">
        <ele>296.77673339844</ele>
        <time>2021-11-03T12:42:16Z</time>
      </trkpt>
      <trkpt lat="43.57592" lon="5.32139">
        <ele>297.29522705078</ele>
        <time>2021-11-03T12:42:23Z</time>
      </trkpt>
      <trkpt lat="43.57595" lon="5.3215">
        <ele>297.359375</ele>
        <time>2021-11-03T12:42:31Z</time>
      </trkpt>
      <trkpt lat="43.57597" lon="5.3216">
        <ele>298.33935546875</ele>
        <time>2021-11-03T12:42:38Z</time>
      </trkpt>
      <trkpt lat="43.576" lon="5.32171">
        <ele>297.630859375</ele>
        <time>2021-11-03T12:42:45Z</time>
      </trkpt>
      <trkpt lat="43.57604" lon="5.3218">
        <ele>297.28076171875</ele>
        <time>2021-11-03T12:42:52Z</time>
      </trkpt>
      <trkpt lat="43.57607" lon="5.32191">
        <ele>296.19104003906</ele>
        <time>2021-11-03T12:42:58Z</time>
      </trkpt>
      <trkpt lat="43.57611" lon="5.32201">
        <ele>295.48272705078</ele>
        <time>2021-11-03T12:43:04Z</time>
      </trkpt>
      <trkpt lat="43.57614" lon="5.32212">
        <ele>294.38989257812</ele>
        <time>2021-11-03T12:43:11Z</time>
      </trkpt>
      <trkpt lat="43.57618" lon="5.32221">
        <ele>293.87939453125</ele>
        <time>2021-11-03T12:43:17Z</time>
      </trkpt>
      <trkpt lat="43.57622" lon="5.32232">
        <ele>294.30737304688</ele>
        <time>2021-11-03T12:43:24Z</time>
      </trkpt>
      <trkpt lat="43.57626" lon="5.32242">
        <ele>295.41638183594</ele>
        <time>2021-11-03T12:43:31Z</time>
      </trkpt>
      <trkpt lat="43.57624" lon="5.32254">
        <ele>298.32025146484</ele>
        <time>2021-11-03T12:43:38Z</time>
      </trkpt>
      <trkpt lat="43.57626" lon="5.32265">
        <ele>297.27447509766</ele>
        <time>2021-11-03T12:43:46Z</time>
      </trkpt>
      <trkpt lat="43.57632" lon="5.32273">
        <ele>296.13861083984</ele>
        <time>2021-11-03T12:43:53Z</time>
      </trkpt>
      <trkpt lat="43.57636" lon="5.32284">
        <ele>296.9482421875</ele>
        <time>2021-11-03T12:44:02Z</time>
      </trkpt>
      <trkpt lat="43.5764" lon="5.32294">
        <ele>297.0390625</ele>
        <time>2021-11-03T12:44:09Z</time>
      </trkpt>
      <trkpt lat="43.57642" lon="5.32306">
        <ele>297.69134521484</ele>
        <time>2021-11-03T12:44:17Z</time>
      </trkpt>
      <trkpt lat="43.57644" lon="5.32318">
        <ele>299.09655761719</ele>
        <time>2021-11-03T12:44:25Z</time>
      </trkpt>
      <trkpt lat="43.57645" lon="5.32329">
        <ele>299.99291992188</ele>
        <time>2021-11-03T12:44:32Z</time>
      </trkpt>
      <trkpt lat="43.57645" lon="5.3234">
        <ele>300.35284423828</ele>
        <time>2021-11-03T12:44:39Z</time>
      </trkpt>
      <trkpt lat="43.57646" lon="5.32351">
        <ele>301.67907714844</ele>
        <time>2021-11-03T12:44:46Z</time>
      </trkpt>
      <trkpt lat="43.57645" lon="5.32362">
        <ele>302.20550537109</ele>
        <time>2021-11-03T12:44:53Z</time>
      </trkpt>
      <trkpt lat="43.57644" lon="5.32374">
        <ele>301.60211181641</ele>
        <time>2021-11-03T12:45:01Z</time>
      </trkpt>
      <trkpt lat="43.57643" lon="5.32385">
        <ele>301.38952636719</ele>
        <time>2021-11-03T12:45:08Z</time>
      </trkpt>
      <trkpt lat="43.57641" lon="5.32395">
        <ele>301.56518554688</ele>
        <time>2021-11-03T12:45:15Z</time>
      </trkpt>
      <trkpt lat="43.57638" lon="5.32406">
        <ele>302.16613769531</ele>
        <time>2021-11-03T12:45:22Z</time>
      </trkpt>
      <trkpt lat="43.57636" lon="5.32418">
        <ele>302.26696777344</ele>
        <time>2021-11-03T12:45:29Z</time>
      </trkpt>
      <trkpt lat="43.57634" lon="5.3243">
        <ele>301.2919921875</ele>
        <time>2021-11-03T12:45:44Z</time>
      </trkpt>
      <trkpt lat="43.57632" lon="5.32441">
        <ele>300.30694580078</ele>
        <time>2021-11-03T12:45:54Z</time>
      </trkpt>
      <trkpt lat="43.57628" lon="5.32451">
        <ele>299.37438964844</ele>
        <time>2021-11-03T12:46:03Z</time>
      </trkpt>
      <trkpt lat="43.57628" lon="5.32463">
        <ele>298.16381835938</ele>
        <time>2021-11-03T12:51:25Z</time>
      </trkpt>
      <trkpt lat="43.57622" lon="5.3247">
        <ele>296.47296142578</ele>
        <time>2021-11-03T12:51:31Z</time>
      </trkpt>
      <trkpt lat="43.57616" lon="5.32479">
        <ele>297.48822021484</ele>
        <time>2021-11-03T12:51:39Z</time>
      </trkpt>
      <trkpt lat="43.5761" lon="5.32488">
        <ele>298.17749023438</ele>
        <time>2021-11-03T12:51:47Z</time>
      </trkpt>
      <trkpt lat="43.57605" lon="5.32496">
        <ele>297.87689208984</ele>
        <time>2021-11-03T12:51:54Z</time>
      </trkpt>
      <trkpt lat="43.57602" lon="5.32506">
        <ele>298.66815185547</ele>
        <time>2021-11-03T12:52:01Z</time>
      </trkpt>
      <trkpt lat="43.57598" lon="5.32517">
        <ele>299.55700683594</ele>
        <time>2021-11-03T12:52:09Z</time>
      </trkpt>
      <trkpt lat="43.57594" lon="5.32527">
        <ele>298.04138183594</ele>
        <time>2021-11-03T12:52:16Z</time>
      </trkpt>
      <trkpt lat="43.57587" lon="5.32535">
        <ele>297.92022705078</ele>
        <time>2021-11-03T12:52:24Z</time>
      </trkpt>
      <trkpt lat="43.57582" lon="5.32544">
        <ele>296.53698730469</ele>
        <time>2021-11-03T12:52:31Z</time>
      </trkpt>
      <trkpt lat="43.57578" lon="5.32554">
        <ele>298.12622070312</ele>
        <time>2021-11-03T12:52:38Z</time>
      </trkpt>
      <trkpt lat="43.57578" lon="5.32566">
        <ele>298.72277832031</ele>
        <time>2021-11-03T12:52:46Z</time>
      </trkpt>
      <trkpt lat="43.57578" lon="5.32577">
        <ele>297.41479492188</ele>
        <time>2021-11-03T12:52:54Z</time>
      </trkpt>
      <trkpt lat="43.57581" lon="5.32589">
        <ele>296.62158203125</ele>
        <time>2021-11-03T12:53:02Z</time>
      </trkpt>
      <trkpt lat="43.57581" lon="5.32601">
        <ele>296.72796630859</ele>
        <time>2021-11-03T12:53:10Z</time>
      </trkpt>
      <trkpt lat="43.57582" lon="5.32612">
        <ele>296.91522216797</ele>
        <time>2021-11-03T12:53:17Z</time>
      </trkpt>
      <trkpt lat="43.57587" lon="5.32622">
        <ele>295.17761230469</ele>
        <time>2021-11-03T12:53:24Z</time>
      </trkpt>
      <trkpt lat="43.5759" lon="5.32633">
        <ele>293.72253417969</ele>
        <time>2021-11-03T12:53:31Z</time>
      </trkpt>
      <trkpt lat="43.57593" lon="5.32645">
        <ele>293.39532470703</ele>
        <time>2021-11-03T12:53:38Z</time>
      </trkpt>
      <trkpt lat="43.57593" lon="5.32656">
        <ele>291.94061279297</ele>
        <time>2021-11-03T12:53:45Z</time>
      </trkpt>
      <trkpt lat="43.57595" lon="5.32667">
        <ele>290.44476318359</ele>
        <time>2021-11-03T12:53:52Z</time>
      </trkpt>
      <trkpt lat="43.576" lon="5.32677">
        <ele>291.83032226562</ele>
        <time>2021-11-03T12:53:59Z</time>
      </trkpt>
      <trkpt lat="43.57606" lon="5.32685">
        <ele>291.28491210938</ele>
        <time>2021-11-03T12:54:05Z</time>
      </trkpt>
      <trkpt lat="43.57609" lon="5.32694">
        <ele>288.87780761719</ele>
        <time>2021-11-03T12:54:11Z</time>
      </trkpt>
      <trkpt lat="43.57611" lon="5.32705">
        <ele>288.27355957031</ele>
        <time>2021-11-03T12:54:18Z</time>
      </trkpt>
      <trkpt lat="43.5761" lon="5.32716">
        <ele>287.04510498047</ele>
        <time>2021-11-03T12:54:25Z</time>
      </trkpt>
      <trkpt lat="43.57614" lon="5.32727">
        <ele>286.43737792969</ele>
        <time>2021-11-03T12:54:32Z</time>
      </trkpt>
      <trkpt lat="43.57613" lon="5.32739">
        <ele>289.19683837891</ele>
        <time>2021-11-03T12:54:41Z</time>
      </trkpt>
      <trkpt lat="43.57613" lon="5.32751">
        <ele>287.58898925781</ele>
        <time>2021-11-03T12:54:49Z</time>
      </trkpt>
      <trkpt lat="43.57612" lon="5.32763">
        <ele>290.20544433594</ele>
        <time>2021-11-03T12:54:56Z</time>
      </trkpt>
      <trkpt lat="43.57611" lon="5.32774">
        <ele>287.62048339844</ele>
        <time>2021-11-03T12:55:03Z</time>
      </trkpt>
      <trkpt lat="43.57608" lon="5.32784">
        <ele>284.48651123047</ele>
        <time>2021-11-03T12:55:10Z</time>
      </trkpt>
      <trkpt lat="43.57607" lon="5.32795">
        <ele>284.23565673828</ele>
        <time>2021-11-03T12:55:17Z</time>
      </trkpt>
      <trkpt lat="43.57605" lon="5.32807">
        <ele>287.19897460938</ele>
        <time>2021-11-03T12:55:27Z</time>
      </trkpt>
      <trkpt lat="43.5761" lon="5.32817">
        <ele>290.00366210938</ele>
        <time>2021-11-03T12:55:49Z</time>
      </trkpt>
      <trkpt lat="43.57614" lon="5.32828">
        <ele>292.48840332031</ele>
        <time>2021-11-03T12:56:02Z</time>
      </trkpt>
      <trkpt lat="43.57612" lon="5.32839">
        <ele>286.4833984375</ele>
        <time>2021-11-03T12:56:21Z</time>
      </trkpt>
      <trkpt lat="43.57607" lon="5.32849">
        <ele>284.62768554688</ele>
        <time>2021-11-03T12:56:30Z</time>
      </trkpt>
      <trkpt lat="43.57603" lon="5.32859">
        <ele>283.22290039062</ele>
        <time>2021-11-03T12:56:37Z</time>
      </trkpt>
      <trkpt lat="43.57599" lon="5.32868">
        <ele>282.65161132812</ele>
        <time>2021-11-03T12:56:44Z</time>
      </trkpt>
      <trkpt lat="43.57593" lon="5.32877">
        <ele>281.05004882812</ele>
        <time>2021-11-03T12:56:52Z</time>
      </trkpt>
      <trkpt lat="43.57588" lon="5.32885">
        <ele>281.248046875</ele>
        <time>2021-11-03T12:57:00Z</time>
      </trkpt>
      <trkpt lat="43.57584" lon="5.32895">
        <ele>283.20263671875</ele>
        <time>2021-11-03T12:57:07Z</time>
      </trkpt>
      <trkpt lat="43.57578" lon="5.32902">
        <ele>288.04638671875</ele>
        <time>2021-11-03T12:57:15Z</time>
      </trkpt>
      <trkpt lat="43.57573" lon="5.32912">
        <ele>286.00500488281</ele>
        <time>2021-11-03T12:57:22Z</time>
      </trkpt>
      <trkpt lat="43.57578" lon="5.3292">
        <ele>282.18469238281</ele>
        <time>2021-11-03T12:57:38Z</time>
      </trkpt>
      <trkpt lat="43.57585" lon="5.32922">
        <ele>282.07739257812</ele>
        <time>2021-11-03T12:57:43Z</time>
      </trkpt>
      <trkpt lat="43.57581" lon="5.32932">
        <ele>281.32922363281</ele>
        <time>2021-11-03T12:58:15Z</time>
      </trkpt>
      <trkpt lat="43.57575" lon="5.32941">
        <ele>280.80999755859</ele>
        <time>2021-11-03T12:58:26Z</time>
      </trkpt>
      <trkpt lat="43.57567" lon="5.32948">
        <ele>281.88122558594</ele>
        <time>2021-11-03T12:58:37Z</time>
      </trkpt>
      <trkpt lat="43.57562" lon="5.32957">
        <ele>281.86169433594</ele>
        <time>2021-11-03T12:58:46Z</time>
      </trkpt>
      <trkpt lat="43.57557" lon="5.32967">
        <ele>281.94470214844</ele>
        <time>2021-11-03T12:58:55Z</time>
      </trkpt>
      <trkpt lat="43.57552" lon="5.32976">
        <ele>282.44927978516</ele>
        <time>2021-11-03T12:59:03Z</time>
      </trkpt>
      <trkpt lat="43.57548" lon="5.32986">
        <ele>283.77294921875</ele>
        <time>2021-11-03T12:59:11Z</time>
      </trkpt>
      <trkpt lat="43.57542" lon="5.32995">
        <ele>285.56079101562</ele>
        <time>2021-11-03T12:59:19Z</time>
      </trkpt>
      <trkpt lat="43.57536" lon="5.33004">
        <ele>283.66326904297</ele>
        <time>2021-11-03T12:59:27Z</time>
      </trkpt>
      <trkpt lat="43.5753" lon="5.33012">
        <ele>283.29724121094</ele>
        <time>2021-11-03T12:59:35Z</time>
      </trkpt>
      <trkpt lat="43.57524" lon="5.3302">
        <ele>281.36590576172</ele>
        <time>2021-11-03T12:59:42Z</time>
      </trkpt>
      <trkpt lat="43.57518" lon="5.33028">
        <ele>281.7001953125</ele>
        <time>2021-11-03T12:59:50Z</time>
      </trkpt>
      <trkpt lat="43.57512" lon="5.33037">
        <ele>281.69140625</ele>
        <time>2021-11-03T12:59:57Z</time>
      </trkpt>
      <trkpt lat="43.57507" lon="5.33047">
        <ele>278.15502929688</ele>
        <time>2021-11-03T13:00:05Z</time>
      </trkpt>
      <trkpt lat="43.57501" lon="5.33055">
        <ele>279.7158203125</ele>
        <time>2021-11-03T13:00:12Z</time>
      </trkpt>
      <trkpt lat="43.57494" lon="5.33062">
        <ele>281.19903564453</ele>
        <time>2021-11-03T13:00:19Z</time>
      </trkpt>
      <trkpt lat="43.57488" lon="5.33069">
        <ele>280.12255859375</ele>
        <time>2021-11-03T13:00:27Z</time>
      </trkpt>
      <trkpt lat="43.57482" lon="5.33077">
        <ele>280.20190429688</ele>
        <time>2021-11-03T13:00:35Z</time>
      </trkpt>
      <trkpt lat="43.57475" lon="5.33085">
        <ele>279.54870605469</ele>
        <time>2021-11-03T13:00:43Z</time>
      </trkpt>
      <trkpt lat="43.57471" lon="5.33094">
        <ele>280.25842285156</ele>
        <time>2021-11-03T13:00:51Z</time>
      </trkpt>
      <trkpt lat="43.57465" lon="5.33103">
        <ele>279.83190917969</ele>
        <time>2021-11-03T13:01:00Z</time>
      </trkpt>
      <trkpt lat="43.57474" lon="5.33099">
        <ele>276.92907714844</ele>
        <time>2021-11-03T13:01:14Z</time>
      </trkpt>
      <trkpt lat="43.57481" lon="5.33091">
        <ele>278.16577148438</ele>
        <time>2021-11-03T13:01:22Z</time>
      </trkpt>
      <trkpt lat="43.57488" lon="5.33084">
        <ele>279.51293945312</ele>
        <time>2021-11-03T13:01:31Z</time>
      </trkpt>
      <trkpt lat="43.57495" lon="5.33078">
        <ele>281.255859375</ele>
        <time>2021-11-03T13:01:41Z</time>
      </trkpt>
      <trkpt lat="43.57502" lon="5.33071">
        <ele>283.48571777344</ele>
        <time>2021-11-03T13:01:50Z</time>
      </trkpt>
      <trkpt lat="43.57509" lon="5.33063">
        <ele>281.89379882812</ele>
        <time>2021-11-03T13:02:00Z</time>
      </trkpt>
      <trkpt lat="43.57515" lon="5.33055">
        <ele>283.63671875</ele>
        <time>2021-11-03T13:02:10Z</time>
      </trkpt>
      <trkpt lat="43.57519" lon="5.33045">
        <ele>281.16369628906</ele>
        <time>2021-11-03T13:02:19Z</time>
      </trkpt>
      <trkpt lat="43.57526" lon="5.33038">
        <ele>281.57458496094</ele>
        <time>2021-11-03T13:02:27Z</time>
      </trkpt>
      <trkpt lat="43.57531" lon="5.33029">
        <ele>280.53973388672</ele>
        <time>2021-11-03T13:02:35Z</time>
      </trkpt>
      <trkpt lat="43.57537" lon="5.33021">
        <ele>283.61755371094</ele>
        <time>2021-11-03T13:02:44Z</time>
      </trkpt>
      <trkpt lat="43.57542" lon="5.33012">
        <ele>280.55853271484</ele>
        <time>2021-11-03T13:02:52Z</time>
      </trkpt>
      <trkpt lat="43.57547" lon="5.33004">
        <ele>281.14758300781</ele>
        <time>2021-11-03T13:03:00Z</time>
      </trkpt>
      <trkpt lat="43.57554" lon="5.32995">
        <ele>283.30383300781</ele>
        <time>2021-11-03T13:03:08Z</time>
      </trkpt>
      <trkpt lat="43.5756" lon="5.32986">
        <ele>284.01940917969</ele>
        <time>2021-11-03T13:03:16Z</time>
      </trkpt>
      <trkpt lat="43.57564" lon="5.32976">
        <ele>282.31793212891</ele>
        <time>2021-11-03T13:03:24Z</time>
      </trkpt>
      <trkpt lat="43.5757" lon="5.32966">
        <ele>281.49603271484</ele>
        <time>2021-11-03T13:03:32Z</time>
      </trkpt>
      <trkpt lat="43.57575" lon="5.32957">
        <ele>282.97583007812</ele>
        <time>2021-11-03T13:03:40Z</time>
      </trkpt>
      <trkpt lat="43.57582" lon="5.32948">
        <ele>283.88977050781</ele>
        <time>2021-11-03T13:03:48Z</time>
      </trkpt>
      <trkpt lat="43.57587" lon="5.32939">
        <ele>283.10290527344</ele>
        <time>2021-11-03T13:03:56Z</time>
      </trkpt>
      <trkpt lat="43.57592" lon="5.3293">
        <ele>281.20739746094</ele>
        <time>2021-11-03T13:04:23Z</time>
      </trkpt>
      <trkpt lat="43.57599" lon="5.32923">
        <ele>284.40844726562</ele>
        <time>2021-11-03T13:04:46Z</time>
      </trkpt>
      <trkpt lat="43.57605" lon="5.32915">
        <ele>280.98376464844</ele>
        <time>2021-11-03T13:05:03Z</time>
      </trkpt>
      <trkpt lat="43.57614" lon="5.32912">
        <ele>279.75354003906</ele>
        <time>2021-11-03T13:05:16Z</time>
      </trkpt>
      <trkpt lat="43.57614" lon="5.32924">
        <ele>278.861328125</ele>
        <time>2021-11-03T13:05:33Z</time>
      </trkpt>
      <trkpt lat="43.57612" lon="5.32936">
        <ele>277.8974609375</ele>
        <time>2021-11-03T13:05:42Z</time>
      </trkpt>
      <trkpt lat="43.57615" lon="5.32948">
        <ele>275.48791503906</ele>
        <time>2021-11-03T13:05:54Z</time>
      </trkpt>
      <trkpt lat="43.57612" lon="5.32959">
        <ele>275.55688476562</ele>
        <time>2021-11-03T13:06:01Z</time>
      </trkpt>
      <trkpt lat="43.57608" lon="5.32969">
        <ele>273.32299804688</ele>
        <time>2021-11-03T13:06:08Z</time>
      </trkpt>
      <trkpt lat="43.57606" lon="5.32981">
        <ele>271.70776367188</ele>
        <time>2021-11-03T13:06:15Z</time>
      </trkpt>
      <trkpt lat="43.57603" lon="5.32991">
        <ele>273.19201660156</ele>
        <time>2021-11-03T13:06:22Z</time>
      </trkpt>
      <trkpt lat="43.57601" lon="5.33003">
        <ele>271.52819824219</ele>
        <time>2021-11-03T13:06:29Z</time>
      </trkpt>
      <trkpt lat="43.57598" lon="5.33013">
        <ele>272.0810546875</ele>
        <time>2021-11-03T13:06:35Z</time>
      </trkpt>
      <trkpt lat="43.57596" lon="5.33024">
        <ele>272.20880126953</ele>
        <time>2021-11-03T13:06:42Z</time>
      </trkpt>
      <trkpt lat="43.57595" lon="5.33035">
        <ele>272.861328125</ele>
        <time>2021-11-03T13:06:49Z</time>
      </trkpt>
      <trkpt lat="43.57595" lon="5.33047">
        <ele>271.43469238281</ele>
        <time>2021-11-03T13:06:57Z</time>
      </trkpt>
      <trkpt lat="43.57593" lon="5.33058">
        <ele>273.25317382812</ele>
        <time>2021-11-03T13:07:05Z</time>
      </trkpt>
      <trkpt lat="43.57589" lon="5.3307">
        <ele>266.98864746094</ele>
        <time>2021-11-03T13:07:17Z</time>
      </trkpt>
      <trkpt lat="43.57587" lon="5.33081">
        <ele>270.83801269531</ele>
        <time>2021-11-03T13:07:30Z</time>
      </trkpt>
      <trkpt lat="43.57584" lon="5.33093">
        <ele>269.98547363281</ele>
        <time>2021-11-03T13:07:38Z</time>
      </trkpt>
      <trkpt lat="43.57583" lon="5.33105">
        <ele>267.58044433594</ele>
        <time>2021-11-03T13:07:46Z</time>
      </trkpt>
      <trkpt lat="43.5758" lon="5.33115">
        <ele>267.80670166016</ele>
        <time>2021-11-03T13:07:53Z</time>
      </trkpt>
      <trkpt lat="43.57577" lon="5.33126">
        <ele>269.09899902344</ele>
        <time>2021-11-03T13:08:01Z</time>
      </trkpt>
      <trkpt lat="43.57573" lon="5.33137">
        <ele>270.0048828125</ele>
        <time>2021-11-03T13:08:09Z</time>
      </trkpt>
      <trkpt lat="43.57571" lon="5.33148">
        <ele>271.40832519531</ele>
        <time>2021-11-03T13:08:16Z</time>
      </trkpt>
      <trkpt lat="43.57567" lon="5.33159">
        <ele>270.45227050781</ele>
        <time>2021-11-03T13:08:24Z</time>
      </trkpt>
      <trkpt lat="43.57563" lon="5.33168">
        <ele>271.37072753906</ele>
        <time>2021-11-03T13:08:31Z</time>
      </trkpt>
      <trkpt lat="43.57558" lon="5.33178">
        <ele>270.02673339844</ele>
        <time>2021-11-03T13:08:39Z</time>
      </trkpt>
      <trkpt lat="43.57553" lon="5.33188">
        <ele>269.29626464844</ele>
        <time>2021-11-03T13:08:47Z</time>
      </trkpt>
      <trkpt lat="43.57548" lon="5.33197">
        <ele>270.87994384766</ele>
        <time>2021-11-03T13:08:54Z</time>
      </trkpt>
      <trkpt lat="43.57545" lon="5.33208">
        <ele>267.76135253906</ele>
        <time>2021-11-03T13:09:02Z</time>
      </trkpt>
      <trkpt lat="43.57541" lon="5.33218">
        <ele>266.94506835938</ele>
        <time>2021-11-03T13:09:09Z</time>
      </trkpt>
      <trkpt lat="43.57536" lon="5.33228">
        <ele>266.88885498047</ele>
        <time>2021-11-03T13:09:17Z</time>
      </trkpt>
      <trkpt lat="43.57534" lon="5.33239">
        <ele>263.2802734375</ele>
        <time>2021-11-03T13:09:24Z</time>
      </trkpt>
      <trkpt lat="43.57533" lon="5.3325">
        <ele>264.40081787109</ele>
        <time>2021-11-03T13:09:30Z</time>
      </trkpt>
      <trkpt lat="43.57531" lon="5.33261">
        <ele>265.19250488281</ele>
        <time>2021-11-03T13:09:37Z</time>
      </trkpt>
      <trkpt lat="43.57529" lon="5.33272">
        <ele>267.13372802734</ele>
        <time>2021-11-03T13:09:45Z</time>
      </trkpt>
      <trkpt lat="43.57529" lon="5.33284">
        <ele>263.91363525391</ele>
        <time>2021-11-03T13:09:52Z</time>
      </trkpt>
      <trkpt lat="43.57529" lon="5.33295">
        <ele>262.42236328125</ele>
        <time>2021-11-03T13:09:59Z</time>
      </trkpt>
      <trkpt lat="43.57527" lon="5.33306">
        <ele>263.89196777344</ele>
        <time>2021-11-03T13:10:07Z</time>
      </trkpt>
      <trkpt lat="43.57527" lon="5.33318">
        <ele>262.54400634766</ele>
        <time>2021-11-03T13:10:14Z</time>
      </trkpt>
      <trkpt lat="43.57525" lon="5.3333">
        <ele>262.2158203125</ele>
        <time>2021-11-03T13:10:22Z</time>
      </trkpt>
      <trkpt lat="43.57524" lon="5.33341">
        <ele>262.02355957031</ele>
        <time>2021-11-03T13:10:29Z</time>
      </trkpt>
      <trkpt lat="43.57524" lon="5.33352">
        <ele>259.44201660156</ele>
        <time>2021-11-03T13:10:36Z</time>
      </trkpt>
      <trkpt lat="43.57524" lon="5.33363">
        <ele>258.44897460938</ele>
        <time>2021-11-03T13:10:43Z</time>
      </trkpt>
      <trkpt lat="43.57523" lon="5.33374">
        <ele>259.65209960938</ele>
        <time>2021-11-03T13:10:51Z</time>
      </trkpt>
      <trkpt lat="43.57524" lon="5.33385">
        <ele>259.55053710938</ele>
        <time>2021-11-03T13:10:59Z</time>
      </trkpt>
      <trkpt lat="43.57524" lon="5.33397">
        <ele>259.62353515625</ele>
        <time>2021-11-03T13:11:07Z</time>
      </trkpt>
      <trkpt lat="43.57524" lon="5.33408">
        <ele>258.32556152344</ele>
        <time>2021-11-03T13:11:15Z</time>
      </trkpt>
      <trkpt lat="43.57523" lon="5.33419">
        <ele>258.13977050781</ele>
        <time>2021-11-03T13:11:22Z</time>
      </trkpt>
      <trkpt lat="43.57522" lon="5.33431">
        <ele>259.90502929688</ele>
        <time>2021-11-03T13:11:29Z</time>
      </trkpt>
      <trkpt lat="43.57521" lon="5.33442">
        <ele>260.38195800781</ele>
        <time>2021-11-03T13:11:37Z</time>
      </trkpt>
      <trkpt lat="43.57519" lon="5.33454">
        <ele>258.75659179688</ele>
        <time>2021-11-03T13:11:44Z</time>
      </trkpt>
      <trkpt lat="43.57518" lon="5.33465">
        <ele>260.08819580078</ele>
        <time>2021-11-03T13:11:52Z</time>
      </trkpt>
      <trkpt lat="43.57517" lon="5.33476">
        <ele>258.62133789062</ele>
        <time>2021-11-03T13:11:59Z</time>
      </trkpt>
      <trkpt lat="43.57515" lon="5.33488">
        <ele>256.92517089844</ele>
        <time>2021-11-03T13:12:07Z</time>
      </trkpt>
      <trkpt lat="43.57512" lon="5.33499">
        <ele>256.94641113281</ele>
        <time>2021-11-03T13:12:14Z</time>
      </trkpt>
      <trkpt lat="43.57509" lon="5.33509">
        <ele>255.70562744141</ele>
        <time>2021-11-03T13:12:22Z</time>
      </trkpt>
      <trkpt lat="43.57508" lon="5.33521">
        <ele>255.02746582031</ele>
        <time>2021-11-03T13:12:30Z</time>
      </trkpt>
      <trkpt lat="43.57505" lon="5.33532">
        <ele>258.0146484375</ele>
        <time>2021-11-03T13:12:39Z</time>
      </trkpt>
      <trkpt lat="43.57503" lon="5.33544">
        <ele>254.70043945312</ele>
        <time>2021-11-03T13:12:49Z</time>
      </trkpt>
      <trkpt lat="43.57501" lon="5.33555">
        <ele>255.22644042969</ele>
        <time>2021-11-03T13:12:58Z</time>
      </trkpt>
      <trkpt lat="43.575" lon="5.33566">
        <ele>256.80627441406</ele>
        <time>2021-11-03T13:13:07Z</time>
      </trkpt>
      <trkpt lat="43.57498" lon="5.33577">
        <ele>257.537109375</ele>
        <time>2021-11-03T13:13:15Z</time>
      </trkpt>
      <trkpt lat="43.57494" lon="5.33587">
        <ele>257.486328125</ele>
        <time>2021-11-03T13:13:24Z</time>
      </trkpt>
      <trkpt lat="43.57491" lon="5.33597">
        <ele>257.70495605469</ele>
        <time>2021-11-03T13:13:32Z</time>
      </trkpt>
      <trkpt lat="43.57488" lon="5.33608">
        <ele>259.47265625</ele>
        <time>2021-11-03T13:13:40Z</time>
      </trkpt>
      <trkpt lat="43.57485" lon="5.33619">
        <ele>259.49133300781</ele>
        <time>2021-11-03T13:13:48Z</time>
      </trkpt>
      <trkpt lat="43.57483" lon="5.3363">
        <ele>258.56616210938</ele>
        <time>2021-11-03T13:13:56Z</time>
      </trkpt>
      <trkpt lat="43.5748" lon="5.33641">
        <ele>258.3291015625</ele>
        <time>2021-11-03T13:14:04Z</time>
      </trkpt>
      <trkpt lat="43.57478" lon="5.33652">
        <ele>258.78393554688</ele>
        <time>2021-11-03T13:14:12Z</time>
      </trkpt>
      <trkpt lat="43.57477" lon="5.33665">
        <ele>258.00103759766</ele>
        <time>2021-11-03T13:14:20Z</time>
      </trkpt>
      <trkpt lat="43.57477" lon="5.33677">
        <ele>257.978515625</ele>
        <time>2021-11-03T13:14:28Z</time>
      </trkpt>
      <trkpt lat="43.5748" lon="5.33688">
        <ele>258.02447509766</ele>
        <time>2021-11-03T13:14:37Z</time>
      </trkpt>
      <trkpt lat="43.57479" lon="5.33699">
        <ele>258.80108642578</ele>
        <time>2021-11-03T13:14:47Z</time>
      </trkpt>
      <trkpt lat="43.57476" lon="5.3371">
        <ele>258.94427490234</ele>
        <time>2021-11-03T13:14:57Z</time>
      </trkpt>
      <trkpt lat="43.57473" lon="5.33721">
        <ele>260.55865478516</ele>
        <time>2021-11-03T13:15:07Z</time>
      </trkpt>
      <trkpt lat="43.57471" lon="5.33732">
        <ele>260.4638671875</ele>
        <time>2021-11-03T13:15:16Z</time>
      </trkpt>
      <trkpt lat="43.57469" lon="5.33744">
        <ele>257.06744384766</ele>
        <time>2021-11-03T13:15:32Z</time>
      </trkpt>
      <trkpt lat="43.57467" lon="5.33755">
        <ele>260.64758300781</ele>
        <time>2021-11-03T13:15:40Z</time>
      </trkpt>
      <trkpt lat="43.57464" lon="5.33765">
        <ele>262.95245361328</ele>
        <time>2021-11-03T13:15:46Z</time>
      </trkpt>
      <trkpt lat="43.57461" lon="5.33776">
        <ele>262.400390625</ele>
        <time>2021-11-03T13:15:53Z</time>
      </trkpt>
      <trkpt lat="43.57459" lon="5.33787">
        <ele>261.97888183594</ele>
        <time>2021-11-03T13:16:01Z</time>
      </trkpt>
      <trkpt lat="43.57458" lon="5.33799">
        <ele>259.00518798828</ele>
        <time>2021-11-03T13:16:09Z</time>
      </trkpt>
      <trkpt lat="43.57455" lon="5.33809">
        <ele>259.52380371094</ele>
        <time>2021-11-03T13:16:16Z</time>
      </trkpt>
      <trkpt lat="43.57451" lon="5.3382">
        <ele>262.10400390625</ele>
        <time>2021-11-03T13:16:24Z</time>
      </trkpt>
      <trkpt lat="43.57449" lon="5.33831">
        <ele>262.51635742188</ele>
        <time>2021-11-03T13:16:32Z</time>
      </trkpt>
      <trkpt lat="43.57448" lon="5.33843">
        <ele>262.70385742188</ele>
        <time>2021-11-03T13:16:40Z</time>
      </trkpt>
      <trkpt lat="43.57447" lon="5.33854">
        <ele>262.84936523438</ele>
        <time>2021-11-03T13:16:48Z</time>
      </trkpt>
      <trkpt lat="43.57446" lon="5.33866">
        <ele>262.11358642578</ele>
        <time>2021-11-03T13:16:56Z</time>
      </trkpt>
      <trkpt lat="43.57447" lon="5.33877">
        <ele>262.60577392578</ele>
        <time>2021-11-03T13:17:03Z</time>
      </trkpt>
      <trkpt lat="43.57447" lon="5.33889">
        <ele>262.59851074219</ele>
        <time>2021-11-03T13:17:10Z</time>
      </trkpt>
      <trkpt lat="43.57447" lon="5.33901">
        <ele>262.04669189453</ele>
        <time>2021-11-03T13:17:19Z</time>
      </trkpt>
      <trkpt lat="43.57446" lon="5.33912">
        <ele>262.40893554688</ele>
        <time>2021-11-03T13:17:27Z</time>
      </trkpt>
      <trkpt lat="43.57446" lon="5.33924">
        <ele>263.94079589844</ele>
        <time>2021-11-03T13:17:34Z</time>
      </trkpt>
      <trkpt lat="43.57446" lon="5.33935">
        <ele>264.35150146484</ele>
        <time>2021-11-03T13:17:41Z</time>
      </trkpt>
      <trkpt lat="43.57445" lon="5.33947">
        <ele>263.74658203125</ele>
        <time>2021-11-03T13:17:49Z</time>
      </trkpt>
      <trkpt lat="43.57443" lon="5.3396">
        <ele>265.44891357422</ele>
        <time>2021-11-03T13:17:57Z</time>
      </trkpt>
      <trkpt lat="43.57442" lon="5.3397">
        <ele>263.08020019531</ele>
        <time>2021-11-03T13:18:04Z</time>
      </trkpt>
      <trkpt lat="43.57442" lon="5.33981">
        <ele>262.5888671875</ele>
        <time>2021-11-03T13:18:11Z</time>
      </trkpt>
      <trkpt lat="43.57441" lon="5.33993">
        <ele>263.72253417969</ele>
        <time>2021-11-03T13:18:19Z</time>
      </trkpt>
      <trkpt lat="43.57441" lon="5.34004">
        <ele>262.94299316406</ele>
        <time>2021-11-03T13:18:26Z</time>
      </trkpt>
      <trkpt lat="43.57443" lon="5.34015">
        <ele>263.10363769531</ele>
        <time>2021-11-03T13:18:34Z</time>
      </trkpt>
      <trkpt lat="43.57445" lon="5.34027">
        <ele>263.14544677734</ele>
        <time>2021-11-03T13:18:42Z</time>
      </trkpt>
      <trkpt lat="43.57446" lon="5.34039">
        <ele>263.26489257812</ele>
        <time>2021-11-03T13:18:49Z</time>
      </trkpt>
      <trkpt lat="43.57448" lon="5.3405">
        <ele>263.41955566406</ele>
        <time>2021-11-03T13:18:56Z</time>
      </trkpt>
      <trkpt lat="43.57452" lon="5.34061">
        <ele>263.14251708984</ele>
        <time>2021-11-03T13:19:04Z</time>
      </trkpt>
      <trkpt lat="43.57454" lon="5.34072">
        <ele>264.47137451172</ele>
        <time>2021-11-03T13:19:12Z</time>
      </trkpt>
      <trkpt lat="43.57455" lon="5.34084">
        <ele>264.60473632812</ele>
        <time>2021-11-03T13:19:20Z</time>
      </trkpt>
      <trkpt lat="43.57455" lon="5.34095">
        <ele>263.64764404297</ele>
        <time>2021-11-03T13:19:28Z</time>
      </trkpt>
      <trkpt lat="43.57453" lon="5.34106">
        <ele>264.591796875</ele>
        <time>2021-11-03T13:19:36Z</time>
      </trkpt>
      <trkpt lat="43.57452" lon="5.34118">
        <ele>262.58801269531</ele>
        <time>2021-11-03T13:19:44Z</time>
      </trkpt>
      <trkpt lat="43.57449" lon="5.34129">
        <ele>262.51025390625</ele>
        <time>2021-11-03T13:19:51Z</time>
      </trkpt>
      <trkpt lat="43.57446" lon="5.3414">
        <ele>263.31378173828</ele>
        <time>2021-11-03T13:19:59Z</time>
      </trkpt>
      <trkpt lat="43.57443" lon="5.34151">
        <ele>262.77307128906</ele>
        <time>2021-11-03T13:20:07Z</time>
      </trkpt>
      <trkpt lat="43.5744" lon="5.34161">
        <ele>263.86090087891</ele>
        <time>2021-11-03T13:20:14Z</time>
      </trkpt>
      <trkpt lat="43.57437" lon="5.34172">
        <ele>263.99987792969</ele>
        <time>2021-11-03T13:20:21Z</time>
      </trkpt>
      <trkpt lat="43.57435" lon="5.34184">
        <ele>262.22839355469</ele>
        <time>2021-11-03T13:20:29Z</time>
      </trkpt>
      <trkpt lat="43.57433" lon="5.34196">
        <ele>261.22729492188</ele>
        <time>2021-11-03T13:20:37Z</time>
      </trkpt>
      <trkpt lat="43.5743" lon="5.34206">
        <ele>260.99078369141</ele>
        <time>2021-11-03T13:20:45Z</time>
      </trkpt>
      <trkpt lat="43.57428" lon="5.34218">
        <ele>259.90161132812</ele>
        <time>2021-11-03T13:20:53Z</time>
      </trkpt>
      <trkpt lat="43.57427" lon="5.3423">
        <ele>259.42413330078</ele>
        <time>2021-11-03T13:21:01Z</time>
      </trkpt>
      <trkpt lat="43.57425" lon="5.34241">
        <ele>259.84936523438</ele>
        <time>2021-11-03T13:21:08Z</time>
      </trkpt>
      <trkpt lat="43.57424" lon="5.34253">
        <ele>260.24755859375</ele>
        <time>2021-11-03T13:21:15Z</time>
      </trkpt>
      <trkpt lat="43.57422" lon="5.34264">
        <ele>261.669921875</ele>
        <time>2021-11-03T13:21:22Z</time>
      </trkpt>
      <trkpt lat="43.57421" lon="5.34275">
        <ele>260.37652587891</ele>
        <time>2021-11-03T13:21:29Z</time>
      </trkpt>
      <trkpt lat="43.5742" lon="5.34287">
        <ele>259.7783203125</ele>
        <time>2021-11-03T13:21:36Z</time>
      </trkpt>
      <trkpt lat="43.57419" lon="5.34298">
        <ele>257.83892822266</ele>
        <time>2021-11-03T13:21:43Z</time>
      </trkpt>
      <trkpt lat="43.57419" lon="5.3431">
        <ele>256.69140625</ele>
        <time>2021-11-03T13:21:51Z</time>
      </trkpt>
      <trkpt lat="43.57418" lon="5.34321">
        <ele>256.47784423828</ele>
        <time>2021-11-03T13:21:59Z</time>
      </trkpt>
      <trkpt lat="43.57418" lon="5.34332">
        <ele>255.22888183594</ele>
        <time>2021-11-03T13:22:06Z</time>
      </trkpt>
      <trkpt lat="43.57418" lon="5.34343">
        <ele>254.91680908203</ele>
        <time>2021-11-03T13:22:13Z</time>
      </trkpt>
      <trkpt lat="43.57416" lon="5.34354">
        <ele>255.34045410156</ele>
        <time>2021-11-03T13:22:20Z</time>
      </trkpt>
      <trkpt lat="43.57416" lon="5.34365">
        <ele>255.54669189453</ele>
        <time>2021-11-03T13:22:27Z</time>
      </trkpt>
      <trkpt lat="43.57416" lon="5.34377">
        <ele>255.31176757812</ele>
        <time>2021-11-03T13:22:34Z</time>
      </trkpt>
      <trkpt lat="43.57415" lon="5.34389">
        <ele>255.55035400391</ele>
        <time>2021-11-03T13:22:41Z</time>
      </trkpt>
      <trkpt lat="43.57414" lon="5.344">
        <ele>256.51617431641</ele>
        <time>2021-11-03T13:22:48Z</time>
      </trkpt>
      <trkpt lat="43.57412" lon="5.34411">
        <ele>255.96105957031</ele>
        <time>2021-11-03T13:22:55Z</time>
      </trkpt>
      <trkpt lat="43.57409" lon="5.34422">
        <ele>257.22045898438</ele>
        <time>2021-11-03T13:23:02Z</time>
      </trkpt>
      <trkpt lat="43.57408" lon="5.34434">
        <ele>257.71044921875</ele>
        <time>2021-11-03T13:23:09Z</time>
      </trkpt>
      <trkpt lat="43.57405" lon="5.34445">
        <ele>257.892578125</ele>
        <time>2021-11-03T13:23:16Z</time>
      </trkpt>
      <trkpt lat="43.57402" lon="5.34454">
        <ele>257.30157470703</ele>
        <time>2021-11-03T13:23:23Z</time>
      </trkpt>
      <trkpt lat="43.57399" lon="5.34465">
        <ele>256.09106445312</ele>
        <time>2021-11-03T13:23:30Z</time>
      </trkpt>
      <trkpt lat="43.57395" lon="5.34475">
        <ele>256.81604003906</ele>
        <time>2021-11-03T13:23:36Z</time>
      </trkpt>
      <trkpt lat="43.57392" lon="5.34485">
        <ele>256.90710449219</ele>
        <time>2021-11-03T13:23:43Z</time>
      </trkpt>
      <trkpt lat="43.57388" lon="5.34495">
        <ele>258.80249023438</ele>
        <time>2021-11-03T13:23:50Z</time>
      </trkpt>
      <trkpt lat="43.57384" lon="5.34505">
        <ele>258.599609375</ele>
        <time>2021-11-03T13:23:57Z</time>
      </trkpt>
      <trkpt lat="43.5738" lon="5.34516">
        <ele>257.76257324219</ele>
        <time>2021-11-03T13:24:05Z</time>
      </trkpt>
      <trkpt lat="43.57378" lon="5.34526">
        <ele>256.12683105469</ele>
        <time>2021-11-03T13:24:17Z</time>
      </trkpt>
      <trkpt lat="43.57376" lon="5.34538">
        <ele>255.51330566406</ele>
        <time>2021-11-03T13:24:33Z</time>
      </trkpt>
      <trkpt lat="43.57378" lon="5.3455">
        <ele>251.37994384766</ele>
        <time>2021-11-03T13:31:04Z</time>
      </trkpt>
      <trkpt lat="43.5738" lon="5.34562">
        <ele>250.70916748047</ele>
        <time>2021-11-03T13:31:13Z</time>
      </trkpt>
      <trkpt lat="43.57373" lon="5.34568">
        <ele>252.90686035156</ele>
        <time>2021-11-03T13:31:20Z</time>
      </trkpt>
      <trkpt lat="43.57365" lon="5.34573">
        <ele>252.27648925781</ele>
        <time>2021-11-03T13:31:28Z</time>
      </trkpt>
      <trkpt lat="43.57358" lon="5.34579">
        <ele>253.60571289062</ele>
        <time>2021-11-03T13:31:36Z</time>
      </trkpt>
      <trkpt lat="43.5735" lon="5.34584">
        <ele>256.92407226562</ele>
        <time>2021-11-03T13:31:44Z</time>
      </trkpt>
      <trkpt lat="43.57343" lon="5.3459">
        <ele>258.10919189453</ele>
        <time>2021-11-03T13:31:52Z</time>
      </trkpt>
      <trkpt lat="43.57336" lon="5.34598">
        <ele>258.61676025391</ele>
        <time>2021-11-03T13:32:00Z</time>
      </trkpt>
      <trkpt lat="43.57328" lon="5.34603">
        <ele>259.40893554688</ele>
        <time>2021-11-03T13:32:09Z</time>
      </trkpt>
      <trkpt lat="43.57321" lon="5.3461">
        <ele>260.1513671875</ele>
        <time>2021-11-03T13:32:17Z</time>
      </trkpt>
      <trkpt lat="43.57312" lon="5.34614">
        <ele>262.14221191406</ele>
        <time>2021-11-03T13:32:25Z</time>
      </trkpt>
      <trkpt lat="43.57305" lon="5.34619">
        <ele>262.38751220703</ele>
        <time>2021-11-03T13:32:32Z</time>
      </trkpt>
      <trkpt lat="43.57297" lon="5.34624">
        <ele>262.38415527344</ele>
        <time>2021-11-03T13:32:40Z</time>
      </trkpt>
      <trkpt lat="43.57291" lon="5.34632">
        <ele>259.80932617188</ele>
        <time>2021-11-03T13:32:48Z</time>
      </trkpt>
      <trkpt lat="43.57283" lon="5.34637">
        <ele>262.71704101562</ele>
        <time>2021-11-03T13:32:56Z</time>
      </trkpt>
      <trkpt lat="43.57276" lon="5.34644">
        <ele>261.03637695312</ele>
        <time>2021-11-03T13:33:05Z</time>
      </trkpt>
      <trkpt lat="43.57269" lon="5.34649">
        <ele>263.84753417969</ele>
        <time>2021-11-03T13:33:14Z</time>
      </trkpt>
      <trkpt lat="43.57262" lon="5.34655">
        <ele>263.78851318359</ele>
        <time>2021-11-03T13:33:22Z</time>
      </trkpt>
      <trkpt lat="43.57254" lon="5.34661">
        <ele>264.09405517578</ele>
        <time>2021-11-03T13:33:32Z</time>
      </trkpt>
      <trkpt lat="43.57246" lon="5.34664">
        <ele>265.36462402344</ele>
        <time>2021-11-03T13:33:41Z</time>
      </trkpt>
      <trkpt lat="43.57238" lon="5.34667">
        <ele>265.79028320312</ele>
        <time>2021-11-03T13:33:50Z</time>
      </trkpt>
      <trkpt lat="43.5723" lon="5.34668">
        <ele>268.001953125</ele>
        <time>2021-11-03T13:34:00Z</time>
      </trkpt>
      <trkpt lat="43.57222" lon="5.34672">
        <ele>267.91674804688</ele>
        <time>2021-11-03T13:34:12Z</time>
      </trkpt>
      <trkpt lat="43.57215" lon="5.34679">
        <ele>272.06103515625</ele>
        <time>2021-11-03T13:34:22Z</time>
      </trkpt>
      <trkpt lat="43.57213" lon="5.3469">
        <ele>271.81945800781</ele>
        <time>2021-11-03T13:34:30Z</time>
      </trkpt>
      <trkpt lat="43.57212" lon="5.34701">
        <ele>272.05981445312</ele>
        <time>2021-11-03T13:34:38Z</time>
      </trkpt>
      <trkpt lat="43.57213" lon="5.34713">
        <ele>274.02819824219</ele>
        <time>2021-11-03T13:35:03Z</time>
      </trkpt>
      <trkpt lat="43.57211" lon="5.34724">
        <ele>274.39147949219</ele>
        <time>2021-11-03T13:35:12Z</time>
      </trkpt>
      <trkpt lat="43.57209" lon="5.34735">
        <ele>273.43743896484</ele>
        <time>2021-11-03T13:35:20Z</time>
      </trkpt>
      <trkpt lat="43.57208" lon="5.34747">
        <ele>274.89990234375</ele>
        <time>2021-11-03T13:35:27Z</time>
      </trkpt>
      <trkpt lat="43.57204" lon="5.34757">
        <ele>273.71850585938</ele>
        <time>2021-11-03T13:35:34Z</time>
      </trkpt>
      <trkpt lat="43.572" lon="5.34767">
        <ele>276.18725585938</ele>
        <time>2021-11-03T13:35:42Z</time>
      </trkpt>
      <trkpt lat="43.57197" lon="5.34778">
        <ele>277.82995605469</ele>
        <time>2021-11-03T13:35:50Z</time>
      </trkpt>
      <trkpt lat="43.57193" lon="5.34789">
        <ele>276.31176757812</ele>
        <time>2021-11-03T13:35:59Z</time>
      </trkpt>
      <trkpt lat="43.5719" lon="5.34799">
        <ele>281.16027832031</ele>
        <time>2021-11-03T13:36:14Z</time>
      </trkpt>
      <trkpt lat="43.5719" lon="5.34811">
        <ele>282.58074951172</ele>
        <time>2021-11-03T13:36:24Z</time>
      </trkpt>
      <trkpt lat="43.57187" lon="5.34822">
        <ele>282.12615966797</ele>
        <time>2021-11-03T13:36:53Z</time>
      </trkpt>
      <trkpt lat="43.57182" lon="5.3483">
        <ele>282.70275878906</ele>
        <time>2021-11-03T13:37:04Z</time>
      </trkpt>
      <trkpt lat="43.57179" lon="5.34841">
        <ele>281.36669921875</ele>
        <time>2021-11-03T13:37:14Z</time>
      </trkpt>
      <trkpt lat="43.57176" lon="5.34853">
        <ele>282.51440429688</ele>
        <time>2021-11-03T13:37:23Z</time>
      </trkpt>
      <trkpt lat="43.57174" lon="5.34864">
        <ele>280.71051025391</ele>
        <time>2021-11-03T13:37:31Z</time>
      </trkpt>
      <trkpt lat="43.5717" lon="5.34874">
        <ele>279.57708740234</ele>
        <time>2021-11-03T13:37:40Z</time>
      </trkpt>
      <trkpt lat="43.57168" lon="5.34886">
        <ele>277.94946289062</ele>
        <time>2021-11-03T13:37:48Z</time>
      </trkpt>
      <trkpt lat="43.57164" lon="5.34897">
        <ele>280.22906494141</ele>
        <time>2021-11-03T13:37:56Z</time>
      </trkpt>
      <trkpt lat="43.57159" lon="5.34907">
        <ele>281.12109375</ele>
        <time>2021-11-03T13:38:04Z</time>
      </trkpt>
      <trkpt lat="43.57153" lon="5.34915">
        <ele>284.20941162109</ele>
        <time>2021-11-03T13:38:13Z</time>
      </trkpt>
      <trkpt lat="43.57147" lon="5.34923">
        <ele>280.47375488281</ele>
        <time>2021-11-03T13:38:21Z</time>
      </trkpt>
      <trkpt lat="43.57143" lon="5.34934">
        <ele>280.36267089844</ele>
        <time>2021-11-03T13:38:28Z</time>
      </trkpt>
      <trkpt lat="43.5714" lon="5.34945">
        <ele>280.48889160156</ele>
        <time>2021-11-03T13:38:36Z</time>
      </trkpt>
      <trkpt lat="43.57137" lon="5.34956">
        <ele>280.74487304688</ele>
        <time>2021-11-03T13:38:44Z</time>
      </trkpt>
      <trkpt lat="43.57134" lon="5.34967">
        <ele>277.65600585938</ele>
        <time>2021-11-03T13:38:52Z</time>
      </trkpt>
      <trkpt lat="43.5713" lon="5.34977">
        <ele>275.23986816406</ele>
        <time>2021-11-03T13:39:01Z</time>
      </trkpt>
      <trkpt lat="43.57128" lon="5.34988">
        <ele>278.84460449219</ele>
        <time>2021-11-03T13:39:10Z</time>
      </trkpt>
      <trkpt lat="43.57125" lon="5.35">
        <ele>277.36669921875</ele>
        <time>2021-11-03T13:39:19Z</time>
      </trkpt>
      <trkpt lat="43.57121" lon="5.3501">
        <ele>277.04455566406</ele>
        <time>2021-11-03T13:39:28Z</time>
      </trkpt>
      <trkpt lat="43.57116" lon="5.35019">
        <ele>279.86730957031</ele>
        <time>2021-11-03T13:39:36Z</time>
      </trkpt>
      <trkpt lat="43.5711" lon="5.35028">
        <ele>279.28198242188</ele>
        <time>2021-11-03T13:39:44Z</time>
      </trkpt>
      <trkpt lat="43.57104" lon="5.35036">
        <ele>280.22406005859</ele>
        <time>2021-11-03T13:39:52Z</time>
      </trkpt>
      <trkpt lat="43.57098" lon="5.35046">
        <ele>282.37707519531</ele>
        <time>2021-11-03T13:40:00Z</time>
      </trkpt>
      <trkpt lat="43.57093" lon="5.35055">
        <ele>284.22277832031</ele>
        <time>2021-11-03T13:40:08Z</time>
      </trkpt>
      <trkpt lat="43.57088" lon="5.35065">
        <ele>283.013671875</ele>
        <time>2021-11-03T13:40:16Z</time>
      </trkpt>
      <trkpt lat="43.57084" lon="5.35075">
        <ele>283.98083496094</ele>
        <time>2021-11-03T13:40:23Z</time>
      </trkpt>
      <trkpt lat="43.5708" lon="5.35086">
        <ele>280.38952636719</ele>
        <time>2021-11-03T13:40:30Z</time>
      </trkpt>
      <trkpt lat="43.57077" lon="5.35097">
        <ele>280.53869628906</ele>
        <time>2021-11-03T13:40:37Z</time>
      </trkpt>
      <trkpt lat="43.57075" lon="5.35109">
        <ele>277.92877197266</ele>
        <time>2021-11-03T13:40:45Z</time>
      </trkpt>
      <trkpt lat="43.57071" lon="5.35119">
        <ele>278.17407226562</ele>
        <time>2021-11-03T13:40:53Z</time>
      </trkpt>
      <trkpt lat="43.57069" lon="5.35129">
        <ele>279.04077148438</ele>
        <time>2021-11-03T13:41:00Z</time>
      </trkpt>
      <trkpt lat="43.57066" lon="5.3514">
        <ele>279.45556640625</ele>
        <time>2021-11-03T13:41:07Z</time>
      </trkpt>
      <trkpt lat="43.57062" lon="5.35151">
        <ele>281.07360839844</ele>
        <time>2021-11-03T13:41:15Z</time>
      </trkpt>
      <trkpt lat="43.57059" lon="5.35162">
        <ele>283.28527832031</ele>
        <time>2021-11-03T13:41:22Z</time>
      </trkpt>
      <trkpt lat="43.57055" lon="5.35173">
        <ele>282.51586914062</ele>
        <time>2021-11-03T13:41:30Z</time>
      </trkpt>
      <trkpt lat="43.57051" lon="5.35183">
        <ele>283.45013427734</ele>
        <time>2021-11-03T13:41:37Z</time>
      </trkpt>
      <trkpt lat="43.57046" lon="5.35191">
        <ele>284.42639160156</ele>
        <time>2021-11-03T13:41:44Z</time>
      </trkpt>
      <trkpt lat="43.57042" lon="5.35202">
        <ele>283.92498779297</ele>
        <time>2021-11-03T13:41:52Z</time>
      </trkpt>
      <trkpt lat="43.57036" lon="5.3521">
        <ele>286.57171630859</ele>
        <time>2021-11-03T13:41:59Z</time>
      </trkpt>
      <trkpt lat="43.57032" lon="5.3522">
        <ele>285.66668701172</ele>
        <time>2021-11-03T13:42:07Z</time>
      </trkpt>
      <trkpt lat="43.57027" lon="5.3523">
        <ele>285.10852050781</ele>
        <time>2021-11-03T13:42:15Z</time>
      </trkpt>
      <trkpt lat="43.57022" lon="5.3524">
        <ele>286.76049804688</ele>
        <time>2021-11-03T13:42:23Z</time>
      </trkpt>
      <trkpt lat="43.57018" lon="5.3525">
        <ele>284.40454101562</ele>
        <time>2021-11-03T13:42:31Z</time>
      </trkpt>
      <trkpt lat="43.57014" lon="5.35261">
        <ele>284.22436523438</ele>
        <time>2021-11-03T13:42:39Z</time>
      </trkpt>
      <trkpt lat="43.5701" lon="5.35271">
        <ele>284.46447753906</ele>
        <time>2021-11-03T13:42:47Z</time>
      </trkpt>
      <trkpt lat="43.57005" lon="5.3528">
        <ele>285.61108398438</ele>
        <time>2021-11-03T13:42:54Z</time>
      </trkpt>
      <trkpt lat="43.57" lon="5.3529">
        <ele>286.57922363281</ele>
        <time>2021-11-03T13:43:02Z</time>
      </trkpt>
      <trkpt lat="43.56997" lon="5.353">
        <ele>285.0849609375</ele>
        <time>2021-11-03T13:43:09Z</time>
      </trkpt>
      <trkpt lat="43.56993" lon="5.35311">
        <ele>283.76037597656</ele>
        <time>2021-11-03T13:43:17Z</time>
      </trkpt>
      <trkpt lat="43.5699" lon="5.35321">
        <ele>281.76080322266</ele>
        <time>2021-11-03T13:43:25Z</time>
      </trkpt>
      <trkpt lat="43.56984" lon="5.35329">
        <ele>284.95849609375</ele>
        <time>2021-11-03T13:43:50Z</time>
      </trkpt>
      <trkpt lat="43.56993" lon="5.35327">
        <ele>283.95184326172</ele>
        <time>2021-11-03T13:44:06Z</time>
      </trkpt>
      <trkpt lat="43.57001" lon="5.35331">
        <ele>285.67535400391</ele>
        <time>2021-11-03T13:44:15Z</time>
      </trkpt>
      <trkpt lat="43.57009" lon="5.35335">
        <ele>280.35009765625</ele>
        <time>2021-11-03T13:44:22Z</time>
      </trkpt>
      <trkpt lat="43.57016" lon="5.35338">
        <ele>280.57489013672</ele>
        <time>2021-11-03T13:44:30Z</time>
      </trkpt>
      <trkpt lat="43.57025" lon="5.35338">
        <ele>283.28259277344</ele>
        <time>2021-11-03T13:44:38Z</time>
      </trkpt>
      <trkpt lat="43.57034" lon="5.3534">
        <ele>285.32641601562</ele>
        <time>2021-11-03T13:44:46Z</time>
      </trkpt>
      <trkpt lat="43.57042" lon="5.35342">
        <ele>284.96801757812</ele>
        <time>2021-11-03T13:44:53Z</time>
      </trkpt>
      <trkpt lat="43.5705" lon="5.35342">
        <ele>285.25433349609</ele>
        <time>2021-11-03T13:45:01Z</time>
      </trkpt>
      <trkpt lat="43.57058" lon="5.35344">
        <ele>286.70141601562</ele>
        <time>2021-11-03T13:45:09Z</time>
      </trkpt>
      <trkpt lat="43.57067" lon="5.35345">
        <ele>287.71020507812</ele>
        <time>2021-11-03T13:45:19Z</time>
      </trkpt>
      <trkpt lat="43.57076" lon="5.35344">
        <ele>286.04455566406</ele>
        <time>2021-11-03T13:45:28Z</time>
      </trkpt>
      <trkpt lat="43.57084" lon="5.35343">
        <ele>286.51135253906</ele>
        <time>2021-11-03T13:45:36Z</time>
      </trkpt>
      <trkpt lat="43.57092" lon="5.35348">
        <ele>281.13208007812</ele>
        <time>2021-11-03T13:45:46Z</time>
      </trkpt>
      <trkpt lat="43.57096" lon="5.35358">
        <ele>283.87048339844</ele>
        <time>2021-11-03T13:46:01Z</time>
      </trkpt>
      <trkpt lat="43.57104" lon="5.35354">
        <ele>284.52520751953</ele>
        <time>2021-11-03T13:46:10Z</time>
      </trkpt>
      <trkpt lat="43.57111" lon="5.35348">
        <ele>284.5361328125</ele>
        <time>2021-11-03T13:46:17Z</time>
      </trkpt>
      <trkpt lat="43.57119" lon="5.35345">
        <ele>285.67584228516</ele>
        <time>2021-11-03T13:46:26Z</time>
      </trkpt>
      <trkpt lat="43.57127" lon="5.35348">
        <ele>283.59613037109</ele>
        <time>2021-11-03T13:46:35Z</time>
      </trkpt>
      <trkpt lat="43.57135" lon="5.35354">
        <ele>285.77404785156</ele>
        <time>2021-11-03T13:46:46Z</time>
      </trkpt>
      <trkpt lat="43.57137" lon="5.35355">
        <ele>285.47082519531</ele>
        <time>2021-11-03T13:46:53Z</time>
      </trkpt>
      <trkpt lat="43.57137" lon="5.35355">
        <ele>285.47082519531</ele>
        <time>2021-11-03T13:46:54Z</time>
      </trkpt>
    </trkseg>
  </trk>
</gpx>